[[{"header":{"parameterUnit":"m.s-1","parameterCategory":1,"la1":30.6,"la2":29.2853,"lo1":-89.7004,"lo2":-87.6739,"dy":0.0162,"dx":0.0183,"nx":112,"ny":82,"refTime":"2023-11-04T18:00:00:Z","depth":0,"parameterNumber":2,"parameterNumberName":"U-component_of_WINDS"},"data":[0.0,0.0,0.0,0.0,0.0,0.0,0.0,0.0,0.0,0.0,0.0,0.0,0.0,0.0,0.0,0.0,0.0,0.0,0.0,0.0,0.0,0.0,0.0,0.0,0.0,0.0,0.0,0.0,0.0,0.0,0.0,0.0,0.0,0.0,0.0,0.0,0.0,0.0,0.0,0.0,0.0,0.0,0.0,0.0,0.0,0.0,0.0,0.0,0.0,0.0,0.0,0.0,0.0,0.0,0.0,0.0,0.0,0.0,0.0,0.0,0.0,0.0,0.0,0.0,0.0,0.0,0.0,0.0,0.0,0.0,0.0,0.0,0.0,0.0,0.0,0.0,0.0,0.0,0.0,0.0,0.0,0.0,0.0,0.0,0.0,0.0,0.0,0.0,0.0,0.0,0.0,-4.0165,-4.346,-4.5594,-4.5594,-4.5109,-4.2664,-3.7628,0.0,0.0,0.0,0.0,0.0,0.0,0.0,0.0,0.0,0.0,0.0,0.0,0.0,0.0,0.0,0.0,0.0,0.0,0.0,0.0,0.0,0.0,0.0,0.0,0.0,0.0,0.0,0.0,0.0,0.0,0.0,0.0,0.0,0.0,0.0,0.0,0.0,0.0,0.0,0.0,0.0,0.0,0.0,0.0,0.0,0.0,0.0,0.0,0.0,0.0,0.0,0.0,0.0,0.0,0.0,0.0,0.0,0.0,0.0,0.0,0.0,0.0,0.0,0.0,0.0,0.0,0.0,0.0,0.0,0.0,0.0,0.0,0.0,0.0,0.0,0.0,0.0,0.0,0.0,0.0,0.0,0.0,0.0,0.0,0.0,0.0,0.0,0.0,0.0,0.0,0.0,0.0,0.0,0.0,0.0,0.0,0.0,0.0,0.0,0.0,0.0,0.0,0.0,0.0,-3.888,-4.3123,-4.4793,-4.5594,-4.5594,-4.4347,-4.1775,-3.758,0.0,0.0,0.0,0.0,0.0,0.0,0.0,0.0,0.0,0.0,0.0,0.0,0.0,0.0,0.0,0.0,0.0,0.0,0.0,0.0,0.0,0.0,0.0,0.0,0.0,0.0,0.0,0.0,0.0,0.0,0.0,0.0,0.0,0.0,0.0,0.0,0.0,0.0,0.0,0.0,0.0,0.0,0.0,0.0,0.0,0.0,0.0,0.0,0.0,0.0,0.0,0.0,0.0,0.0,0.0,0.0,0.0,0.0,0.0,0.0,0.0,0.0,0.0,0.0,0.0,0.0,0.0,0.0,0.0,0.0,0.0,0.0,0.0,0.0,0.0,0.0,0.0,0.0,0.0,0.0,0.0,0.0,0.0,0.0,0.0,0.0,0.0,0.0,0.0,0.0,0.0,0.0,0.0,0.0,0.0,0.0,0.0,0.0,0.0,0.0,0.0,0.0,0.0,-3.8073,-3.9779,-4.3852,-4.4662,-4.4893,-4.4893,-4.3912,-4.1572,-3.7551,-3.682,0.0,0.0,0.0,0.0,0.0,0.0,0.0,0.0,0.0,0.0,0.0,0.0,0.0,0.0,0.0,0.0,0.0,0.0,0.0,0.0,0.0,0.0,0.0,0.0,0.0,0.0,0.0,0.0,0.0,0.0,0.0,0.0,0.0,0.0,0.0,0.0,0.0,0.0,0.0,0.0,0.0,0.0,0.0,0.0,0.0,0.0,0.0,0.0,0.0,0.0,0.0,0.0,0.0,0.0,0.0,0.0,0.0,0.0,0.0,0.0,0.0,0.0,0.0,0.0,0.0,0.0,0.0,0.0,0.0,0.0,0.0,0.0,0.0,0.0,0.0,0.0,0.0,0.0,0.0,0.0,0.0,0.0,0.0,0.0,0.0,0.0,0.0,0.0,0.0,0.0,0.0,0.0,0.0,0.0,0.0,0.0,0.0,0.0,0.0,0.0,0.0,0.0,-4.0597,-4.1303,-4.4006,-4.4297,-4.422,-4.4028,-4.3055,-4.0892,-3.7229,-3.6012,0.0,0.0,0.0,0.0,0.0,0.0,0.0,0.0,0.0,0.0,0.0,0.0,0.0,0.0,0.0,0.0,0.0,0.0,0.0,0.0,0.0,0.0,0.0,0.0,0.0,0.0,0.0,0.0,0.0,0.0,0.0,0.0,0.0,0.0,0.0,0.0,0.0,0.0,0.0,0.0,0.0,0.0,0.0,0.0,0.0,0.0,0.0,0.0,0.0,0.0,0.0,0.0,0.0,0.0,0.0,0.0,0.0,0.0,0.0,0.0,0.0,0.0,0.0,0.0,0.0,0.0,0.0,0.0,0.0,0.0,0.0,0.0,0.0,0.0,0.0,0.0,0.0,0.0,0.0,0.0,0.0,0.0,0.0,0.0,0.0,0.0,0.0,0.0,0.0,0.0,0.0,0.0,0.0,0.0,0.0,0.0,0.0,0.0,0.0,0.0,0.0,0.0,-4.0954,-4.3217,-4.4201,-4.4297,-4.3989,-4.3258,-4.1194,-3.8847,-3.6243,-3.4059,0.0,0.0,0.0,0.0,0.0,0.0,0.0,0.0,0.0,0.0,0.0,0.0,0.0,0.0,0.0,0.0,0.0,0.0,0.0,0.0,0.0,0.0,0.0,0.0,0.0,0.0,0.0,0.0,0.0,0.0,0.0,0.0,0.0,0.0,0.0,0.0,0.0,0.0,0.0,0.0,0.0,0.0,0.0,0.0,0.0,0.0,0.0,0.0,0.0,0.0,0.0,0.0,0.0,0.0,0.0,0.0,0.0,0.0,0.0,0.0,0.0,0.0,0.0,0.0,0.0,0.0,0.0,0.0,0.0,0.0,0.0,0.0,0.0,0.0,0.0,0.0,0.0,0.0,0.0,0.0,0.0,0.0,0.0,0.0,0.0,0.0,0.0,0.0,0.0,0.0,0.0,0.0,0.0,0.0,0.0,0.0,0.0,0.0,0.0,0.0,0.0,0.0,-3.9258,-4.1239,0.0,-4.3239,-4.3201,-4.2354,-4.1313,-3.9349,-3.6196,0.0,0.0,0.0,0.0,0.0,0.0,0.0,0.0,0.0,0.0,0.0,0.0,0.0,0.0,0.0,0.0,0.0,0.0,0.0,0.0,0.0,0.0,0.0,0.0,0.0,0.0,0.0,0.0,0.0,0.0,0.0,0.0,0.0,0.0,0.0,0.0,0.0,0.0,0.0,0.0,0.0,0.0,0.0,0.0,0.0,0.0,0.0,0.0,0.0,0.0,0.0,0.0,0.0,0.0,0.0,0.0,0.0,0.0,0.0,0.0,0.0,0.0,0.0,0.0,0.0,0.0,0.0,0.0,0.0,0.0,0.0,0.0,0.0,0.0,0.0,0.0,0.0,0.0,0.0,0.0,0.0,0.0,0.0,0.0,0.0,0.0,0.0,0.0,0.0,0.0,0.0,0.0,0.0,0.0,0.0,0.0,0.0,0.0,0.0,0.0,0.0,0.0,-3.6231,-3.843,-4.0219,0.0,-4.2335,-4.2335,-4.147,-4.0384,-3.8556,-3.5788,0.0,0.0,0.0,0.0,0.0,0.0,0.0,0.0,0.0,0.0,0.0,0.0,0.0,0.0,0.0,0.0,0.0,0.0,0.0,0.0,0.0,0.0,0.0,0.0,0.0,0.0,0.0,0.0,0.0,0.0,0.0,0.0,0.0,0.0,0.0,0.0,0.0,0.0,0.0,0.0,0.0,0.0,0.0,0.0,0.0,0.0,0.0,0.0,0.0,0.0,0.0,0.0,0.0,0.0,0.0,0.0,0.0,0.0,0.0,0.0,0.0,0.0,0.0,0.0,0.0,0.0,0.0,0.0,0.0,0.0,0.0,0.0,0.0,0.0,0.0,0.0,0.0,0.0,0.0,0.0,0.0,0.0,0.0,0.0,0.0,0.0,0.0,0.0,0.0,0.0,0.0,0.0,0.0,0.0,0.0,0.0,0.0,0.0,0.0,0.0,0.0,0.0,-3.6365,-3.8911,-4.0816,-4.1692,-4.1788,-4.145,-4.0554,-3.7994,-3.5955,0.0,0.0,0.0,0.0,0.0,0.0,0.0,0.0,0.0,0.0,0.0,0.0,0.0,0.0,0.0,0.0,0.0,0.0,0.0,0.0,0.0,0.0,0.0,0.0,0.0,0.0,0.0,0.0,0.0,0.0,0.0,0.0,0.0,0.0,0.0,0.0,0.0,0.0,0.0,0.0,0.0,0.0,0.0,0.0,0.0,0.0,0.0,0.0,0.0,0.0,0.0,0.0,0.0,0.0,0.0,0.0,0.0,0.0,0.0,0.0,0.0,0.0,0.0,0.0,0.0,0.0,0.0,0.0,0.0,0.0,0.0,0.0,0.0,0.0,0.0,0.0,0.0,0.0,0.0,0.0,0.0,0.0,0.0,0.0,0.0,0.0,0.0,0.0,0.0,0.0,0.0,0.0,0.0,0.0,0.0,0.0,0.0,0.0,0.0,0.0,0.0,0.0,0.0,-3.5538,-3.8084,-3.9977,-4.0796,-4.1431,-4.1219,-3.9785,-3.8912,-3.719,-3.427,0.0,0.0,0.0,0.0,0.0,0.0,0.0,0.0,0.0,0.0,0.0,0.0,0.0,0.0,0.0,0.0,0.0,0.0,0.0,0.0,0.0,0.0,0.0,0.0,0.0,0.0,0.0,0.0,0.0,0.0,0.0,0.0,0.0,0.0,0.0,0.0,0.0,0.0,0.0,0.0,0.0,0.0,0.0,0.0,0.0,0.0,0.0,0.0,0.0,0.0,0.0,0.0,0.0,0.0,0.0,0.0,0.0,0.0,0.0,0.0,0.0,0.0,0.0,0.0,0.0,0.0,0.0,0.0,0.0,0.0,0.0,0.0,0.0,0.0,0.0,0.0,0.0,0.0,0.0,0.0,0.0,0.0,0.0,0.0,0.0,0.0,0.0,0.0,0.0,0.0,0.0,0.0,0.0,0.0,0.0,0.0,0.0,0.0,0.0,0.0,0.0,0.0,-3.518,-3.7435,-3.9126,-3.9946,-4.0777,-4.0604,-3.8911,-3.8777,-3.7364,-3.4017,0.0,0.0,0.0,0.0,0.0,0.0,0.0,0.0,0.0,0.0,0.0,0.0,0.0,0.0,0.0,0.0,0.0,0.0,0.0,0.0,0.0,0.0,0.0,0.0,0.0,0.0,0.0,0.0,0.0,0.0,0.0,0.0,0.0,0.0,0.0,0.0,0.0,0.0,0.0,0.0,0.0,0.0,0.0,0.0,0.0,0.0,0.0,0.0,0.0,0.0,0.0,0.0,0.0,0.0,0.0,0.0,0.0,0.0,0.0,0.0,0.0,0.0,0.0,0.0,0.0,0.0,0.0,0.0,0.0,0.0,0.0,0.0,0.0,0.0,0.0,0.0,0.0,0.0,0.0,0.0,0.0,0.0,0.0,0.0,0.0,0.0,0.0,0.0,0.0,0.0,0.0,0.0,0.0,0.0,0.0,0.0,0.0,0.0,0.0,0.0,0.0,0.0,-3.5085,-3.6914,-3.8297,-3.909,-3.9831,-3.9631,-3.8027,-3.7873,-3.6699,-3.3888,0.0,0.0,0.0,0.0,0.0,0.0,0.0,0.0,0.0,0.0,0.0,0.0,0.0,0.0,0.0,0.0,0.0,0.0,0.0,0.0,0.0,0.0,0.0,0.0,0.0,0.0,0.0,0.0,0.0,0.0,0.0,0.0,0.0,0.0,0.0,0.0,0.0,0.0,0.0,0.0,0.0,0.0,0.0,0.0,0.0,0.0,0.0,0.0,0.0,0.0,0.0,0.0,0.0,0.0,0.0,0.0,0.0,0.0,0.0,0.0,-4.248,0.0,0.0,0.0,0.0,0.0,0.0,0.0,0.0,0.0,0.0,0.0,0.0,0.0,0.0,0.0,0.0,0.0,0.0,0.0,0.0,0.0,0.0,0.0,0.0,0.0,0.0,0.0,0.0,0.0,0.0,0.0,0.0,0.0,0.0,0.0,0.0,0.0,0.0,0.0,0.0,0.0,-3.4311,-3.6074,-3.7467,-3.8264,-3.8458,-3.8104,-3.7065,-3.6981,-3.5878,-3.3268,-3.2771,0.0,0.0,0.0,0.0,0.0,0.0,0.0,0.0,0.0,0.0,0.0,0.0,0.0,0.0,0.0,0.0,0.0,0.0,0.0,0.0,0.0,0.0,0.0,0.0,0.0,0.0,0.0,0.0,0.0,0.0,0.0,0.0,0.0,0.0,0.0,0.0,0.0,0.0,0.0,0.0,0.0,0.0,0.0,0.0,0.0,0.0,0.0,0.0,0.0,0.0,0.0,0.0,0.0,0.0,0.0,0.0,0.0,0.0,0.0,0.0,-4.4121,0.0,0.0,0.0,0.0,0.0,0.0,0.0,0.0,0.0,0.0,0.0,0.0,0.0,0.0,0.0,0.0,0.0,0.0,0.0,0.0,0.0,0.0,0.0,0.0,0.0,0.0,0.0,0.0,0.0,0.0,0.0,0.0,0.0,0.0,0.0,0.0,0.0,0.0,0.0,0.0,-3.4175,-3.5916,-3.7148,-3.7535,-3.7508,-3.7109,-3.624,-3.6151,-3.5192,-3.3045,-3.2793,0.0,0.0,0.0,0.0,0.0,0.0,0.0,0.0,0.0,0.0,0.0,0.0,0.0,0.0,0.0,0.0,0.0,0.0,0.0,0.0,0.0,0.0,0.0,0.0,0.0,0.0,0.0,0.0,0.0,0.0,0.0,0.0,0.0,0.0,0.0,0.0,0.0,0.0,0.0,0.0,0.0,0.0,0.0,0.0,0.0,0.0,0.0,0.0,0.0,0.0,0.0,0.0,0.0,-5.0019,-5.0469,-5.084,-5.0273,-5.0332,-5.0742,-4.8574,-4.7715,-4.7695,0.0,0.0,0.0,0.0,0.0,0.0,0.0,0.0,0.0,0.0,0.0,0.0,0.0,0.0,0.0,0.0,0.0,0.0,0.0,0.0,0.0,0.0,0.0,0.0,0.0,-4.0566,-4.0176,0.0,0.0,0.0,0.0,0.0,0.0,0.0,0.0,0.0,0.0,0.0,0.0,-3.3882,-3.5439,-3.6423,-3.6362,-3.6287,-3.5965,-3.5229,-3.5137,-3.4417,-3.2819,-3.2703,-3.1702,0.0,0.0,0.0,0.0,0.0,0.0,0.0,0.0,0.0,0.0,0.0,0.0,0.0,0.0,0.0,0.0,0.0,0.0,0.0,0.0,0.0,0.0,0.0,0.0,0.0,0.0,0.0,0.0,0.0,0.0,0.0,0.0,-4.2503,-4.2618,0.0,0.0,0.0,0.0,0.0,0.0,0.0,0.0,0.0,0.0,0.0,0.0,0.0,-4.7427,-4.8875,-5.0869,-5.1906,-5.2057,-5.4448,-5.4844,-5.3516,-5.416,-5.4101,-5.3476,-5.3125,0.0,-4.8652,-4.7656,0.0,0.0,0.0,0.0,0.0,0.0,0.0,0.0,0.0,0.0,0.0,0.0,0.0,0.0,0.0,0.0,0.0,0.0,0.0,0.0,0.0,0.0,-4.1562,-4.0215,-4.0566,-4.084,0.0,-3.7519,-3.5937,-3.5703,-3.3789,0.0,0.0,0.0,0.0,0.0,0.0,0.0,-3.2308,-3.3184,-3.3805,-3.3799,-3.3737,-3.3646,-3.3529,-3.3514,-3.3067,-3.201,-3.1942,-3.1444,-3.036,-3.0321,0.0,0.0,0.0,0.0,0.0,0.0,0.0,0.0,0.0,0.0,0.0,0.0,0.0,0.0,0.0,0.0,0.0,0.0,0.0,0.0,0.0,0.0,0.0,0.0,0.0,0.0,0.0,0.0,0.0,-4.1709,-4.3605,-4.3143,-4.2835,-4.1771,0.0,0.0,0.0,0.0,0.0,0.0,0.0,0.0,0.0,-4.9162,-5.0213,-5.1074,-5.1773,-5.3599,-5.4546,-5.4585,-5.5384,-5.5607,-5.5334,-5.4803,-5.4355,-5.4004,-5.4004,-5.2871,-5.0898,-4.9082,-4.7305,-4.5605,0.0,0.0,0.0,0.0,-4.3086,-4.2226,-4.3594,-4.375,0.0,-4.2754,0.0,0.0,0.0,0.0,0.0,0.0,0.0,0.0,0.0,0.0,0.0,-4.0684,-4.0918,-4.0957,-4.0098,-3.8223,-3.6738,0.0,-3.4648,-3.2871,-3.2871,0.0,0.0,0.0,0.0,0.0,-3.2104,-3.2845,-3.3352,-3.3352,-3.2854,-3.2723,-3.3205,-3.2778,-3.2292,-3.1883,-3.1864,-3.1476,-3.0586,-3.0567,-3.0567,0.0,0.0,0.0,0.0,0.0,0.0,0.0,0.0,0.0,0.0,0.0,0.0,0.0,0.0,0.0,0.0,0.0,0.0,0.0,0.0,0.0,0.0,0.0,0.0,0.0,0.0,0.0,0.0,-4.3778,-4.5547,-4.4509,-4.549,-4.4836,0.0,0.0,0.0,0.0,0.0,0.0,-4.8296,-4.9595,-5.0819,-5.202,-5.3356,-5.4146,-5.4323,-5.5474,-5.6064,-5.6115,-5.5392,-5.5269,-5.5643,-5.4476,-5.3708,-5.3298,-5.332,-5.2715,-5.1601,-5.0137,-4.8516,-4.6836,-4.5547,-4.4629,-4.418,-4.5254,-4.4961,-4.4258,-4.5762,-4.5879,-4.5234,-4.457,0.0,-4.1387,-4.0742,0.0,0.0,0.0,0.0,-3.875,-3.9394,-3.9726,-4.0019,-4.043,-4.0351,-3.9998,-3.9354,-3.7652,-3.6382,0.0,-3.4863,-3.3086,-3.3086,0.0,0.0,0.0,0.0,-3.1797,-3.1562,-3.2051,-3.2422,-3.2422,-3.1791,-3.1741,-3.2616,-3.206,-3.1639,-3.1601,-3.1582,-3.1293,-3.0653,-3.0633,-3.0633,-3.0633,0.0,0.0,0.0,0.0,0.0,0.0,0.0,0.0,0.0,0.0,0.0,0.0,0.0,0.0,0.0,0.0,0.0,0.0,0.0,0.0,0.0,0.0,0.0,0.0,0.0,0.0,0.0,0.0,0.0,-4.8048,-5.0019,0.0,0.0,0.0,0.0,-4.5468,-4.6969,-4.9009,-5.153,-5.1741,-5.2915,-5.5378,-5.5542,-5.5985,-5.6813,-5.6209,-5.5912,-5.592,-5.524,-5.45,-5.3731,-5.3793,-5.2908,-5.1347,-5.1481,-5.0605,-4.9199,-5.0664,-5.0273,-4.8769,-4.8672,-4.7129,-4.5137,-4.6836,-4.6387,-4.5078,-4.5976,-4.6269,-4.623,-4.6172,-4.4433,-4.2324,-4.2285,-3.998,0.0,0.0,-3.8594,-3.8613,-3.8652,-3.9277,-3.9707,-3.8926,-3.8042,-3.7382,-3.7343,-3.5279,-3.3923,0.0,-3.4004,-3.2266,-3.2266,0.0,-3.0898,-3.0898,-3.0937,-3.0664,-2.9844,-2.9766,-2.9785,-2.9785,-2.9746,-3.0078,-3.0957,-3.0976,-3.0894,-3.0771,-3.075,-3.0731,-3.0692,-3.0692,-3.0692,-3.0692,-2.989,0.0,0.0,0.0,0.0,0.0,0.0,0.0,0.0,0.0,0.0,0.0,0.0,0.0,0.0,0.0,0.0,0.0,0.0,0.0,0.0,0.0,0.0,0.0,0.0,0.0,0.0,0.0,0.0,-4.9913,-5.2029,0.0,-4.8413,-4.8336,-4.8606,-4.8865,-5.0433,-5.2029,-5.3491,-5.4607,-5.5588,-5.6522,-5.7069,-5.7242,-5.7003,-5.6751,-5.6059,-5.4988,-5.4285,-5.3475,-5.2609,-5.1658,-5.0895,-5.0272,-4.9763,-4.919,-4.8705,-4.9387,-4.9036,-4.8008,-4.7441,-4.666,-4.5918,-4.6523,-4.6367,-4.5879,-4.6191,-4.6308,-4.6113,-4.498,-4.3613,-4.2305,-4.1777,-4.0371,-3.9043,-3.9355,-3.8961,-3.8462,-3.8462,-3.7863,-3.718,-3.6868,-3.5685,-3.4462,-3.3901,-3.2633,-3.1612,-3.1739,-3.1465,-3.1263,-3.1347,-3.0644,-2.9863,-2.9316,-2.9238,-2.9101,-2.8809,-2.8769,-2.8769,-2.8769,-2.8769,-2.9121,-2.998,-3.0059,-3.0039,-2.9996,-3.0524,-3.0328,-2.9195,-2.9684,-2.9723,-2.9176,-2.8316,-2.8434,0.0,0.0,0.0,0.0,0.0,0.0,0.0,0.0,0.0,0.0,0.0,0.0,0.0,0.0,0.0,0.0,0.0,0.0,0.0,0.0,0.0,0.0,0.0,0.0,0.0,0.0,-5.1692,-5.1164,-5.3876,-5.4434,-5.101,-5.1452,-5.1972,-5.1982,-5.326,-5.4414,-5.5299,-5.6406,-5.7003,-5.7003,-5.7261,-5.7011,-5.6156,-5.5857,-5.5011,-5.3626,-5.3136,-5.2307,-5.1156,-5.0177,-4.9399,-4.884,-4.8287,-4.7901,-4.7633,-4.7717,-4.747,-4.7033,-4.7147,-4.6816,-4.6348,-4.6621,-4.6543,-4.6269,-4.5957,-4.5859,-4.5625,-4.4138,-4.3082,-4.2201,-4.1354,-4.0277,-3.9301,-3.9009,-3.825,-3.7464,-3.7152,-3.6228,-3.522,-3.4616,-3.3369,-3.2065,-3.1213,-3.037,-2.9596,-2.9048,-2.9418,-2.9848,-2.9949,-2.9483,-2.8918,-2.8356,-2.8256,-2.8137,-2.7868,-2.783,-2.783,-2.783,-2.7851,-2.832,-2.9492,-2.9609,-2.9609,-2.9609,-3.0137,-2.9805,-2.8359,-2.8848,-2.9023,-2.873,-2.785,-2.7827,-2.8659,0.0,0.0,0.0,0.0,0.0,0.0,0.0,0.0,0.0,0.0,0.0,0.0,0.0,0.0,0.0,0.0,0.0,0.0,0.0,0.0,0.0,0.0,0.0,-4.5438,-4.9269,-5.1941,-5.2028,-5.5701,-5.6942,-5.3645,-5.553,-5.6291,-5.4664,-5.5261,-5.6069,-5.6907,-5.6964,-5.6945,-5.6926,-5.6088,-5.528,-5.4472,-5.3587,-5.2722,-5.1865,-5.1827,-5.0971,-4.9365,-4.9475,-4.859,-4.7002,-4.71,-4.6673,-4.589,-4.5894,-4.5894,-4.6095,-4.8033,-4.7773,-4.6386,-4.7246,-4.6992,-4.6133,-4.5273,-4.4941,-4.4726,-4.3803,-4.291,-4.2002,-4.1098,-3.9625,-3.8084,-3.7212,-3.6378,-3.5541,-3.4679,-3.4413,-3.3952,-3.2258,-3.1121,-3.0191,-2.9381,-2.8507,-2.7879,-2.7907,-2.7974,-2.8014,-2.8058,-2.8058,-2.8076,-2.8118,-2.8051,0.0,-2.6964,-2.6851,-2.6851,-2.6851,-2.6909,-2.7656,-2.9375,-2.9512,-2.9512,-2.9512,-2.9531,-2.914,-2.8242,-2.8242,-2.8633,-2.9453,-2.8603,-2.7709,-2.6798,0.0,0.0,0.0,0.0,0.0,0.0,0.0,0.0,0.0,0.0,0.0,0.0,0.0,0.0,0.0,0.0,0.0,0.0,0.0,0.0,0.0,0.0,-4.4932,-4.7176,-5.0079,-5.277,-5.4919,-5.6199,-5.6682,-5.6019,-5.6011,-5.5857,-5.5395,-5.5568,-5.5799,-5.603,-5.6049,-5.578,-5.5203,-5.4953,-5.4414,-5.3568,-5.2692,-5.1837,-5.101,-5.0394,-4.951,-4.8432,-4.7889,-4.7375,-4.6885,-4.631,-4.5889,-4.5684,-4.5796,-4.5826,-4.5889,-4.6485,-4.6433,-4.604,-4.6277,-4.5849,-4.5111,-4.4877,-4.3574,-4.1975,-4.1737,-4.0623,-3.9354,-3.9098,-3.8247,-3.7193,-3.6362,-3.5453,-3.4514,-3.3703,-3.2517,-3.1414,-3.0926,-2.9684,-2.8386,-2.7538,-2.7137,-2.6785,-2.6169,-2.6056,-2.6308,-2.7023,-2.7157,-2.6948,-2.6336,-2.6227,0.0,-2.5905,-2.5888,-2.5888,-2.5888,-2.59,-2.6359,-2.7473,-2.7571,-2.7571,-2.7571,-2.8158,-2.7846,-2.6339,-2.6887,-2.7023,-2.6632,-2.6991,-2.7054,0.0,0.0,0.0,0.0,0.0,0.0,0.0,0.0,0.0,0.0,0.0,0.0,0.0,0.0,0.0,0.0,0.0,0.0,0.0,0.0,0.0,0.0,-4.3571,-4.5833,-4.7954,-5.0122,-5.2529,-5.5284,-5.5598,-5.5836,-5.6389,-5.6179,-5.5849,-5.5485,-5.5599,-5.5549,-5.5222,-5.5203,-5.4818,-5.3972,-5.3606,-5.301,-5.2164,-5.1298,-5.0433,-4.9606,-4.9106,-4.8413,-4.7586,-4.7115,-4.6701,0.0,-4.5825,-4.5594,-4.5603,-4.5669,-4.551,0.0,0.0,0.0,0.0,0.0,-4.4876,-4.4063,-4.3347,-4.214,-4.0774,-4.0025,-3.908,-3.8177,-3.7754,-3.7036,-3.6198,-3.5349,-3.3935,-3.2549,-3.2095,-3.0675,-2.925,-2.8885,-2.8063,-2.7121,-2.6231,-2.6058,-2.5904,-2.5404,-2.5308,0.0,-2.6079,-2.6178,-2.6013,-2.552,-2.5434,-2.5425,-2.5459,-2.5462,-2.5462,-2.5462,-2.5473,-2.5844,-2.6727,-2.6805,0.0,0.0,0.0,-2.6941,-2.5569,-2.6335,0.0,0.0,0.0,-2.6744,-2.6717,0.0,0.0,0.0,-2.9732,-3.037,0.0,0.0,0.0,0.0,0.0,0.0,0.0,0.0,0.0,0.0,0.0,0.0,0.0,0.0,0.0,0.0,-4.4402,-4.6287,-4.7829,-4.9303,-5.122,-5.383,-5.4148,-5.4446,-5.5214,-5.5664,-5.5581,-5.4806,-5.5124,-5.5045,-5.4314,0.0,0.0,0.0,0.0,-5.1337,-5.0423,-4.9548,-4.8721,-4.7971,-4.7875,-4.7451,-4.6759,-4.6759,-4.6336,-4.5594,-4.5594,-4.5537,-4.546,-4.546,-4.494,-4.4262,-4.5217,-4.559,-4.5493,-4.4661,-4.381,-4.2842,-4.1271,0.0,0.0,-3.8417,-3.7755,-3.7436,-3.6543,-3.5769,-3.5,-3.4045,-3.2141,-3.0365,-3.0173,-2.8948,-2.7563,-2.6774,-2.6524,-2.6231,-2.5462,-2.5308,-2.5308,-2.5308,-2.5308,-2.5308,-2.5308,-2.5308,-2.5327,-2.5379,-2.5344,-2.5327,-2.5391,-2.5383,-2.5383,-2.5383,0.0,0.0,-2.6565,-2.6626,-2.6626,-2.6626,-2.6626,-2.6271,-2.5507,-2.6207,-2.621,-2.536,-2.6095,-2.6466,-2.64,-2.6496,-2.6919,-2.7723,-2.9486,-3.0265,0.0,0.0,0.0,0.0,0.0,0.0,0.0,0.0,0.0,0.0,0.0,0.0,0.0,0.0,0.0,-4.2165,-4.3807,-4.5278,-4.6232,-4.6652,-4.8136,-5.1607,-5.1996,-5.2186,-5.267,-5.2794,-5.2782,-5.2611,-5.2964,-5.3135,-5.2982,-5.3278,0.0,-5.1221,-5.101,-5.0183,-4.8625,-4.7798,-4.7298,-4.7115,0.0,0.0,-4.5845,-4.5845,-4.5768,-4.5594,-4.5594,-4.521,-4.4547,-4.4547,-4.4066,-4.3344,-4.3567,-4.3636,-4.3539,-4.2671,-4.181,-4.093,-3.9946,-3.8267,-3.6485,-3.6132,-3.5066,-3.3884,-3.3692,-3.3526,0.0,-3.1558,-3.0788,-3.0096,-2.8736,-2.7621,-2.6813,-2.664,-2.6058,-2.5519,-2.5346,-2.5308,-2.5308,-2.5308,-2.5308,-2.5308,-2.5308,-2.5308,-2.5293,-2.5322,-2.5303,-2.5293,-2.5322,-2.5322,-2.5322,-2.5322,-2.5326,-2.5402,-2.558,-2.5599,-2.5599,-2.5599,-2.5599,-2.5517,-2.5344,-2.5331,-2.5264,-2.5078,-2.5133,-2.5164,-2.5155,-2.5799,-2.6197,-2.6401,-2.7775,-2.8425,0.0,0.0,0.0,0.0,0.0,0.0,0.0,0.0,0.0,0.0,0.0,-3.7878,0.0,0.0,-4.1627,-4.324,-4.4195,-4.4984,-4.5792,-4.5902,-4.6746,-4.8992,-4.9603,-5.0101,-5.0739,-5.1351,-5.1539,-5.1126,-5.1466,-5.1334,-5.0531,-5.0697,-5.0287,-4.9175,-4.9156,-4.8624,-4.75,-4.7096,-4.6682,-4.624,-4.5806,-4.5364,-4.496,-4.496,-4.472,-4.4355,-4.4355,-4.4105,-4.3624,-4.2758,-4.217,-4.172,-4.0873,-4.1066,-4.17,-4.0854,-4.0008,-3.9065,-3.7834,-3.6565,-3.5365,-3.4481,-3.3603,-3.2891,-3.2891,-3.2314,-3.1462,-3.0635,-2.9481,-2.8308,-2.7467,-2.6601,-2.5942,-2.5942,-2.5615,-2.5308,-2.5308,-2.5219,-2.5152,-2.5152,-2.509,-2.5056,-2.5056,-2.5056,-2.5109,-2.5269,-2.5308,-2.5308,-2.5308,-2.5308,-2.5308,-2.5308,-2.5214,-2.5152,-2.5152,-2.5084,-2.5056,-2.5056,-2.5056,-2.5056,-2.5056,-2.4943,-2.4897,-2.4897,-2.4828,-2.4804,-2.4804,-2.52,-2.5408,-2.5415,-2.604,-2.6791,0.0,0.0,0.0,0.0,0.0,0.0,0.0,0.0,-3.5667,-3.7872,-3.8428,-3.9095,-4.1054,-4.1504,-4.2196,-4.4158,-4.447,-4.469,-4.5333,-4.5424,-4.5681,-4.6324,-4.726,-4.8104,-4.8821,-4.9751,-5.0059,-4.9408,-4.9743,-4.9399,-4.8098,-4.8093,-4.7876,-4.7258,-4.725,-4.7024,-4.6551,-4.6551,-4.6205,-4.5504,-4.534,-4.4852,-4.4106,-4.3942,-4.3539,-4.3007,-4.2896,-4.2758,-4.247,-4.092,-4.0169,-3.9861,-3.8161,-3.8334,-3.9457,-3.8796,-3.8123,-3.7276,-3.5577,-3.4885,-3.4519,-3.3122,-3.2545,-3.2372,-3.2218,-3.1218,-3.0077,-2.975,-2.8157,-2.6502,-2.6329,-2.5751,-2.5192,-2.5192,-2.5192,-2.5192,-2.5192,-2.5084,-2.4962,-2.4962,-2.4738,-2.4596,-2.4766,-2.4653,-2.4693,-2.5141,-2.5192,-2.5192,-2.5192,-2.5192,-2.5192,-2.5192,-2.5053,-2.4962,-2.4962,-2.4869,-2.4804,-2.4804,-2.4804,-2.4804,-2.4804,-2.476,-2.4746,-2.4746,-2.47,-2.4685,-2.4685,-2.4685,-2.4685,-2.4685,-2.4685,-2.5453,-2.9748,-3.1127,-3.3656,-3.5329,-3.6494,-3.7885,0.0,0.0,-3.9823,-4.1065,-4.1757,-4.221,-4.2463,-4.2904,-4.3331,-4.3589,-4.3626,-4.3663,-4.3772,-4.3772,-4.3808,-4.3883,-4.5241,-4.6214,-4.6287,-4.6434,-4.647,-4.6378,-4.6754,-4.69,-4.6713,-4.7057,-4.6855,-4.6036,-4.5999,-4.5773,-4.5311,-4.5292,-4.5254,-4.515,-4.4427,-4.3841,-4.3395,-4.2669,-4.2457,-4.2622,-4.2155,-4.1508,-4.0727,-3.9804,-3.8969,-3.8104,-3.6423,-3.5885,-3.6058,-3.5962,-3.5865,-3.5519,-3.3795,-3.2718,-3.2083,-3.191,-3.1308,-3.0538,-2.9756,-2.9396,-2.8934,-2.7448,-2.6682,-2.6155,-2.5378,-2.5019,-2.4861,-2.4861,-2.4861,-2.4861,-2.4861,-2.4847,-2.4814,-2.4814,-2.4202,-2.3886,-2.4672,-2.4169,-2.3919,-2.4721,-2.4861,-2.4861,-2.4861,-2.4861,-2.4861,-2.4861,-2.4847,-2.4814,-2.4814,-2.4811,-2.4804,-2.4804,-2.4804,-2.4804,-2.4804,-2.4623,-2.4518,-2.4518,-2.4357,-2.4275,-2.4275,-2.4275,-2.4275,-2.4275,-2.4275,-2.4554,-3.1846,-3.2608,-3.3885,0.0,-3.6952,-3.8402,-4.0028,-4.0053,-4.0117,-4.1516,-4.2,-4.2183,-4.2183,-4.2364,-4.2523,0.0,-4.2523,-4.2523,-4.2523,-4.2375,-4.2287,-4.2287,-4.3194,-4.4176,-4.5112,-4.5626,-4.5718,-4.5241,-4.5362,-4.5241,-4.4778,-4.4902,-4.4714,-4.4055,-4.4051,-4.3834,-4.3357,-4.3338,-4.3338,-4.3338,-4.3008,-4.2515,-4.1899,-4.1541,-4.095,-4.0116,-3.9422,-3.8642,-3.7812,-3.6964,-3.6126,-3.5266,-3.4048,-3.3285,-3.2974,-3.3709,-3.3987,-3.3814,-3.2622,-3.166,-3.0865,-3.0352,-2.9621,-2.8871,-2.8511,-2.7975,-2.7324,-2.6609,-2.5946,-2.5332,-2.4972,-2.447,-2.4037,-2.4037,-2.3685,-2.3345,-2.3345,-2.3244,-2.3165,-2.3165,-2.2806,-2.2627,-2.2999,-2.3132,-2.3169,-2.3074,-2.4043,-2.4804,-2.4804,-2.4804,-2.476,-2.4639,-2.4623,-2.4567,-2.4461,-2.4444,-2.4444,-2.4444,-2.4444,-2.4444,-2.4444,-2.4366,-2.433,-2.433,-2.4247,-2.419,-2.419,-2.419,-2.419,-2.419,-2.419,-2.4284,-3.2109,0.0,0.0,-3.5119,-3.6923,-3.8435,-3.8881,-3.9101,-3.9501,-4.0517,-4.099,-4.1239,-4.1239,-4.1545,-4.181,-4.181,-4.181,-4.181,-4.181,-4.1469,-4.1275,-4.1489,-4.1851,-4.2556,-4.3778,-4.4711,-4.5002,-4.4415,-4.4378,-4.4103,-4.3533,-4.3277,-4.3006,-4.2674,-4.2451,-4.2211,-4.1952,-4.1952,-4.1839,-4.1625,-4.1625,-4.1048,-3.9946,-3.9575,-3.8745,-3.7559,-3.6858,-3.5946,-3.4954,-3.4537,-3.3743,-3.2722,-3.1872,-3.1172,-3.0713,-3.1186,-3.1506,-3.1608,-3.0778,-3.0062,-2.9443,-2.8817,-2.8204,-2.768,-2.745,-2.6829,-2.6173,-2.5945,-2.5158,-2.4384,-2.4384,-2.3708,-2.3041,-2.3041,-2.259,-2.2166,-2.2166,-2.2051,-2.1945,-2.1945,-2.1631,-2.1432,-2.166,-2.1999,-2.2082,-2.1635,-2.2885,-2.3974,-2.4275,-2.45,-2.4575,-2.4426,-2.4428,-2.4357,-2.4209,-2.419,-2.419,-2.419,-2.4103,-2.4064,-2.4064,-2.3976,-2.3917,-2.3917,-2.3917,-2.3917,-2.3917,-2.3917,-2.3917,-2.3917,-2.3917,-2.3917,0.0,0.0,-3.236,-3.4104,-3.6498,-3.8312,-3.8013,-3.8362,-3.8597,-3.8129,-3.8991,-3.9874,-3.9874,-4.0933,-4.181,-4.181,-4.181,-4.181,-4.181,-4.118,-4.0991,-4.169,-4.1631,-4.1622,0.0,-4.2902,-4.357,-4.3551,-4.3551,-4.3533,-4.3515,-4.2763,-4.2323,-4.2321,-4.1568,-4.1298,-4.16,-4.1633,-4.1222,-4.0439,-4.0439,-3.9444,-3.757,-3.6259,-3.5651,-3.5551,-3.5078,-3.3933,-3.2465,-3.3223,-3.2552,-3.1001,-3.0179,-2.9857,-2.9631,-2.805,-2.8009,-2.8612,-2.7736,-2.7426,-2.7388,-2.735,-2.7331,-2.7153,-2.6307,-2.6027,-2.585,-2.5075,-2.4125,-2.3345,-2.3345,-2.2597,-2.1857,-2.1857,-2.1838,-2.182,-2.182,-2.1811,-2.1811,-2.1811,-2.0951,-2.0508,-2.1287,-2.078,-2.0443,-2.0947,-2.1306,-2.188,-2.2914,-2.3731,-2.4209,-2.4209,-2.4199,-2.4199,-2.419,-2.419,-2.419,-2.419,-2.3896,-2.3714,-2.3714,-2.3403,-2.3224,-2.3224,-2.3224,-2.3224,-2.3224,-2.3224,-2.3224,-2.3224,-2.3224,-2.3224,-2.7817,0.0,-3.1315,-3.328,-3.481,-3.5925,-3.6305,-3.6939,-3.7234,-3.653,-3.6712,-3.6853,-3.6381,-3.7499,-3.8475,-3.8475,-3.9709,-4.0666,-4.0666,-4.0302,-4.0132,-4.0388,-4.0718,0.0,0.0,0.0,0.0,-4.294,-4.1996,-4.1775,-4.2655,-4.1937,-4.102,-3.9955,-3.9662,-3.9059,-3.8083,-3.8079,-3.795,-3.7659,-3.7086,-3.6187,-3.4995,-3.3473,-3.2779,-3.2718,-3.1477,-3.0326,-2.9332,-2.9611,-2.9062,-2.8049,-2.7779,-2.7343,-2.6814,-2.6247,-2.5894,-2.5846,-2.6919,-2.6923,-2.6443,-2.6443,-2.6084,-2.5585,-2.5295,-2.5103,-2.4843,-2.4019,-2.3467,-2.2974,-2.2448,-2.1614,-2.0933,-2.0933,-2.0519,-2.0142,-2.0142,-2.0046,-1.9936,-1.9936,-1.9516,-1.9225,-1.9502,-1.9761,-2.018,-2.0896,-2.1082,-2.144,-2.2288,-2.265,-2.2991,-2.349,-2.3533,-2.3533,-2.3533,-2.3533,-2.3533,-2.3533,-2.3426,-2.3369,-2.3369,-2.3247,-2.32,-2.32,-2.32,-2.32,-2.32,-2.32,-2.32,-2.32,-2.32,-2.32,-2.794,-2.9256,-3.0402,-3.2282,-3.3278,-3.3918,-3.4387,-3.5065,-3.5436,-3.4906,-3.4805,-3.4675,-3.4184,-3.5351,-3.6265,-3.6034,-3.7642,-3.9012,-3.9276,-3.8952,-3.8963,-3.9746,-4.0125,0.0,0.0,0.0,0.0,-4.2273,-4.1336,-4.089,-4.1306,-4.0482,-3.938,-3.8065,-3.7463,-3.6738,-3.5844,-3.555,-3.5404,-3.5385,-3.4266,-3.344,-3.2889,-3.1274,-3.0393,-3.0038,-2.8723,-2.7695,-2.6972,-2.7255,-2.6906,-2.6172,-2.6172,-2.587,-2.5374,-2.5081,-2.4456,-2.4008,-2.5637,-2.5824,-2.5358,-2.5358,-2.5013,-2.4527,-2.4246,-2.4075,-2.3772,-2.2879,-2.2317,-2.1853,-2.1234,-2.0454,-1.9819,-1.9819,-1.9429,-1.9048,-1.9048,-1.8939,-1.887,-1.887,-1.8632,-1.846,-1.846,-1.8813,-1.9286,-1.992,-1.9928,-2.0402,-2.1919,-2.21,-2.2373,-2.313,-2.32,-2.32,-2.32,-2.32,-2.32,-2.32,-2.2847,-2.2629,-2.2629,-2.2538,-2.2494,-2.2494,-2.2743,-2.287,-2.287,-2.287,-2.287,-2.287,-2.287,-2.2658,-2.8694,-2.9246,-2.958,-3.1077,-3.1827,-3.2259,-3.227,-3.2739,-3.3136,-3.3086,-3.3086,-3.309,0.0,0.0,-3.5178,-3.4556,-3.5819,-3.7172,-3.7922,-3.7398,-3.776,0.0,0.0,0.0,0.0,0.0,0.0,-4.1505,0.0,-4.0662,-3.954,-3.8474,-3.7494,-3.6611,-3.5097,-3.4452,-3.4793,-3.405,-3.3642,-3.3505,-3.1977,-3.1207,-3.1078,-2.9495,-2.8359,-2.7622,-2.6822,-2.6033,-2.5393,-2.6153,-2.6025,-2.5338,-2.5338,-2.5338,-2.5217,-2.4428,-2.3639,-2.307,-2.3804,-2.407,-2.408,-2.4135,-2.4098,-2.3914,-2.3162,-2.2914,-2.2685,-2.1623,-2.077,-2.011,-1.981,-1.9172,-1.8595,-1.8595,-1.8595,-1.8595,-1.8595,-1.8585,-1.8576,-1.8576,-1.8351,-1.8156,-1.8156,-1.7938,-1.7839,-1.8093,-1.7899,-1.8762,-2.1571,-2.195,-2.2221,-2.2959,-2.3047,-2.3047,-2.3047,-2.3047,-2.3047,-2.3047,-2.2087,-2.1522,-2.1522,-2.1272,-2.114,-2.114,-2.1837,-2.2178,-2.2178,-2.2164,-2.2164,-2.2164,-2.215,-2.1546,-2.7564,-2.7958,-2.8166,-2.9016,-2.8952,-2.8822,-2.9335,-2.9594,-2.9597,-2.9037,-2.8923,-2.8735,0.0,0.0,0.0,-3.3566,-3.6332,0.0,-3.9446,-3.9385,0.0,-4.0028,0.0,-4.0033,-4.0104,-3.9397,0.0,0.0,-3.8447,-3.7734,-3.7888,-3.7004,-3.5651,-3.3724,-3.3262,-3.2701,-3.1946,-3.1984,-3.1283,-2.9844,-2.9426,-2.8609,-2.7416,-2.6153,-2.5735,-2.5952,-2.4902,-2.4449,-2.453,-2.4722,-2.4685,-2.4511,-2.4511,-2.4356,-2.4076,-2.3508,-2.2897,-2.2303,-2.2165,-2.2237,-2.251,-2.3107,-2.2767,-2.207,-2.187,-2.1665,-2.1327,-2.045,-2.0063,-1.9759,-1.9076,-1.8746,-1.8595,-1.8595,-1.8595,-1.8595,-1.8595,-1.844,-1.83,-1.83,-1.7876,-1.7527,-1.7527,-1.7272,-1.7093,-1.7163,-1.7101,-1.7704,-1.9486,-1.9722,-2.0002,-2.0732,-2.0818,-2.0818,-2.0818,-2.0818,-2.0818,-2.0818,-2.0559,-2.0407,-2.0407,-2.0336,-2.0302,-2.0302,-2.0487,-2.0589,-2.0589,-2.0331,-2.0206,-2.0223,-1.9956,-1.9687,-2.6915,-2.6902,-2.675,-2.7098,-2.6875,-2.6661,-2.7036,-2.7364,-2.746,-2.7058,-2.6716,0.0,0.0,0.0,0.0,0.0,0.0,0.0,-3.8005,-3.8393,-3.8865,0.0,-3.959,0.0,-3.9622,-3.8674,-3.7889,0.0,-3.6835,-3.6301,-3.6078,-3.4876,-3.3442,-3.1807,-3.1122,-3.0221,-2.9115,-2.8946,-2.8308,-2.723,-2.723,-2.6559,-2.5321,-2.4693,-2.4397,-2.4389,0.0,-2.3577,-2.3764,-2.3764,-2.3764,-2.3764,-2.3764,-2.3444,-2.2977,-2.271,-2.1957,-2.1103,-2.1189,-2.0859,-2.059,-2.175,-2.1717,-2.1159,-2.0808,-2.0585,-2.0284,-1.9354,-1.9102,-1.8974,-1.8394,-1.8249,-1.8249,-1.8249,-1.8249,-1.8249,-1.8249,-1.8125,-1.7975,-1.7838,-1.741,-1.7076,-1.7076,-1.6914,-1.6802,-1.6802,-1.6802,-1.7087,-1.7881,-1.8274,-1.8737,-1.9479,-1.9561,-1.9561,-1.9561,-1.9561,-1.9561,-1.9561,-1.925,-1.9085,-1.9085,-1.9085,-1.9085,-1.9085,-1.9396,-1.9561,-1.9561,-1.937,-1.9288,-1.9288,-1.909,-1.876,-2.6378,-2.5854,-2.533,-2.5241,-2.5111,-2.5035,-2.5112,-2.5464,-2.5783,-2.5879,0.0,-2.515,-2.5795,0.0,-2.9847,-2.9621,0.0,-3.47,-3.5732,-3.6443,-3.7324,-3.8597,-3.8726,-3.8706,-3.8706,-3.7302,-3.6097,-3.5386,-3.5497,-3.5141,-3.4104,-3.2629,-3.1304,-3.0197,-2.8743,-2.7509,-2.6578,-2.5932,-2.5537,-2.5392,-2.5392,-2.4959,-2.4178,-2.4128,-2.3783,-2.32,0.0,0.0,-2.32,-2.32,-2.3147,-2.3059,-2.3059,-2.2587,-2.1885,-2.1823,-2.0905,-1.9775,-2.0413,-1.9699,-1.8747,-2.0329,-2.073,-2.0504,-1.979,-1.9565,-1.9343,-1.8419,-1.8146,-1.8082,-1.7867,-1.78,-1.78,-1.78,-1.7777,-1.7726,-1.7726,-1.7692,-1.7589,-1.7284,-1.6964,-1.6738,-1.6738,-1.6699,-1.6659,-1.6659,-1.6659,-1.6659,-1.6659,-1.73,-1.8003,-1.8639,-1.8718,-1.8718,-1.8718,-1.8718,-1.8718,-1.8718,-1.8113,-1.7749,-1.7749,-1.7749,-1.7749,-1.7749,-1.8384,-1.8718,-1.8718,-1.8646,-1.8647,-1.8647,-1.8605,-1.8088,-2.5247,-2.4455,-2.3834,-2.3332,-2.2786,-2.2506,-2.3064,-2.2829,0.0,0.0,0.0,-2.3305,-2.3806,-2.5744,0.0,-3.0696,0.0,0.0,0.0,0.0,-3.7705,0.0,0.0,0.0,0.0,0.0,0.0,0.0,0.0,-3.1487,-3.1745,-3.1492,-3.0105,-2.7471,-2.6268,-2.5588,-2.5411,-2.5531,-2.5155,-2.4274,-2.4274,-2.3829,-2.2976,-2.2773,-2.2859,-2.3177,-2.291,0.0,-2.32,-2.32,-2.284,-2.2284,-2.2284,-2.1678,-2.0731,-2.035,-1.9706,-1.9019,-1.8773,-1.8359,-1.8173,-1.9558,-1.9406,-1.8666,-1.8516,-1.8314,-1.812,-1.7917,-1.7861,-1.7867,-1.7811,-1.78,-1.78,-1.78,-1.7584,-1.738,-1.738,-1.7163,-1.6968,-1.6904,-1.662,-1.6396,-1.6396,-1.615,-1.5969,-1.5969,-1.5969,-1.5969,-1.5969,-1.6571,-1.7039,-1.718,-1.718,-1.718,-1.718,-1.718,-1.718,-1.718,-1.7055,-1.6991,-1.6991,-1.6991,-1.6991,-1.6991,-1.7132,-1.718,-1.718,-1.6901,-1.678,-1.6766,-1.6473,-1.6256,-2.4335,-2.3625,-2.3062,-2.2763,-2.2463,-2.2224,-2.2194,0.0,0.0,0.0,0.0,-2.2455,-2.3335,0.0,0.0,0.0,0.0,0.0,0.0,0.0,0.0,0.0,0.0,0.0,0.0,0.0,0.0,0.0,0.0,-3.041,-3.061,-2.9499,-2.7841,-2.5625,-2.4671,-2.4224,-2.4224,-2.3991,-2.3611,-2.311,-2.311,-2.2908,-2.2487,-2.2363,-2.2457,-2.2708,-2.2567,0.0,-2.2721,-2.2721,-2.2301,-2.1633,-2.1633,-2.0827,-1.9642,-1.9411,-1.8915,-1.8308,-1.8068,-1.7905,-1.7907,-1.8549,-1.8407,-1.7992,-1.7992,-1.7894,-1.78,-1.78,-1.78,-1.78,-1.78,-1.767,-1.7537,-1.7537,-1.7272,-1.7039,-1.7039,-1.6789,-1.6541,-1.6541,-1.6274,-1.6039,-1.6039,-1.5913,-1.5799,-1.5799,-1.5799,-1.5799,-1.5799,-1.6081,-1.6287,-1.6287,-1.6287,-1.6287,-1.6287,-1.6287,-1.6287,-1.6287,-1.6287,-1.6287,-1.6287,-1.6287,-1.6287,-1.6287,-1.6287,-1.6287,-1.6287,-1.6122,-1.6039,-1.6025,-1.5624,-1.5433,-2.3655,-2.3062,-2.2658,-2.2523,-2.2493,-2.2313,-2.1635,-2.1485,0.0,0.0,-2.1695,-2.2084,-2.337,0.0,0.0,0.0,0.0,0.0,0.0,0.0,0.0,0.0,0.0,0.0,0.0,0.0,0.0,0.0,0.0,0.0,-2.936,-2.713,-2.5359,-2.4305,-2.3545,-2.3156,-2.3156,-2.2584,-2.2296,-2.2296,-2.2296,-2.2296,-2.2296,-2.2296,-2.2296,-2.2296,-2.2296,0.0,0.0,-2.2073,-2.1532,-2.0699,-2.0699,-1.987,-1.8657,-1.8657,-1.8255,-1.7687,-1.7592,-1.7479,-1.7356,-1.7272,-1.7502,-1.7789,-1.7704,-1.7692,-1.7681,-1.7612,-1.7589,-1.7589,-1.7589,-1.7396,-1.7138,-1.6914,-1.6676,-1.645,-1.6386,-1.6273,-1.6191,-1.6191,-1.5983,-1.5799,-1.5799,-1.5799,-1.577,-1.5668,-1.5653,-1.5624,-1.5536,-1.5522,-1.5522,-1.5522,-1.5682,-1.5799,-1.5799,-1.5799,-1.5799,-1.5799,-1.5712,-1.5653,-1.5653,-1.558,-1.5522,-1.5522,-1.5522,-1.5522,-1.5522,-1.5522,-1.5522,-1.5507,-1.5134,-1.4968,-2.3287,-2.2748,-2.2553,-2.1934,-2.1784,-2.162,-2.0942,0.0,0.0,-2.1575,-2.1695,-2.2084,-2.337,-2.3744,0.0,0.0,0.0,0.0,0.0,0.0,0.0,0.0,0.0,0.0,0.0,0.0,0.0,0.0,0.0,0.0,-2.6928,-2.4496,-2.3198,-2.3494,-2.2784,-2.2398,-2.2398,-2.233,-2.2296,-2.2296,-2.2296,-2.2296,-2.2296,-2.2296,-2.2296,-2.2296,-2.2296,0.0,0.0,-2.1292,-2.0446,-1.9096,-1.9096,-1.8623,-1.7901,-1.7901,-1.7674,-1.7292,-1.694,-1.6442,-1.5912,-1.5566,-1.6513,-1.7738,-1.7444,-1.7344,-1.7284,-1.698,-1.6892,-1.6892,-1.6892,-1.6866,-1.6617,-1.5703,-1.5461,-1.5345,-1.5061,-1.5449,-1.5842,-1.5842,-1.5827,-1.5799,-1.5799,-1.5799,-1.5653,-1.5225,-1.5165,-1.5028,-1.4674,-1.4627,-1.4627,-1.4627,-1.5329,-1.5799,-1.5799,-1.5799,-1.5799,-1.5799,-1.5404,-1.5165,-1.5165,-1.4814,-1.4627,-1.4627,-1.4627,-1.4627,-1.4627,-1.4627,-1.4627,-1.4627,-1.458,-1.4564,-2.3984,-2.3749,-2.3569,-2.299,-2.2562,-2.2239,-2.1949,0.0,-2.0882,-2.156,-2.1695,-2.2084,-2.337,-2.3939,-2.4545,0.0,0.0,0.0,0.0,0.0,0.0,0.0,0.0,0.0,0.0,0.0,0.0,0.0,0.0,0.0,-2.39,-2.2916,-2.2231,-2.1965,-2.1671,-2.1524,-2.1524,-2.1524,-2.1524,-2.1524,-2.1524,-2.1524,-2.1507,-2.1111,-2.0929,-2.0896,-2.0496,0.0,0.0,-1.9882,-1.9246,-1.8303,-1.8303,-1.7851,-1.7203,-1.7203,-1.7101,-1.6917,-1.6352,-1.5998,-1.571,-1.5135,-1.543,-1.5967,-1.5832,-1.5798,-1.5764,-1.5625,-1.5899,-1.6196,-1.6196,-1.6051,-1.564,-1.4631,-1.4402,-1.4378,-1.4376,-1.4585,-1.4819,-1.4988,-1.5028,-1.5028,-1.5028,-1.5028,-1.4937,-1.4768,-1.4737,-1.4674,-1.4517,-1.4501,-1.4501,-1.4501,-1.4814,-1.5028,-1.5028,-1.5028,-1.5028,-1.5028,-1.483,-1.4737,-1.4737,-1.4596,-1.4501,-1.4501,-1.4501,-1.4501,-1.4501,-1.4501,-1.4501,-1.4485,-1.4246,-1.4133,-2.4715,-2.4848,-2.4884,-2.4271,-2.3543,-2.2927,0.0,0.0,-2.1141,-2.1605,-2.1859,-2.2323,-2.34,-2.3999,-2.4365,0.0,0.0,-2.7365,0.0,0.0,0.0,0.0,0.0,0.0,0.0,0.0,0.0,0.0,0.0,0.0,0.0,-2.1391,-2.1271,-2.1007,-2.0991,-2.0991,-2.0991,-2.0991,-2.0991,-2.0991,-2.0799,-2.0703,-2.0671,-2.0012,-1.9705,-1.9673,0.0,0.0,0.0,-1.8672,-1.8242,-1.7543,-1.7348,-1.7094,-1.6754,-1.6347,-1.6397,-1.6514,-1.5515,-1.5189,-1.5078,-1.429,-1.3988,-1.3906,-1.3906,-1.4263,-1.4626,-1.4528,-1.4829,-1.5208,-1.5208,-1.481,-1.4225,-1.351,-1.3296,-1.3286,-1.3426,-1.3599,-1.3827,-1.4191,-1.4256,-1.431,-1.4474,-1.4501,-1.4454,-1.4342,-1.4326,-1.4262,-1.4133,-1.4117,-1.4068,-1.3911,-1.4022,-1.4214,-1.4485,-1.4501,-1.4501,-1.4501,-1.439,-1.4326,-1.4326,-1.4181,-1.4117,-1.4117,-1.4117,-1.4117,-1.4117,-1.4117,-1.4117,-1.41,-1.3818,-1.3619,-2.5258,-2.5805,-2.6293,-2.5571,-2.4487,-2.343,0.0,0.0,-2.168,-2.1695,-2.2239,-2.2882,-2.349,-2.361,-2.3834,-2.4485,-2.5173,0.0,0.0,0.0,0.0,0.0,0.0,0.0,0.0,0.0,0.0,0.0,0.0,0.0,0.0,-1.9726,-2.012,-2.0959,-2.0991,-2.0991,-2.0991,-2.0991,-2.0991,-2.0991,-2.0318,-2.0012,-1.998,-1.9315,-1.9006,0.0,0.0,0.0,0.0,-1.7923,-1.7482,-1.6754,-1.608,-1.6228,-1.6639,-1.5307,-1.5455,-1.606,-1.4311,-1.3766,-1.365,-1.2573,-1.2054,-1.1831,-1.1831,-1.2988,-1.4236,-1.3908,-1.381,-1.381,-1.381,-1.3077,-1.2332,-1.2318,-1.2112,-1.1923,-1.1925,-1.2397,-1.2983,-1.3582,-1.3707,-1.3872,-1.442,-1.4501,-1.4358,-1.3983,-1.3917,-1.3735,-1.3267,-1.3215,-1.303,-1.2579,-1.2943,-1.3564,-1.4438,-1.4501,-1.4501,-1.4501,-1.4133,-1.3917,-1.3917,-1.3459,-1.3215,-1.3215,-1.3215,-1.3215,-1.3215,-1.3215,-1.3215,-1.3215,-1.3215,-1.296,-2.5381,-2.5238,-2.5018,-2.4893,-2.3573,-2.2473,-2.3146,0.0,-2.1276,-2.2173,-2.2553,-2.3032,-2.4081,-2.4672,-2.5046,-2.5247,-2.6228,0.0,0.0,0.0,0.0,0.0,0.0,0.0,0.0,0.0,0.0,0.0,0.0,0.0,0.0,-1.9708,-1.9836,-2.0087,-2.012,-2.012,-2.012,-2.012,-2.012,-2.0104,-1.9431,-1.9109,-1.9063,-1.793,0.0,0.0,0.0,0.0,0.0,-1.6457,-1.6059,-1.5404,-1.5202,-1.4973,-1.4697,-1.428,-1.4328,-1.4452,-1.3436,-1.3099,-1.2996,-1.2199,-1.1699,-1.1457,-1.1457,-1.1996,-1.2618,-1.2738,-1.265,-1.25,-1.25,-1.2268,-1.1911,-1.1452,-1.1284,-1.1246,-1.1387,-1.1562,-1.1829,-1.218,-1.2563,-1.2873,-1.3039,-1.3372,-1.3564,-1.3442,-1.3143,-1.2901,-1.2738,-1.2443,-1.2192,-1.2029,-1.2156,-1.2484,-1.3084,-1.3433,-1.3467,-1.3152,-1.301,-1.2941,-1.2941,-1.2496,-1.2401,-1.2733,-1.2419,-1.2246,-1.2246,-1.2246,-1.2246,-1.2246,-1.2246,-1.2156,0.0,-2.5439,-2.5147,-2.4952,-2.3655,0.0,0.0,0.0,-2.168,-2.2523,-2.2882,-2.3355,-2.441,-2.4933,-2.5315,-2.557,-2.6497,0.0,0.0,0.0,0.0,0.0,0.0,0.0,0.0,0.0,0.0,0.0,0.0,0.0,0.0,-1.9512,-1.9406,-1.9406,-1.9584,-1.9708,-1.9708,-1.9708,-1.9573,-1.9301,-1.8642,-1.8192,-1.7908,-1.6846,0.0,0.0,0.0,0.0,0.0,-1.5529,-1.517,-1.4751,-1.4242,-1.3929,-1.3737,-1.3229,-1.3287,-1.3481,-1.2553,-1.2332,-1.2339,-1.1675,-1.1324,-1.115,-1.115,-1.1287,-1.1502,-1.1713,-1.1647,-1.1525,-1.1525,-1.1424,-1.124,-1.0809,-1.0606,-1.0566,-1.0677,-1.0716,-1.0817,-1.1192,-1.1523,-1.1852,-1.2103,-1.2414,-1.2641,-1.2679,-1.2425,-1.2228,-1.2228,-1.1975,-1.1719,-1.1516,-1.1682,-1.1847,-1.1927,-1.2389,-1.2544,-1.2246,-1.2228,-1.2228,-1.2228,-1.1957,-1.1938,-1.2228,-1.1957,-1.1792,-1.1792,-1.1792,-1.1792,-1.1792,-1.1792,-1.17,0.0,-2.6162,0.0,0.0,0.0,0.0,0.0,0.0,0.0,-2.2882,-2.3362,-2.3954,-2.4619,-2.4739,-2.4948,-2.5561,-2.618,0.0,0.0,0.0,0.0,0.0,0.0,0.0,0.0,0.0,0.0,0.0,0.0,0.0,0.0,-1.9114,-1.8836,-1.8836,-1.9332,-1.9588,-1.9579,-1.9579,-1.9235,-1.8627,-1.792,-1.7262,-1.6636,-1.5995,0.0,0.0,0.0,0.0,0.0,-1.4922,-1.4624,-1.4475,-1.3207,-1.3088,-1.3436,-1.2197,-1.2332,-1.2941,-1.1701,-1.1508,-1.1718,-1.1076,-1.0861,-1.0861,-1.0837,-1.0849,-1.0861,-1.0861,-1.0849,-1.0837,-1.0837,-1.0581,-1.0322,-1.0322,-1.0072,-0.9816,-0.9816,-0.9816,-0.9965,-1.0462,-1.0599,-1.0829,-1.1497,-1.1633,-1.1698,-1.1798,-1.1774,-1.1737,-1.1737,-1.1719,-1.1494,-1.0958,-1.1383,-1.1475,-1.0958,-1.1457,-1.1774,-1.1756,-1.1737,-1.1737,-1.1737,-1.1719,-1.1719,-1.1737,-1.1719,-1.17,-1.17,-1.17,-1.17,-1.17,-1.17,-1.1442,-2.6398,0.0,-2.4353,-2.4701,-2.3831,0.0,0.0,0.0,0.0,0.0,0.0,-2.533,-2.6004,-2.6123,-2.6183,-2.6333,-2.6438,0.0,0.0,0.0,0.0,0.0,0.0,0.0,0.0,0.0,0.0,0.0,0.0,0.0,0.0,-1.8361,-1.8302,-1.8302,-1.8419,-1.8423,-1.8332,-1.8317,-1.8188,-1.7906,-1.6946,-1.639,-1.62,-1.5237,0.0,0.0,0.0,0.0,-1.4154,-1.3543,-1.3003,-1.2549,-1.2225,-1.1888,-1.1539,-1.123,-1.1254,-1.1416,-1.1099,-1.1065,-1.1078,-1.0659,-1.052,-1.0471,-1.0211,-1.031,-1.052,-1.052,-1.0323,-1.0135,-1.0135,-0.9893,-0.9646,-0.9646,-0.9344,-0.9062,-0.9062,-0.9062,-0.9097,-0.9225,-0.9574,-1.0018,-1.0539,-1.0972,-1.1376,-1.1732,-1.1449,-1.1188,-1.1188,-1.0878,-1.0471,-0.9971,-1.0362,-1.0461,-0.9971,-1.1078,-1.1627,-1.1207,-1.1188,-1.1188,-1.1188,-1.084,-1.0821,-1.1188,-1.084,-1.0659,-1.0659,-1.0659,-1.0659,-1.0659,-1.0659,-1.0582,-2.6978,-2.6192,-2.5533,-2.5884,-2.545,-2.5129,0.0,0.0,0.0,0.0,0.0,0.0,-2.6467,-2.6515,0.0,0.0,-2.666,0.0,0.0,0.0,0.0,0.0,0.0,0.0,0.0,0.0,0.0,0.0,0.0,0.0,0.0,-1.7867,-1.7727,-1.7727,-1.7727,-1.7699,-1.763,-1.7616,-1.7306,-1.6673,-1.6098,-1.5655,-1.5356,-1.4751,-1.4501,0.0,0.0,0.0,-1.3637,-1.276,-1.2188,-1.187,-1.1553,-1.1211,-1.0897,-1.0897,-1.0801,-1.0679,-1.0679,-1.057,-1.041,-1.0223,-1.0173,-1.011,-0.9777,-0.9803,-0.997,-1.0135,-1.0046,-0.9867,-0.9712,-0.9528,-0.9356,-0.9168,-0.8953,-0.8803,-0.8803,-0.8803,-0.8803,-0.8803,-0.9029,-0.94,-0.9885,-1.0037,-1.0248,-1.0708,-1.0391,-1.0077,-1.0077,-0.9852,-0.9586,-0.9263,-0.9521,-0.9503,-0.8995,-0.9748,-1.0368,-1.0657,-1.0687,-1.0687,-1.0687,-1.0428,-1.0428,-1.0668,-1.0428,-1.0303,-1.0303,-1.0303,-1.0303,-1.0303,-1.004,-0.9942,-2.765,-2.7932,-2.8109,-2.7705,-2.7675,-2.772,0.0,0.0,0.0,0.0,0.0,0.0,0.0,0.0,0.0,0.0,0.0,0.0,0.0,0.0,0.0,0.0,0.0,0.0,0.0,0.0,0.0,0.0,0.0,0.0,0.0,-1.7435,-1.7167,-1.7167,-1.7109,-1.7023,-1.6939,-1.6982,-1.6448,-1.5344,-1.5294,-1.4966,-1.4406,-1.4326,-1.4256,0.0,0.0,0.0,-1.3158,-1.2046,-1.1592,-1.1537,-1.0968,-1.0753,-1.0753,-1.0753,-1.0545,-1.0235,-1.0185,-0.997,-0.9738,-0.9738,-0.9738,-0.9686,-0.9396,-0.9302,-0.9369,-0.9646,-0.9738,-0.9673,-0.9383,-0.9262,-0.9141,-0.8803,-0.8679,-0.8637,-0.8637,-0.8637,-0.8637,-0.8637,-0.8637,-0.8804,-0.9332,-0.9082,-0.8985,-0.9432,-0.9159,-0.8902,-0.8902,-0.8867,-0.8738,-0.8558,-0.8707,-0.8608,-0.807,-0.8201,-0.8774,-0.9849,-0.9945,-0.9992,-1.0059,-1.0059,-1.0059,-1.0059,-1.0059,-1.0059,-1.0059,-1.0059,-1.0059,-1.004,-0.9578,-0.9379,-2.855,-2.9645,-3.0387,-2.8154,-2.8034,-2.8293,0.0,0.0,0.0,0.0,0.0,0.0,0.0,0.0,0.0,0.0,0.0,0.0,0.0,0.0,0.0,0.0,0.0,0.0,0.0,0.0,0.0,0.0,0.0,0.0,0.0,-1.668,-1.6616,-1.6616,-1.6182,-1.5723,-1.528,-1.5616,-1.5403,-1.4655,-1.43,-1.4096,-1.3983,-1.3581,-1.3153,0.0,0.0,-1.1631,-1.112,-1.0468,-1.0212,-1.02,-1.0097,-1.0046,-1.0046,-1.0046,-0.9841,-0.9503,-0.9158,-0.901,-0.8967,-0.8967,-0.8967,-0.8967,-0.8912,-0.8885,-0.8899,-0.8953,-0.8967,-0.8953,-0.8899,-0.8676,-0.8449,-0.8393,-0.8109,-0.786,-0.786,-0.786,-0.786,-0.786,-0.786,-0.8029,-0.8505,-0.8529,-0.8616,-0.9023,-0.8751,-0.8497,-0.8497,-0.8193,-0.7826,-0.7399,-0.774,-0.7783,-0.7307,-0.7645,-0.7981,-0.8174,-0.8395,-0.8645,-0.893,-0.8938,-0.8938,-0.8938,-0.8938,-0.8938,-0.8938,-0.8938,-0.8938,-0.8938,-0.8857,-0.8817,-2.9099,-2.9977,-3.0687,-2.946,-3.0208,-3.1165,0.0,0.0,0.0,0.0,0.0,0.0,0.0,0.0,0.0,0.0,0.0,0.0,0.0,0.0,0.0,0.0,0.0,0.0,0.0,0.0,0.0,0.0,0.0,0.0,0.0,0.0,-1.5996,-1.5996,-1.5262,-1.4568,-1.3982,-1.3951,-1.39,-1.3802,-1.3615,-1.3514,-1.3514,-1.3301,-1.2914,-1.2363,0.0,-1.1072,-1.0628,-0.968,-0.9436,-0.9607,-0.9384,-0.9304,-0.9304,-0.9304,-0.921,-0.9048,-0.8858,-0.8803,-0.8803,-0.8803,-0.8803,-0.8761,-0.8592,-0.8523,-0.8481,-0.8269,-0.8484,-0.8761,-0.8578,-0.8421,-0.8248,-0.8019,-0.7841,-0.7695,-0.7695,-0.7695,-0.7695,-0.7695,-0.7695,-0.7846,-0.8316,-0.8009,-0.785,-0.8283,-0.7792,-0.7374,-0.7374,-0.7212,-0.6983,-0.6703,-0.6926,-0.6885,-0.6377,-0.662,-0.7136,-0.796,-0.8134,-0.8354,-0.8687,-0.8695,-0.8695,-0.8695,-0.8695,-0.8695,-0.8695,-0.8695,-0.8695,-0.8695,-0.8398,-0.8255,-2.9018,-2.9623,-3.0313,-3.0462,0.0,0.0,0.0,0.0,0.0,0.0,0.0,0.0,0.0,0.0,0.0,0.0,0.0,0.0,0.0,0.0,0.0,0.0,0.0,0.0,0.0,0.0,0.0,0.0,0.0,0.0,0.0,0.0,-1.5351,-1.5255,-1.4353,-1.3609,-1.3062,-1.2639,-1.2568,-1.2873,-1.2873,-1.2873,-1.2873,-1.2756,-1.2418,-1.1862,-1.1021,-1.0499,-1.018,-0.9209,-0.8981,-0.9235,-0.8912,-0.8803,-0.8789,-0.8706,-0.8679,-0.8665,-0.8578,-0.854,-0.854,-0.854,-0.854,-0.8495,-0.8237,-0.8162,-0.8091,-0.7783,-0.8109,-0.8484,-0.8223,-0.8162,-0.8076,-0.7768,-0.7695,-0.7666,-0.7583,-0.7554,-0.7539,-0.7436,-0.7421,-0.753,-0.7882,-0.7397,-0.7076,-0.7443,-0.6849,-0.6366,-0.6366,-0.6275,-0.6176,-0.6085,-0.6159,-0.608,-0.5736,-0.5793,-0.6424,-0.7742,-0.7877,-0.8043,-0.8292,-0.83,-0.83,-0.83,-0.83,-0.83,-0.83,-0.8177,-0.8116,-0.8095,-0.7544,-0.7294,-2.7835,-2.8681,-2.9789,-3.0357,0.0,0.0,0.0,0.0,0.0,0.0,0.0,0.0,0.0,0.0,0.0,0.0,0.0,0.0,0.0,0.0,0.0,0.0,0.0,0.0,0.0,0.0,0.0,0.0,0.0,0.0,0.0,0.0,0.0,-1.4223,-1.3586,-1.306,-1.2648,-1.2114,-1.1863,-1.1902,-1.1902,-1.1902,-1.1891,-1.145,-1.0962,-1.0414,-0.992,-0.9408,-0.893,-0.8841,-0.8816,-0.8844,-0.8816,-0.8803,-0.8761,-0.8449,-0.8336,-0.829,-0.7914,-0.7783,-0.7783,-0.7783,-0.7783,-0.7768,-0.7754,-0.7739,-0.7739,-0.771,-0.7739,-0.7768,-0.7754,-0.7739,-0.7739,-0.7695,-0.7695,-0.7598,-0.7231,-0.7148,-0.7029,-0.6654,-0.6594,-0.6602,-0.6627,-0.658,-0.6557,-0.6582,-0.6222,-0.5944,-0.5944,-0.5617,-0.5379,-0.5374,-0.5386,-0.5472,-0.5685,-0.5708,-0.5992,-0.6664,-0.6943,-0.7106,-0.7126,-0.7126,-0.7126,-0.7126,-0.7126,-0.7126,-0.7126,-0.6626,-0.6371,-0.6371,-0.576,-0.5497,-2.769,-2.8823,-3.0118,-2.9968,0.0,0.0,0.0,0.0,0.0,0.0,0.0,0.0,0.0,0.0,0.0,0.0,0.0,0.0,0.0,0.0,0.0,0.0,0.0,0.0,0.0,0.0,0.0,0.0,0.0,0.0,0.0,0.0,0.0,-1.3498,-1.2657,-1.1985,-1.1551,-1.1086,-1.0859,-1.0859,-1.1497,-1.1653,-1.1356,-1.1182,-1.0652,-0.984,-0.9464,-0.9102,-0.8761,-0.8298,-0.8266,-0.8463,-0.8223,-0.8109,-0.8095,-0.7976,-0.7928,-0.7904,-0.7754,-0.7695,-0.7695,-0.7695,-0.7695,-0.7652,-0.7403,-0.732,-0.7275,-0.7023,-0.6948,-0.7008,-0.727,-0.732,-0.727,-0.7008,-0.6948,-0.6918,-0.676,-0.673,-0.6676,-0.6533,-0.6503,-0.6503,-0.6503,-0.6435,-0.6315,-0.6153,-0.5934,-0.5716,-0.5543,-0.5404,-0.5293,-0.5293,-0.5293,-0.534,-0.5438,-0.5796,-0.5958,-0.5806,-0.6395,-0.6834,-0.6993,-0.6683,-0.6498,-0.6498,-0.6124,-0.5947,-0.5947,-0.5739,-0.5631,-0.5637,-0.5416,-0.5303,-2.762,-2.8697,-2.9839,0.0,0.0,0.0,0.0,0.0,0.0,0.0,0.0,0.0,0.0,0.0,0.0,0.0,0.0,0.0,0.0,0.0,0.0,0.0,0.0,0.0,0.0,0.0,0.0,0.0,0.0,0.0,0.0,0.0,0.0,0.0,-1.1834,-1.1164,-1.0713,-1.0449,-1.0303,-1.0322,-1.0845,-1.0949,-1.0625,-1.0491,-0.9994,-0.921,-0.883,-0.8588,-0.841,-0.7904,-0.787,-0.8091,-0.7812,-0.7695,-0.7695,-0.7695,-0.7622,-0.7515,-0.7515,-0.7427,-0.7324,-0.7324,-0.7324,-0.727,-0.6999,-0.6916,-0.6856,-0.657,-0.6503,-0.6525,-0.6684,-0.6811,-0.6841,-0.6564,-0.6503,-0.6473,-0.6336,-0.6305,-0.6275,-0.6145,-0.6191,-0.6222,-0.6145,-0.6119,-0.5965,-0.5557,-0.5421,-0.5283,-0.5106,-0.4976,-0.4896,-0.4896,-0.4896,-0.4927,-0.5014,-0.5396,-0.5517,-0.5247,-0.5803,-0.6222,-0.6452,-0.6109,-0.5916,-0.5916,-0.5502,-0.5303,-0.5303,-0.5108,-0.5022,-0.5022,-0.4831,-0.477,-2.7555,-2.8094,-2.8693,0.0,0.0,0.0,0.0,0.0,0.0,0.0,0.0,0.0,0.0,0.0,0.0,0.0,0.0,0.0,0.0,0.0,0.0,0.0,0.0,0.0,0.0,0.0,0.0,0.0,0.0,0.0,0.0,0.0,0.0,0.0,-1.1143,-1.0703,-1.0303,-1.0303,-1.0303,-1.0293,-0.9825,-0.9592,-0.9573,-0.9172,-0.877,-0.8365,-0.7905,-0.7695,-0.7695,-0.7695,-0.7695,-0.7695,-0.7695,-0.7695,-0.7695,-0.7695,-0.7442,-0.7094,-0.7094,-0.6826,-0.6503,-0.6503,-0.6503,-0.6503,-0.6503,-0.6503,-0.6495,-0.6488,-0.6488,-0.6397,-0.6006,-0.6191,-0.6488,-0.6488,-0.6488,-0.6381,-0.5975,-0.5898,-0.5781,-0.5372,-0.5511,-0.5601,-0.5347,-0.5518,-0.5443,-0.4701,-0.4602,-0.4602,-0.4602,-0.4248,-0.3993,-0.3993,-0.3993,-0.4118,-0.4372,-0.4392,-0.4601,-0.5059,-0.509,-0.5153,-0.5293,-0.5303,-0.5281,-0.5281,-0.5281,-0.5281,-0.5286,-0.4696,-0.4387,-0.4391,-0.3836,-0.3604,-2.7118,-2.8053,0.0,0.0,0.0,0.0,0.0,0.0,0.0,0.0,0.0,0.0,0.0,0.0,0.0,0.0,0.0,0.0,0.0,0.0,0.0,0.0,0.0,0.0,0.0,0.0,0.0,0.0,0.0,0.0,0.0,0.0,0.0,0.0,-1.0943,-1.0521,-0.9745,-0.9736,-0.9736,-0.9736,-0.8977,-0.8812,-0.9162,-0.875,-0.833,-0.7895,-0.7768,-0.7695,-0.7681,-0.7388,-0.7275,-0.7246,-0.6963,-0.6859,-0.6859,-0.6859,-0.6775,-0.6676,-0.6676,-0.6609,-0.6503,-0.6503,-0.6503,-0.6442,-0.6167,-0.6083,-0.6021,-0.5734,-0.5656,-0.5632,-0.5507,-0.557,-0.5656,-0.5656,-0.5656,-0.5632,-0.5507,-0.5475,-0.5451,-0.5325,-0.5367,-0.5281,-0.4876,-0.5069,-0.5036,-0.4285,-0.4337,-0.4385,-0.4204,-0.4075,-0.3993,-0.3993,-0.3993,-0.4063,-0.4239,-0.4435,-0.4471,-0.4326,-0.4509,-0.4826,-0.5281,-0.4891,-0.4674,-0.4674,-0.429,-0.41,-0.41,-0.3924,-0.3836,-0.3836,-0.3667,-0.3604,-2.8141,0.0,0.0,0.0,0.0,0.0,0.0,0.0,0.0,0.0,0.0,0.0,0.0,0.0,0.0,0.0,0.0,0.0,0.0,0.0,0.0,0.0,0.0,0.0,0.0,0.0,0.0,0.0,0.0,0.0,0.0,0.0,0.0,0.0,-1.014,-0.9763,-0.9179,-0.9179,-0.9121,-0.8982,-0.8278,-0.8068,-0.8229,-0.7989,-0.7642,-0.7225,-0.7225,-0.7225,-0.7211,-0.6955,-0.6856,-0.6841,-0.6585,-0.6503,-0.6503,-0.6503,-0.6397,-0.6259,-0.6259,-0.6152,-0.6021,-0.6021,-0.6021,-0.5975,-0.5734,-0.5656,-0.5609,-0.5372,-0.5293,-0.5293,-0.5293,-0.5293,-0.5293,-0.5293,-0.5293,-0.5293,-0.5293,-0.5293,-0.5246,-0.5055,-0.5129,-0.5036,-0.4458,-0.4616,-0.4568,-0.3839,-0.3861,-0.3848,-0.3529,-0.363,-0.3663,-0.3499,-0.3537,-0.3595,-0.3673,-0.3886,-0.3922,-0.3742,-0.3866,-0.4169,-0.4613,-0.4268,-0.4071,-0.4071,-0.3774,-0.3604,-0.3604,-0.3604,-0.3604,-0.3604,-0.3662,-0.3686,-2.9849,0.0,0.0,0.0,0.0,0.0,0.0,0.0,0.0,0.0,0.0,0.0,0.0,0.0,0.0,0.0,0.0,0.0,0.0,0.0,0.0,0.0,0.0,0.0,0.0,0.0,0.0,0.0,0.0,0.0,0.0,0.0,0.0,-0.9649,-0.9025,-0.8675,-0.8622,-0.8622,-0.847,0.0,-0.7693,-0.7308,-0.7016,-0.704,-0.6848,-0.6503,-0.6503,-0.6503,-0.6503,-0.6457,-0.6442,-0.6442,-0.6412,-0.6397,-0.6397,-0.6397,-0.6152,-0.5843,-0.5843,-0.5601,-0.5293,-0.5293,-0.5293,-0.5293,-0.5293,-0.5293,-0.5293,-0.5293,-0.5293,-0.5293,-0.5246,-0.523,-0.523,-0.5198,-0.5246,-0.5293,-0.5293,-0.5261,-0.5109,-0.4712,-0.4823,-0.478,-0.4087,-0.4153,-0.4061,-0.3352,-0.3245,-0.3114,-0.2746,-0.3019,-0.3097,-0.2746,-0.2818,-0.2895,-0.2909,-0.304,-0.3185,-0.3319,-0.3329,-0.3411,-0.3597,-0.3604,-0.3604,-0.3604,-0.3604,-0.3604,-0.3604,-0.3604,-0.3604,-0.3607,-0.375,-0.3792,0.0,-2.8284,0.0,0.0,0.0,0.0,0.0,0.0,0.0,0.0,0.0,0.0,0.0,0.0,0.0,0.0,0.0,0.0,0.0,0.0,0.0,0.0,0.0,0.0,0.0,0.0,0.0,0.0,0.0,0.0,0.0,0.0,0.0,-0.9082,-0.8834,-0.85,-0.8077,-0.8077,-0.8039,0.0,-0.6971,-0.6459,-0.6392,-0.6561,-0.6585,-0.6503,-0.6503,-0.6503,-0.6473,-0.6152,-0.6021,-0.6006,-0.5672,-0.5554,-0.5554,-0.5554,-0.5507,-0.5435,-0.5435,-0.5372,-0.5293,-0.5293,-0.5293,-0.5293,-0.5293,-0.5293,-0.5293,-0.5293,-0.5293,-0.5214,-0.4842,-0.4746,-0.4666,-0.4361,-0.4794,-0.5293,-0.5293,-0.5001,-0.4774,-0.4819,-0.4515,-0.4116,-0.3742,-0.3598,-0.3373,-0.2898,-0.2828,-0.2795,-0.2716,-0.2779,-0.2795,-0.2716,-0.2818,-0.2936,-0.3047,-0.3172,-0.3344,-0.352,-0.3531,-0.3544,-0.36,-0.3604,-0.3604,-0.3604,-0.3604,-0.3604,-0.3604,-0.3604,-0.3604,-0.3607,-0.375,-0.3792,0.0,0.0,0.0,0.0,0.0,0.0,0.0,0.0,0.0,0.0,0.0,0.0,0.0,0.0,0.0,0.0,0.0,0.0,0.0,0.0,0.0,0.0,0.0,0.0,0.0,0.0,0.0,0.0,0.0,0.0,0.0,-0.9684,-0.9036,-0.8428,-0.807,-0.7752,-0.7468,-0.7468,-0.7418,-0.7268,-0.6669,-0.6238,-0.5967,-0.5936,-0.5929,-0.5929,-0.5929,-0.5929,-0.5898,-0.5703,-0.5609,-0.5601,-0.5388,-0.5293,-0.5293,-0.5293,-0.5293,-0.5293,-0.5293,-0.5293,-0.5293,-0.5293,-0.5151,-0.4976,-0.4976,-0.4826,-0.4682,-0.4682,-0.4682,-0.4618,-0.4377,-0.4312,-0.4264,-0.4058,-0.4344,-0.4682,-0.4682,-0.4531,-0.4374,-0.4287,-0.4014,-0.3689,-0.3335,-0.3117,-0.294,-0.2729,-0.2696,-0.2696,-0.2696,-0.2696,-0.2727,-0.2781,-0.292,-0.305,-0.3179,-0.335,-0.3493,-0.3597,-0.3604,-0.3604,-0.3604,-0.3604,-0.3604,-0.3604,-0.3604,-0.3604,-0.3604,-0.3604,-0.3638,-0.3706,-0.3832,-0.3941,0.0,0.0,0.0,0.0,0.0,0.0,0.0,0.0,0.0,0.0,0.0,0.0,0.0,0.0,0.0,0.0,0.0,0.0,0.0,0.0,0.0,0.0,0.0,0.0,0.0,0.0,0.0,0.0,0.0,0.0,-0.9585,-0.9026,-0.84,-0.7708,-0.7242,-0.6958,-0.6852,-0.6958,-0.688,-0.666,-0.6586,-0.6233,-0.5688,-0.5427,-0.5293,-0.5293,-0.5293,-0.5293,-0.5293,-0.5293,-0.5293,-0.5293,-0.5293,-0.5293,-0.5293,-0.5293,-0.5293,-0.5293,-0.5293,-0.5246,-0.5182,-0.5182,-0.4874,-0.4505,-0.4505,-0.4264,-0.3993,-0.3993,-0.3993,-0.3977,-0.3907,-0.3875,-0.3868,-0.3825,-0.3801,-0.3851,-0.4,-0.4078,-0.4029,-0.3697,-0.3571,-0.3375,-0.2933,-0.2788,-0.2727,-0.2699,-0.272,-0.2737,-0.2737,-0.2761,-0.2805,-0.2934,-0.3057,-0.3172,-0.3296,-0.349,-0.3604,-0.3604,-0.3604,-0.3604,-0.3604,-0.3604,-0.3604,-0.3604,-0.349,-0.3442,-0.3442,-0.3331,-0.3355,-0.3463,-0.3602,-0.3716,0.0,0.0,0.0,0.0,0.0,0.0,0.0,0.0,0.0,0.0,0.0,0.0,0.0,0.0,0.0,0.0,0.0,0.0,0.0,0.0,0.0,0.0,0.0,0.0,0.0,0.0,0.0,0.0,0.0,0.0,-0.8595,-0.8231,-0.7638,-0.6808,-0.6913,-0.6768,-0.6307,-0.6774,-0.698,-0.6933,-0.6472,-0.6057,-0.5688,-0.5427,-0.5293,-0.5293,-0.5293,-0.5293,-0.5293,-0.5293,-0.5293,-0.5293,-0.5293,-0.5293,-0.5293,-0.5293,-0.5293,-0.5293,-0.5293,-0.5039,-0.4698,-0.4698,-0.4409,-0.407,-0.407,-0.4042,-0.3993,-0.3993,-0.3993,-0.3907,-0.349,-0.3392,-0.3336,-0.3105,-0.3057,-0.3263,-0.4005,-0.4012,-0.3836,-0.3784,-0.3437,-0.3068,-0.2771,-0.2805,-0.2832,-0.2716,-0.2795,-0.2879,-0.2879,-0.2966,-0.305,-0.3071,-0.3189,-0.3286,-0.3306,-0.349,-0.3604,-0.3604,-0.3604,-0.3604,-0.3604,-0.3604,-0.3604,-0.3604,-0.3078,-0.2829,-0.2807,-0.2297,-0.2052,-0.2065,-0.2198,-0.2283,0.0,0.0,0.0,0.0,0.0,0.0,0.0,0.0,0.0,0.0,0.0,0.0,0.0,0.0,0.0,0.0,0.0,0.0,0.0,0.0,0.0,0.0,0.0,0.0,0.0,0.0,0.0,0.0,0.0,-0.8561,-0.804,-0.7647,-0.7092,-0.6283,-0.6135,-0.6103,-0.6206,-0.6103,-0.6006,-0.5938,-0.551,-0.5184,-0.4958,-0.4686,-0.4842,-0.5293,-0.5293,-0.5293,-0.5293,-0.5293,-0.5151,-0.4906,-0.4906,-0.4762,-0.457,-0.457,-0.457,-0.457,-0.457,-0.4441,-0.4264,-0.4264,-0.3967,-0.3609,-0.3609,-0.345,-0.3274,-0.3274,-0.3274,-0.322,-0.3019,-0.3024,-0.3045,-0.2925,-0.3017,-0.3232,-0.3652,-0.3636,-0.353,-0.3574,-0.337,-0.3162,-0.2964,-0.2966,-0.2986,-0.2937,-0.2966,-0.301,-0.301,-0.3064,-0.3135,-0.3199,-0.3266,-0.3343,-0.3451,-0.3541,-0.3604,-0.3604,-0.3604,-0.3604,-0.3604,-0.3284,-0.3091,-0.3095,-0.323,-0.3112,-0.27,-0.2503,-0.2242,-0.1925,-0.1983,-0.2035,0.0,0.0,0.0,0.0,0.0,0.0,0.0,0.0,0.0,0.0,0.0,0.0,0.0,0.0,0.0,0.0,0.0,0.0,0.0,0.0,0.0,0.0,0.0,0.0,0.0,0.0,0.0,0.0,0.0,-0.8153,-0.7321,-0.6986,-0.6453,-0.5619,-0.5413,-0.5437,-0.5744,-0.5459,-0.5234,-0.5105,-0.4756,-0.4524,-0.44,-0.4128,-0.4361,-0.4976,-0.4976,-0.4976,-0.4976,-0.4976,-0.4762,-0.4441,-0.4441,-0.4264,-0.3993,-0.3993,-0.3993,-0.3993,-0.3993,-0.3923,-0.3826,-0.3826,-0.3511,-0.3147,-0.3147,-0.294,-0.2706,-0.2744,-0.2757,-0.2764,-0.2798,-0.2876,-0.2971,-0.3012,-0.3168,-0.3319,-0.3423,-0.3378,-0.3306,-0.3372,-0.333,-0.3259,-0.3128,-0.3131,-0.3168,-0.3108,-0.3135,-0.3158,-0.3158,-0.3192,-0.3259,-0.3374,-0.3387,-0.3431,-0.359,-0.3464,-0.3376,-0.3376,-0.3229,-0.3134,-0.3134,-0.2703,-0.2472,-0.2475,-0.3035,-0.2989,-0.2237,-0.2179,-0.192,-0.1488,-0.1488,-0.1543,0.0,0.0,0.0,0.0,0.0,0.0,0.0,0.0,0.0,0.0,0.0,0.0,0.0,0.0,0.0,0.0,0.0,0.0,0.0,0.0,0.0,0.0,0.0,0.0,0.0,0.0,0.0,0.0,0.0,-0.7272,-0.6158,-0.6063,-0.5566,-0.4517,-0.5009,-0.5043,-0.45,-0.5022,-0.5234,-0.5105,-0.4756,-0.4524,-0.44,-0.4128,-0.4026,-0.4075,-0.4075,-0.4075,-0.4075,-0.4075,-0.4058,-0.4026,-0.4026,-0.4026,-0.3993,-0.3993,-0.3993,-0.3993,-0.3993,-0.3707,-0.3339,-0.3339,-0.3068,-0.2729,-0.2729,-0.2712,-0.2727,-0.2856,-0.2896,-0.2909,-0.3044,-0.3084,-0.3147,-0.3334,-0.3341,-0.3346,-0.3559,-0.3431,-0.3306,-0.3306,-0.3306,-0.3259,-0.3128,-0.3262,-0.3331,-0.3121,-0.3202,-0.3296,-0.3296,-0.3466,-0.358,-0.359,-0.359,-0.3593,-0.3604,-0.3078,-0.2741,-0.2741,-0.2198,-0.1893,-0.1893,-0.1863,-0.185,-0.1855,-0.1999,-0.1741,-0.098,-0.0428,-0.0128,-0.0106,-0.0106,-0.0108,0.0,0.0,0.0,0.0,0.0,0.0,0.0,0.0,0.0,0.0,0.0,0.0,0.0,0.0,0.0,0.0,0.0,0.0,0.0,0.0,0.0,0.0,0.0,0.0,0.0,0.0,0.0,0.0,0.0,0.0,-0.5594,-0.5458,-0.4998,-0.4054,-0.4133,-0.4096,-0.388,-0.4439,-0.447,-0.3938,-0.3834,-0.3656,-0.3436,-0.3341,-0.325,-0.3163,-0.3261,-0.3568,-0.3993,-0.3993,-0.3826,-0.3556,-0.3556,-0.3397,-0.3171,-0.3171,-0.3171,-0.3171,-0.3171,-0.3056,-0.2907,-0.2907,-0.2808,-0.2696,-0.2696,-0.2696,-0.271,-0.2764,-0.2832,-0.2902,-0.2953,-0.3108,-0.3286,-0.3484,-0.3518,-0.3514,-0.359,-0.3534,-0.3497,-0.3497,-0.3497,-0.348,-0.3425,-0.3484,-0.3501,-0.3425,-0.3463,-0.3497,-0.3497,-0.3548,-0.3604,-0.3604,-0.3262,-0.3012,-0.3012,-0.2475,-0.2117,-0.2117,-0.1925,-0.1803,-0.1803,-0.143,-0.1223,-0.1226,-0.0898,-0.0767,-0.0889,-0.0773,-0.0462,0.0,0.0,0.0,0.0,0.0,0.0,0.0,0.0,0.0,0.0,0.0,0.0,0.0,0.0,0.0,0.0,0.0,0.0,0.0,0.0,0.0,0.0,0.0,0.0,0.0,0.0,0.0,0.0,0.0,0.0,0.0,0.0,0.0,-0.498,-0.4801,-0.4429,-0.375,-0.3651,-0.3604,-0.3604,-0.3943,-0.3856,-0.333,-0.3306,-0.3179,-0.2963,-0.2963,-0.2924,-0.2832,-0.2886,-0.3149,-0.3569,-0.3608,-0.3424,-0.3101,-0.3101,-0.2957,-0.2774,-0.2774,-0.2788,-0.2822,-0.2791,-0.2774,-0.2774,-0.2774,-0.274,-0.2706,-0.2761,-0.2774,-0.2785,-0.2815,-0.294,-0.305,-0.312,-0.3259,-0.3385,-0.3306,-0.3306,-0.3239,-0.3037,-0.3151,-0.3306,-0.3306,-0.3306,-0.3239,-0.3037,-0.317,-0.3239,-0.3015,-0.2993,-0.2993,-0.2993,-0.2993,-0.2993,-0.2993,-0.2632,-0.2397,-0.2386,-0.1846,-0.149,-0.1489,-0.1305,-0.1185,-0.1185,-0.082,-0.0609,-0.0596,-0.0217,-0.019,-0.0596,-0.0692,-0.0476,0.0,0.0,0.0,0.0,0.0,0.0,0.0,0.0,0.0,0.0,0.0,0.0,0.0,0.0,0.0,0.0,0.0,0.0,0.0,0.0,0.0,0.0,0.0,0.0,0.0,0.0,0.0,0.0,0.0,0.0,0.0,0.0,-0.5089,-0.4253,-0.4072,-0.3883,-0.3617,-0.3604,-0.3604,-0.3604,-0.3604,-0.3529,-0.3399,-0.3337,-0.3236,-0.3108,-0.3108,-0.3104,-0.3094,-0.2963,-0.2835,-0.2723,-0.2846,-0.2818,-0.2703,-0.2703,-0.2781,-0.2899,-0.2899,-0.2983,-0.3081,-0.2939,-0.2892,-0.2892,-0.2903,-0.2801,-0.2727,-0.2862,-0.2892,-0.2922,-0.306,-0.3192,-0.3322,-0.3497,-0.3556,-0.3398,-0.2807,-0.2672,-0.2517,-0.1919,-0.2251,-0.2652,-0.2672,-0.2672,-0.2495,-0.1895,-0.2275,-0.2477,-0.1876,-0.1791,-0.1792,-0.1792,-0.1792,-0.1792,-0.1792,-0.1792,-0.1776,-0.1776,-0.1214,-0.0873,-0.088,-0.0313,0.0,0.0,0.0,0.0,0.0,0.0,0.0,0.0,0.0,0.0,0.0,0.0,0.0,-2.0186,0.0,0.0,0.0,0.0,0.0,-1.5195,-1.5031,0.0,0.0,0.0,0.0,0.0,0.0,0.0,0.0,0.0,0.0,0.0,0.0,0.0,0.0,0.0,0.0,0.0,0.0,0.0,0.0,-0.4787,-0.4613,-0.423,-0.3974,-0.3819,-0.3757,-0.3655,-0.3604,-0.3604,-0.3604,-0.358,-0.3539,-0.3517,-0.3414,-0.3246,-0.3246,-0.3185,-0.3104,-0.3218,-0.316,-0.2985,-0.2815,-0.2784,-0.2846,-0.2846,-0.2934,-0.3044,-0.3044,-0.3067,-0.3081,-0.2939,-0.2892,-0.2893,-0.2778,-0.2733,-0.2727,-0.2862,-0.2892,-0.2922,-0.306,-0.2909,-0.2665,-0.2363,-0.2299,-0.2253,-0.2095,-0.2051,-0.2006,-0.183,-0.1585,-0.1518,-0.1962,-0.2051,-0.1984,-0.183,-0.1944,-0.1982,-0.1821,-0.1794,-0.1802,-0.1802,-0.1802,-0.1802,-0.1802,-0.1414,-0.1152,-0.1139,-0.0596,-0.025,-0.0252,-0.0104,0.0,0.0,0.0,0.0,0.0,0.0,0.0,0.0,0.0,0.0,0.0,0.0,0.0,0.0,0.0,0.0,0.0,0.0,0.0,-1.4736,-1.4565,-1.4211,0.0,0.0,0.0,0.0,0.0,0.0,0.0,0.0,0.0,0.0,0.0,0.0,0.0,0.0,0.0,0.0,0.0,0.0,-0.4491,-0.4491,-0.4399,-0.4204,-0.4055,-0.3924,-0.3795,-0.3733,-0.3662,-0.3604,-0.3604,-0.3604,-0.3604,-0.3604,-0.3531,-0.3425,-0.3425,-0.3377,-0.3314,-0.3341,-0.33,-0.3159,-0.2961,-0.2917,-0.298,-0.298,-0.3086,-0.3215,-0.3195,-0.3236,-0.3293,-0.3125,-0.3074,-0.3019,-0.2707,-0.2552,-0.2478,-0.2381,-0.2361,-0.2371,-0.2456,-0.2349,-0.2143,-0.1862,-0.1808,-0.1741,-0.1474,-0.1429,-0.1362,-0.1096,-0.0784,-0.0694,-0.1318,-0.1429,-0.134,-0.1096,-0.1249,-0.1331,-0.1094,-0.1056,-0.1056,-0.1056,-0.1057,-0.1058,-0.1058,-0.0731,-0.0533,-0.0515,-0.0207,0.0,0.0,0.0,0.0,0.0,0.0,0.0,0.0,0.0,0.0,0.0,0.0,0.0,0.0,0.0,0.0,0.0,0.0,0.0,0.0,0.0,0.0,-1.4528,-1.4199,-1.3832,0.0,0.0,0.0,0.0,0.0,0.0,0.0,0.0,0.0,0.0,0.0,0.0,0.0,0.0,0.0,0.0,-0.459,-0.4491,-0.4491,-0.4491,-0.4433,-0.425,-0.4204,-0.4099,-0.3849,-0.3826,-0.3748,-0.3628,-0.3624,-0.3617,-0.3604,-0.3604,-0.3604,-0.3604,-0.3604,-0.3604,-0.3593,-0.3414,-0.3333,-0.3323,-0.3209,-0.3141,-0.3125,-0.3125,-0.3262,-0.3416,-0.3354,-0.3395,-0.3466,-0.3275,-0.3161,-0.3033,-0.2519,-0.2244,-0.2028,-0.1698,-0.1595,-0.1596,-0.1541,-0.1606,-0.1697,-0.1607,-0.1607,-0.1474,-0.0918,-0.0806,-0.065,-0.0112,0.0,-0.0158,-0.0699,-0.0808,-0.0627,-0.009,-0.0442,-0.0624,-0.0072,0.0,0.0,0.0,0.0,0.0,0.0,0.0,0.0,0.0,0.0,0.0,0.0,0.0,0.0,0.0,0.0,0.0,0.0,0.0,0.0,0.0,0.0,0.0,0.0,0.0,0.0,0.0,0.0,0.0,0.0,0.0,0.0,-1.4454,-1.3993,-1.3487,0.0,0.0,0.0,0.0,0.0,0.0,0.0,0.0,0.0,0.0,0.0,0.0,0.0,0.0,0.0,0.0,-0.4651,-0.4491,-0.4491,-0.4491,-0.4477,-0.445,-0.4284,-0.4167,-0.4136,-0.4014,-0.39,-0.3751,-0.3751,-0.3716,-0.3604,-0.3604,-0.3604,-0.3604,-0.3604,-0.3604,-0.36,-0.3548,-0.3534,-0.3531,-0.3503,-0.3415,-0.3262,-0.3327,-0.3423,-0.3559,-0.3534,-0.3259,-0.286,-0.27,-0.2347,-0.1897,-0.1627,-0.1517,-0.1499,-0.1574,-0.1595,-0.1523,-0.1138,-0.1045,-0.0962,-0.0471,-0.0359,-0.0314,-0.0202,-0.018,-0.0135,-0.0022,0.0,-0.0024,-0.0142,-0.0184,-0.0135,-0.0022,-0.0096,-0.0125,-0.0025,0.0,0.0,0.0,0.0,0.0,0.0,0.0,0.0,0.0,0.0,0.0,0.0,0.0,0.0,0.0,0.0,0.0,0.0,0.0,0.0,0.0,0.0,0.0,0.0,0.0,0.0,0.0,0.0,0.0,-1.6117,0.0,0.0,0.0,-1.4077,-1.3521,-1.3013,0.0,0.0,0.0,0.0,0.0,0.0,0.0,0.0,0.0,0.0,0.0,0.0,0.0,0.0,0.0,-0.4627,-0.4491,-0.4491,-0.4491,-0.4491,-0.4491,-0.4395,-0.4294,-0.4197,-0.4123,-0.4035,-0.3907,-0.3829,-0.3754,-0.3706,-0.3634,-0.3604,-0.3604,-0.3604,-0.3604,-0.3604,-0.3604,-0.3604,-0.3604,-0.3604,-0.3353,-0.3025,-0.3377,-0.3355,-0.3148,-0.3148,-0.2765,-0.2244,-0.2177,-0.1947,-0.164,-0.1225,-0.1112,-0.1053,-0.0863,-0.0804,-0.0763,-0.0513,-0.0448,-0.0381,-0.0067,0.0,0.0,0.0,0.0,0.0,0.0,0.0,0.0,0.0,0.0,0.0,0.0,0.0,0.0,0.0,0.0,0.0,0.0,0.0,0.0,0.0,0.0,0.0,0.0,0.0,0.0,0.0,0.0,0.0,0.0,0.0,0.0,0.0,0.0,0.0,0.0,0.0,0.0,0.0,0.0,0.0,0.0,0.0,0.0,0.0,0.0,-1.5432,0.0,0.0,0.0,-1.3017,0.0,0.0,0.0,0.0,0.0,0.0,0.0,0.0,0.0,0.0,0.0,0.0,0.0,0.0,0.0,-0.4624,-0.4522,-0.4491,-0.4518,-0.4522,-0.4491,-0.4491,-0.4436,-0.4267,-0.4264,-0.419,-0.4041,-0.3914,-0.3822,-0.3788,-0.3668,-0.3604,-0.3604,-0.3604,-0.3534,-0.3442,-0.3556,-0.3467,-0.3265,-0.3376,-0.3081,-0.2586,-0.3195,-0.3059,-0.2517,-0.2517,-0.214,-0.163,-0.163,-0.1541,-0.1362,-0.0895,-0.0716,-0.0627,-0.0157,0.0,0.0,0.0,0.0,0.0,0.0,0.0,0.0,0.0,0.0,0.0,0.0,0.0,0.0,0.0,0.0,0.0,0.0,0.0,0.0,0.0,0.0,0.0,0.0,0.0,0.0,0.0,0.0,0.0,0.0,0.0,0.0,0.0,0.0,0.0,0.0,0.0,0.0,0.0,0.0,0.0,0.0,0.0,0.0,0.0,0.0,0.0,0.0,0.0,0.0,0.0,-1.6051,0.0,0.0,0.0,-1.3637,-1.3017,0.0,0.0,0.0,0.0,0.0,0.0,0.0,0.0,0.0,0.0,0.0,0.0,0.0,0.0,0.0,0.0,-0.4638,-0.4501,-0.4617,-0.4634,-0.4498,-0.4491,-0.4484,-0.4467,-0.4464,-0.4368,-0.417,-0.4045,-0.3924,-0.3788,-0.3668,-0.3604,-0.3604,-0.3604,-0.3306,-0.2829,-0.3376,-0.2993,-0.2053,-0.2586,-0.2453,-0.1962,-0.2563,-0.243,-0.1897,-0.1897,-0.1518,-0.1006,-0.1006,-0.065,-0.0202,-0.0135,-0.0112,-0.009,-0.0022,0.0,0.0,0.0,0.0,0.0,0.0,0.0,0.0,0.0,0.0,0.0,0.0,0.0,0.0,0.0,0.0,0.0,0.0,0.0,0.0,0.0,0.0,0.0,0.0,0.0,0.0,0.0,0.0,0.0,0.0,0.0,0.0,0.0,0.0,0.0,0.0,0.0,0.0,0.0,0.0,0.0,0.0,0.0,0.0,0.0,0.0,0.0,0.0,0.0,0.0,0.0,0.0,0.0,-1.4926,0.0,-1.4061,0.0,0.0,0.0,0.0,0.0,0.0,0.0,-0.8202,0.0,0.0,0.0,0.0,0.0,0.0,0.0,0.0,0.0,0.0,0.0,-0.4111,-0.4072,-0.447,-0.4491,-0.4491,-0.4491,-0.4491,-0.446,-0.4372,-0.42,-0.4051,-0.3921,-0.3775,-0.3494,-0.3078,-0.3078,-0.2743,-0.2184,-0.2455,-0.2275,-0.183,-0.2073,-0.183,-0.1297,-0.1563,-0.1496,-0.1274,-0.1274,-0.0895,-0.0381,-0.0381,-0.0202,0.0,0.0,0.0,0.0,0.0,0.0,0.0,0.0,0.0,0.0,0.0,0.0,0.0,0.0,0.0,0.0,0.0,0.0,0.0,0.0,0.0,0.0,0.0,0.0,0.0,0.0,0.0,0.0,0.0,0.0,0.0,0.0,0.0,0.0,0.0,0.0,0.0,0.0,0.0,0.0,0.0,0.0,0.0,0.0,0.0,0.0,0.0,0.0,0.0,0.0,0.0,0.0,-1.9179,0.0,0.0,0.0,0.0,0.0,0.0,0.0,0.0,0.0,0.0,0.0,0.0,0.0,0.0,0.0,0.0,0.0,0.0,0.0,0.0,0.0,0.0,0.0,0.0,0.0,0.0,-0.451,-0.3816,-0.37,-0.447,-0.4491,-0.4491,-0.4491,-0.4491,-0.4491,-0.4491,-0.4104,-0.3936,-0.3994,-0.3501,-0.306,-0.2694,-0.2539,-0.2117,-0.1563,-0.1719,-0.1607,-0.1318,-0.1496,-0.1207,-0.065,-0.065,-0.065,-0.065,-0.065,-0.0381,0.0,0.0,0.0,0.0,0.0,0.0,0.0,0.0,0.0,0.0,0.0,0.0,0.0,0.0,0.0,0.0,0.0,0.0,0.0,0.0,0.0,0.0,0.0,0.0,0.0,0.0,0.0,0.0,0.0,0.0,0.0,0.0,0.0,0.0,0.0,0.0,0.0,0.0,0.0,0.0,0.0,0.0,0.0,0.0,0.0,0.0,0.0,0.0,0.0,0.0,0.0,0.0,0.0,0.0,0.0,0.0,0.0,0.0,-1.6638,0.0,0.0,0.0,0.0,-1.4514,0.0,0.0,0.0,0.0,0.0,0.0,0.0,0.0,0.0,0.0,0.0,0.0,0.0,0.0,0.0,0.0,0.0,0.0,-0.4646,-0.4007,-0.3851,-0.4477,-0.4491,-0.4491,-0.4491,-0.4491,-0.4491,-0.4491,-0.3589,-0.3416,-0.3994,-0.2536,-0.2158,-0.2672,-0.2095,-0.1496,-0.0962,-0.1541,-0.114,-0.0112,-0.0694,-0.0583,-0.0022,-0.0022,-0.0022,-0.0022,-0.0022,-0.0022,0.0,0.0,0.0,0.0,0.0,0.0,0.0,0.0,0.0,0.0,0.0,0.0,0.0,0.0,0.0,0.0,0.0,0.0,0.0,0.0,0.0,0.0,0.0,0.0,0.0,0.0,0.0,0.0,0.0,0.0,0.0,0.0,0.0,0.0,0.0,0.0,0.0,0.0,0.0,0.0,0.0,0.0,0.0,0.0,0.0,0.0,0.0,0.0,0.0,0.0,0.0,0.0,0.0,0.0,0.0,0.0,0.0,-1.736,-1.7137,0.0,0.0,0.0,0.0,0.0,0.0,0.0,0.0,0.0,0.0,0.0,0.0,0.0,0.0,0.0,0.0,0.0,0.0,0.0,0.0,0.0,0.0,0.0,-0.3969,-0.3166,-0.2776,-0.2961,-0.3428,-0.3483,-0.2982,-0.3456,-0.3483,-0.2982,-0.2673,-0.2562,-0.2659,-0.2162,-0.1783,-0.1499,-0.1296,-0.0886,-0.0327,-0.0522,-0.0381,-0.0022,-0.0225,-0.018,0.0,0.0,0.0,0.0,0.0,0.0,0.0,0.0,0.0,0.0,0.0,0.0,0.0,0.0,0.0,0.0,0.0,0.0,0.0,0.0,0.0,0.0,0.0,0.0,0.0,0.0,0.0,0.0,0.0,0.0,0.0,0.0,0.0,0.0,0.0,0.0,0.0,0.0,0.0,0.0,0.0,0.0,0.0,0.0,0.0,0.0,0.0,0.0,0.0,0.0,0.0,0.0,0.0,0.0,0.0,0.0,0.0,0.0,0.0,0.0,0.0,-1.9417,-1.8403,0.0,-1.7124,-1.6632,0.0,-1.5952,0.0,0.0,0.0,0.0,0.0,0.0,0.0,0.0,0.0,0.0,0.0,0.0,-0.6628,0.0,0.0,0.0,0.0,0.0,0.0,-0.3383,-0.3589,-0.2488,-0.193,0.0,0.0,-0.2704,-0.2204,-0.2649,-0.2676,-0.2202,-0.1952,-0.1867,-0.1992,-0.1515,-0.1148,-0.0882,-0.0688,-0.0365,0.0,0.0,0.0,0.0,0.0,0.0,0.0,0.0,0.0,0.0,0.0,0.0,0.0,0.0,0.0,0.0,0.0,0.0,0.0,0.0,0.0,0.0,0.0,0.0,0.0,0.0,0.0,0.0,0.0,0.0,0.0,0.0,0.0,0.0,0.0,0.0,0.0,0.0,0.0,0.0,0.0,0.0,0.0,0.0,0.0,0.0,0.0,0.0,0.0,0.0,0.0,0.0,0.0,0.0,0.0,0.0,0.0,0.0,0.0,0.0,0.0,0.0,0.0,0.0,0.0,0.0,0.0]},{"header":{"parameterUnit":"m.s-1","parameterCategory":1,"la1":30.6,"la2":29.2853,"lo1":-89.7004,"lo2":-87.6739,"dy":0.0162,"dx":0.0183,"nx":112,"ny":82,"refTime":"2023-11-04T18:00:00:Z","depth":0,"parameterNumber":3,"parameterNumberName":"V-component_of_WINDS"},"data":[0.0,0.0,0.0,0.0,0.0,0.0,0.0,0.0,0.0,0.0,0.0,0.0,0.0,0.0,0.0,0.0,0.0,0.0,0.0,0.0,0.0,0.0,0.0,0.0,0.0,0.0,0.0,0.0,0.0,0.0,0.0,0.0,0.0,0.0,0.0,0.0,0.0,0.0,0.0,0.0,0.0,0.0,0.0,0.0,0.0,0.0,0.0,0.0,0.0,0.0,0.0,0.0,0.0,0.0,0.0,0.0,0.0,0.0,0.0,0.0,0.0,0.0,0.0,0.0,0.0,0.0,0.0,0.0,0.0,0.0,0.0,0.0,0.0,0.0,0.0,0.0,0.0,0.0,0.0,0.0,0.0,0.0,0.0,0.0,0.0,0.0,0.0,0.0,0.0,0.0,0.0,-0.4443,-0.6641,-0.7988,-0.7988,-0.9383,-0.9948,-0.9338,0.0,0.0,0.0,0.0,0.0,0.0,0.0,0.0,0.0,0.0,0.0,0.0,0.0,0.0,0.0,0.0,0.0,0.0,0.0,0.0,0.0,0.0,0.0,0.0,0.0,0.0,0.0,0.0,0.0,0.0,0.0,0.0,0.0,0.0,0.0,0.0,0.0,0.0,0.0,0.0,0.0,0.0,0.0,0.0,0.0,0.0,0.0,0.0,0.0,0.0,0.0,0.0,0.0,0.0,0.0,0.0,0.0,0.0,0.0,0.0,0.0,0.0,0.0,0.0,0.0,0.0,0.0,0.0,0.0,0.0,0.0,0.0,0.0,0.0,0.0,0.0,0.0,0.0,0.0,0.0,0.0,0.0,0.0,0.0,0.0,0.0,0.0,0.0,0.0,0.0,0.0,0.0,0.0,0.0,0.0,0.0,0.0,0.0,0.0,0.0,0.0,0.0,0.0,0.0,-0.5291,-0.7023,-0.7697,-0.7988,-0.7988,-1.0035,-1.0706,-0.937,0.0,0.0,0.0,0.0,0.0,0.0,0.0,0.0,0.0,0.0,0.0,0.0,0.0,0.0,0.0,0.0,0.0,0.0,0.0,0.0,0.0,0.0,0.0,0.0,0.0,0.0,0.0,0.0,0.0,0.0,0.0,0.0,0.0,0.0,0.0,0.0,0.0,0.0,0.0,0.0,0.0,0.0,0.0,0.0,0.0,0.0,0.0,0.0,0.0,0.0,0.0,0.0,0.0,0.0,0.0,0.0,0.0,0.0,0.0,0.0,0.0,0.0,0.0,0.0,0.0,0.0,0.0,0.0,0.0,0.0,0.0,0.0,0.0,0.0,0.0,0.0,0.0,0.0,0.0,0.0,0.0,0.0,0.0,0.0,0.0,0.0,0.0,0.0,0.0,0.0,0.0,0.0,0.0,0.0,0.0,0.0,0.0,0.0,0.0,0.0,0.0,0.0,0.0,-0.5139,-0.5901,-0.7634,-0.7875,-0.7916,-0.7916,-1.0188,-1.0945,-0.9406,-1.1169,0.0,0.0,0.0,0.0,0.0,0.0,0.0,0.0,0.0,0.0,0.0,0.0,0.0,0.0,0.0,0.0,0.0,0.0,0.0,0.0,0.0,0.0,0.0,0.0,0.0,0.0,0.0,0.0,0.0,0.0,0.0,0.0,0.0,0.0,0.0,0.0,0.0,0.0,0.0,0.0,0.0,0.0,0.0,0.0,0.0,0.0,0.0,0.0,0.0,0.0,0.0,0.0,0.0,0.0,0.0,0.0,0.0,0.0,0.0,0.0,0.0,0.0,0.0,0.0,0.0,0.0,0.0,0.0,0.0,0.0,0.0,0.0,0.0,0.0,0.0,0.0,0.0,0.0,0.0,0.0,0.0,0.0,0.0,0.0,0.0,0.0,0.0,0.0,0.0,0.0,0.0,0.0,0.0,0.0,0.0,0.0,0.0,0.0,0.0,0.0,0.0,0.0,-0.5841,-0.6403,-0.7661,-0.7811,-0.7797,-0.7763,-0.999,-1.0766,-0.9325,-1.1528,0.0,0.0,0.0,0.0,0.0,0.0,0.0,0.0,0.0,0.0,0.0,0.0,0.0,0.0,0.0,0.0,0.0,0.0,0.0,0.0,0.0,0.0,0.0,0.0,0.0,0.0,0.0,0.0,0.0,0.0,0.0,0.0,0.0,0.0,0.0,0.0,0.0,0.0,0.0,0.0,0.0,0.0,0.0,0.0,0.0,0.0,0.0,0.0,0.0,0.0,0.0,0.0,0.0,0.0,0.0,0.0,0.0,0.0,0.0,0.0,0.0,0.0,0.0,0.0,0.0,0.0,0.0,0.0,0.0,0.0,0.0,0.0,0.0,0.0,0.0,0.0,0.0,0.0,0.0,0.0,0.0,0.0,0.0,0.0,0.0,0.0,0.0,0.0,0.0,0.0,0.0,0.0,0.0,0.0,0.0,0.0,0.0,0.0,0.0,0.0,0.0,0.0,-0.7083,-0.7523,-0.7794,-0.7811,-0.7756,-0.7628,-0.9369,-1.0092,-0.9162,-1.0902,0.0,0.0,0.0,0.0,0.0,0.0,0.0,0.0,0.0,0.0,0.0,0.0,0.0,0.0,0.0,0.0,0.0,0.0,0.0,0.0,0.0,0.0,0.0,0.0,0.0,0.0,0.0,0.0,0.0,0.0,0.0,0.0,0.0,0.0,0.0,0.0,0.0,0.0,0.0,0.0,0.0,0.0,0.0,0.0,0.0,0.0,0.0,0.0,0.0,0.0,0.0,0.0,0.0,0.0,0.0,0.0,0.0,0.0,0.0,0.0,0.0,0.0,0.0,0.0,0.0,0.0,0.0,0.0,0.0,0.0,0.0,0.0,0.0,0.0,0.0,0.0,0.0,0.0,0.0,0.0,0.0,0.0,0.0,0.0,0.0,0.0,0.0,0.0,0.0,0.0,0.0,0.0,0.0,0.0,0.0,0.0,0.0,0.0,0.0,0.0,0.0,0.0,-0.6922,-0.7272,0.0,-0.7624,-0.7617,-0.7468,-0.8829,-0.9538,-0.9109,0.0,0.0,0.0,0.0,0.0,0.0,0.0,0.0,0.0,0.0,0.0,0.0,0.0,0.0,0.0,0.0,0.0,0.0,0.0,0.0,0.0,0.0,0.0,0.0,0.0,0.0,0.0,0.0,0.0,0.0,0.0,0.0,0.0,0.0,0.0,0.0,0.0,0.0,0.0,0.0,0.0,0.0,0.0,0.0,0.0,0.0,0.0,0.0,0.0,0.0,0.0,0.0,0.0,0.0,0.0,0.0,0.0,0.0,0.0,0.0,0.0,0.0,0.0,0.0,0.0,0.0,0.0,0.0,0.0,0.0,0.0,0.0,0.0,0.0,0.0,0.0,0.0,0.0,0.0,0.0,0.0,0.0,0.0,0.0,0.0,0.0,0.0,0.0,0.0,0.0,0.0,0.0,0.0,0.0,0.0,0.0,0.0,0.0,0.0,0.0,0.0,0.0,-0.6429,-0.6776,-0.7092,0.0,-0.7465,-0.7465,-0.7312,-0.8216,-0.8901,-0.9047,0.0,0.0,0.0,0.0,0.0,0.0,0.0,0.0,0.0,0.0,0.0,0.0,0.0,0.0,0.0,0.0,0.0,0.0,0.0,0.0,0.0,0.0,0.0,0.0,0.0,0.0,0.0,0.0,0.0,0.0,0.0,0.0,0.0,0.0,0.0,0.0,0.0,0.0,0.0,0.0,0.0,0.0,0.0,0.0,0.0,0.0,0.0,0.0,0.0,0.0,0.0,0.0,0.0,0.0,0.0,0.0,0.0,0.0,0.0,0.0,0.0,0.0,0.0,0.0,0.0,0.0,0.0,0.0,0.0,0.0,0.0,0.0,0.0,0.0,0.0,0.0,0.0,0.0,0.0,0.0,0.0,0.0,0.0,0.0,0.0,0.0,0.0,0.0,0.0,0.0,0.0,0.0,0.0,0.0,0.0,0.0,0.0,0.0,0.0,0.0,0.0,0.0,-0.6453,-0.6861,-0.7197,-0.7398,-0.7415,-0.7309,-0.7105,-0.7514,-0.8095,0.0,0.0,0.0,0.0,0.0,0.0,0.0,0.0,0.0,0.0,0.0,0.0,0.0,0.0,0.0,0.0,0.0,0.0,0.0,0.0,0.0,0.0,0.0,0.0,0.0,0.0,0.0,0.0,0.0,0.0,0.0,0.0,0.0,0.0,0.0,0.0,0.0,0.0,0.0,0.0,0.0,0.0,0.0,0.0,0.0,0.0,0.0,0.0,0.0,0.0,0.0,0.0,0.0,0.0,0.0,0.0,0.0,0.0,0.0,0.0,0.0,0.0,0.0,0.0,0.0,0.0,0.0,0.0,0.0,0.0,0.0,0.0,0.0,0.0,0.0,0.0,0.0,0.0,0.0,0.0,0.0,0.0,0.0,0.0,0.0,0.0,0.0,0.0,0.0,0.0,0.0,0.0,0.0,0.0,0.0,0.0,0.0,0.0,0.0,0.0,0.0,0.0,0.0,-0.6306,-0.6715,-0.7004,-0.7193,-0.7305,-0.7268,-0.697,-0.708,-0.7355,-0.7755,0.0,0.0,0.0,0.0,0.0,0.0,0.0,0.0,0.0,0.0,0.0,0.0,0.0,0.0,0.0,0.0,0.0,0.0,0.0,0.0,0.0,0.0,0.0,0.0,0.0,0.0,0.0,0.0,0.0,0.0,0.0,0.0,0.0,0.0,0.0,0.0,0.0,0.0,0.0,0.0,0.0,0.0,0.0,0.0,0.0,0.0,0.0,0.0,0.0,0.0,0.0,0.0,0.0,0.0,0.0,0.0,0.0,0.0,0.0,0.0,0.0,0.0,0.0,0.0,0.0,0.0,0.0,0.0,0.0,0.0,0.0,0.0,0.0,0.0,0.0,0.0,0.0,0.0,0.0,0.0,0.0,0.0,0.0,0.0,0.0,0.0,0.0,0.0,0.0,0.0,0.0,0.0,0.0,0.0,0.0,0.0,0.0,0.0,0.0,0.0,0.0,0.0,-0.6203,-0.6223,-0.6416,-0.6954,-0.719,-0.716,-0.6861,-0.6837,-0.6967,-0.7269,0.0,0.0,0.0,0.0,0.0,0.0,0.0,0.0,0.0,0.0,0.0,0.0,0.0,0.0,0.0,0.0,0.0,0.0,0.0,0.0,0.0,0.0,0.0,0.0,0.0,0.0,0.0,0.0,0.0,0.0,0.0,0.0,0.0,0.0,0.0,0.0,0.0,0.0,0.0,0.0,0.0,0.0,0.0,0.0,0.0,0.0,0.0,0.0,0.0,0.0,0.0,0.0,0.0,0.0,0.0,0.0,0.0,0.0,0.0,0.0,0.0,0.0,0.0,0.0,0.0,0.0,0.0,0.0,0.0,0.0,0.0,0.0,0.0,0.0,0.0,0.0,0.0,0.0,0.0,0.0,0.0,0.0,0.0,0.0,0.0,0.0,0.0,0.0,0.0,0.0,0.0,0.0,0.0,0.0,0.0,0.0,0.0,0.0,0.0,0.0,0.0,0.0,-0.595,-0.5517,-0.551,-0.6629,-0.6934,-0.6943,-0.6705,-0.6678,-0.6802,-0.7126,0.0,0.0,0.0,0.0,0.0,0.0,0.0,0.0,0.0,0.0,0.0,0.0,0.0,0.0,0.0,0.0,0.0,0.0,0.0,0.0,0.0,0.0,0.0,0.0,0.0,0.0,0.0,0.0,0.0,0.0,0.0,0.0,0.0,0.0,0.0,0.0,0.0,0.0,0.0,0.0,0.0,0.0,0.0,0.0,0.0,0.0,0.0,0.0,0.0,0.0,0.0,0.0,0.0,0.0,0.0,0.0,0.0,0.0,0.0,0.0,0.0,0.0,0.0,0.0,0.0,0.0,0.0,0.0,0.0,0.0,0.0,0.0,0.0,0.0,0.0,0.0,0.0,0.0,0.0,0.0,0.0,0.0,0.0,0.0,0.0,0.0,0.0,0.0,0.0,0.0,0.0,0.0,0.0,0.0,0.0,0.0,0.0,0.0,0.0,0.0,0.0,0.0,-0.4822,-0.4909,-0.5099,-0.5463,-0.6263,-0.6719,-0.6536,-0.6562,-0.6407,-0.6128,-0.6742,0.0,0.0,0.0,0.0,0.0,0.0,0.0,0.0,0.0,0.0,0.0,0.0,0.0,0.0,0.0,0.0,0.0,0.0,0.0,0.0,0.0,0.0,0.0,0.0,0.0,0.0,0.0,0.0,0.0,0.0,0.0,0.0,0.0,0.0,0.0,0.0,0.0,0.0,0.0,0.0,0.0,0.0,0.0,0.0,0.0,0.0,0.0,0.0,0.0,0.0,0.0,0.0,0.0,0.0,0.0,0.0,0.0,0.0,0.0,0.0,0.0,0.0,0.0,0.0,0.0,0.0,0.0,0.0,0.0,0.0,0.0,0.0,0.0,0.0,0.0,0.0,0.0,0.0,0.0,0.0,0.0,0.0,0.0,0.0,0.0,0.0,0.0,0.0,0.0,0.0,0.0,0.0,0.0,0.0,0.0,0.0,0.0,0.0,0.0,0.0,0.0,-0.3705,-0.3577,-0.3618,-0.4235,-0.523,-0.5794,-0.5659,-0.609,-0.6245,-0.5827,-0.6226,0.0,0.0,0.0,0.0,0.0,0.0,0.0,0.0,0.0,0.0,0.0,0.0,0.0,0.0,0.0,0.0,0.0,0.0,0.0,0.0,0.0,0.0,0.0,0.0,0.0,0.0,0.0,0.0,0.0,0.0,0.0,0.0,0.0,0.0,0.0,0.0,0.0,0.0,0.0,0.0,0.0,0.0,0.0,0.0,0.0,0.0,0.0,0.0,0.0,0.0,0.0,0.0,0.0,0.0164,0.0,0.0,0.0,0.0,0.0,0.0,0.0,0.0,0.0,0.0,0.0,0.0,0.0,0.0,0.0,0.0,0.0,0.0,0.0,0.0,0.0,0.0,0.0,0.0,0.0,0.0,0.0,0.0,0.0,0.0,0.0,0.0,0.0,0.0,0.0,0.0,0.0,0.0,0.0,0.0,0.0,0.0,0.0,0.0,0.0,0.0,0.0,-0.2629,-0.2206,-0.2108,-0.2982,-0.3974,-0.4535,-0.4443,-0.5251,-0.5682,-0.5529,-0.5509,-0.5341,0.0,0.0,0.0,0.0,0.0,0.0,0.0,0.0,0.0,0.0,0.0,0.0,0.0,0.0,0.0,0.0,0.0,0.0,0.0,0.0,0.0,0.0,0.0,0.0,0.0,0.0,0.0,0.0,0.0,0.0,0.0,0.0,0.7065,0.7084,0.0,0.0,0.0,0.0,0.0,0.0,0.0,0.0,0.0,0.0,0.0,0.0,0.0,0.4254,0.4706,0.3,0.221,0.233,0.0772,0.0,0.0,0.0,0.0,0.0,0.0,0.0,0.0,0.0,0.0,0.0,0.0,0.0,0.0,0.0,0.0,0.0,0.0,0.0,0.0,0.0,0.0,0.0,0.0,0.0,0.0,0.0,0.0,0.0,0.0,0.0,0.0,0.0,0.0,0.0,0.0,0.0,0.0,0.0,0.0,0.0,0.0,0.0,0.0,0.0,0.0,0.0,-0.1517,-0.1594,-0.1698,-0.1808,-0.2729,-0.3314,-0.3302,-0.3449,-0.3768,-0.4356,-0.4418,-0.4314,-0.4166,-0.416,0.0,0.0,0.0,0.0,0.0,0.0,0.0,0.0,0.0,0.0,0.0,0.0,0.0,0.0,0.0,0.0,0.0,0.0,0.0,0.0,0.0,0.0,0.0,0.0,0.0,0.0,0.0,0.0,0.0,0.7073,0.7689,0.7607,0.7553,0.7177,0.0,0.0,0.0,0.0,0.0,0.0,0.0,0.0,0.0,0.6036,0.5444,0.5481,0.6242,0.4748,0.3934,0.3937,0.2237,0.1395,0.1389,0.0418,0.0,0.0,0.0,0.0,0.0,0.0,0.0,0.0,0.0,0.0,0.0,0.0,0.0,0.0,0.0,0.0,0.0,0.0,0.0,0.0,0.0,0.0,0.0,0.0,0.0,0.0,0.0,0.0,0.0,0.0,0.0,0.0,0.0,0.0,0.0,0.0,0.0,0.0,0.0,0.0,0.0,0.0,0.0,0.0,-0.056,-0.0645,-0.0691,-0.0691,-0.1542,-0.2145,-0.2249,-0.2724,-0.3109,-0.3457,-0.3455,-0.3412,-0.3282,-0.328,-0.328,0.0,0.0,0.0,0.0,0.0,0.0,0.0,0.0,0.0,0.0,0.0,0.0,0.0,0.0,0.0,0.0,0.0,0.0,0.0,0.0,0.0,0.0,0.0,0.0,0.0,0.0,0.0,0.0,0.7719,0.8031,0.7848,0.8021,0.7906,0.0,0.0,0.0,0.0,0.0,0.0,0.5877,0.6035,0.6634,0.7774,0.6965,0.6948,0.7816,0.6382,0.5645,0.5527,0.3873,0.3017,0.2977,0.1308,0.0586,0.0523,0.0174,0.0,0.0,0.0,0.0,0.0,0.0,0.0,0.0,0.0,0.0,0.0,0.0,0.0,0.0,0.0,0.0,0.0,0.0,0.0,0.0,0.0,0.0,0.0,0.0,0.0,0.0,0.0,0.0176,0.0349,0.0343,0.0534,0.0556,0.0,0.0,0.0,0.0,0.0,0.0,0.0,0.0,0.0,0.0,0.0,0.0,0.0,-0.059,-0.1039,-0.1175,-0.1785,-0.2247,-0.2487,-0.2486,-0.2428,-0.2345,-0.2344,-0.2344,-0.2344,0.0,0.0,0.0,0.0,0.0,0.0,0.0,0.0,0.0,0.0,0.0,0.0,0.0,0.0,0.0,0.0,0.0,0.0,0.0,0.0,0.0,0.0,0.0,0.0,0.0,0.0,0.0,0.0,0.0,0.8472,0.8876,0.0,0.0,0.0,0.0,0.7915,0.8176,0.8531,0.897,0.9007,0.9211,0.964,0.9606,0.9683,0.9826,0.815,0.7299,0.7238,0.5441,0.4529,0.4347,0.2819,0.2079,0.2017,0.0618,0.0,0.0,0.0,0.0,0.0,0.0,0.0,0.0,0.0,0.0,0.0,0.0,0.0,0.0,0.0,0.0,0.0,0.0,0.0,0.0,0.0,0.0,0.0,0.0,0.0,0.0,0.0,0.0623,0.1224,0.1222,0.1926,0.2038,0.0,0.0,0.0,0.0,0.0,0.0,0.0,0.0,0.0,0.0,0.0,0.0,0.0,-0.0032,-0.0066,-0.0068,-0.0135,-0.0506,-0.1344,-0.1376,-0.1375,-0.1374,-0.1374,-0.1374,-0.1374,-0.137,0.0,0.0,0.0,0.0,0.0,0.0,0.0,0.0,0.0,0.0,0.0,0.0,0.0,0.0,0.0,0.0,0.0,0.0,0.0,0.0,0.0,0.0,0.0,0.0,0.0,0.0,0.0,0.0,0.8801,0.9174,0.0,0.8537,0.8523,0.857,0.8561,0.8893,0.9174,0.9432,0.9629,0.9802,0.9903,1.0063,1.0093,0.9987,0.937,0.9004,0.8771,0.7087,0.6152,0.5994,0.4292,0.3503,0.346,0.2826,0.2578,0.2499,0.1617,0.0802,0.0,0.0,0.0,0.0,0.0,0.0,0.0,0.0,0.0,0.0,0.0,0.0,0.0,0.0,0.0,0.0,0.0,0.051,0.1049,0.1049,0.1446,0.1867,0.1852,0.2026,0.2183,0.2073,0.2318,0.2349,0.1559,0.1099,0.0648,0.0103,0.0,0.0,0.0,0.0,0.0,0.0,0.0,0.0,0.0,0.0,0.0,0.0,0.0,-0.0131,-0.0458,-0.0466,-0.0463,-0.0478,-0.0453,-0.0454,-0.0477,-0.0463,-0.0465,0.0,0.0,0.0,0.0,0.0,0.0,0.0,0.0,0.0,0.0,0.0,0.0,0.0,0.0,0.0,0.0,0.0,0.0,0.0,0.0,0.0,0.0,0.0,0.0,0.0,0.0,0.9173,0.9022,0.95,0.9598,0.8994,0.9072,0.9164,0.9107,0.9391,0.9595,0.9751,0.9883,0.9987,0.9987,1.0097,1.0053,0.9839,0.9849,0.97,0.9456,0.8356,0.7701,0.7474,0.5772,0.4974,0.4864,0.4278,0.398,0.3906,0.3023,0.2176,0.1283,0.036,0.0,0.0,0.0,0.0,0.0,0.0,0.0,0.005,0.0481,0.0611,0.0691,0.1038,0.1143,0.1115,0.1064,0.1545,0.2045,0.2028,0.2414,0.2811,0.2762,0.2919,0.3017,0.2902,0.3092,0.3176,0.2765,0.2089,0.1434,0.085,0.074,0.0663,0.0402,0.0586,0.0645,0.0395,0.0364,0.0364,0.0364,0.0152,0.0,0.0,0.0,0.0,0.0,0.0,0.0,0.0,0.0,0.0,0.0,0.0243,0.0516,0.0844,0.0,0.0,0.0,0.0,0.0,0.0,0.0,0.0,0.0,0.0,0.0,0.0,0.0,0.0,0.0,0.0,0.0,0.0,0.0,0.0,0.0,0.0,0.0,0.8524,0.8854,0.9334,0.9291,0.9947,1.0105,0.9459,0.9791,0.9862,0.9639,0.9744,0.9886,0.997,0.998,0.9977,0.9974,0.989,0.9747,0.9605,0.9449,0.9296,0.9204,0.9197,0.8988,0.8649,0.7229,0.6505,0.6292,0.4795,0.4135,0.4116,0.4066,0.4066,0.378,0.1153,0.0104,0.0101,0.0103,0.0103,0.0101,0.0099,0.0098,0.0293,0.1482,0.1827,0.2018,0.3054,0.3336,0.3248,0.3133,0.3023,0.2953,0.2958,0.2859,0.2747,0.261,0.3237,0.3807,0.3673,0.4292,0.4634,0.3798,0.2909,0.2266,0.2208,0.2208,0.1963,0.1228,0.1746,0.0,0.1236,0.1143,0.1143,0.1143,0.0499,0.006,0.0064,0.0064,0.0064,0.0064,0.0064,0.0064,0.0062,0.0062,0.0062,0.0064,0.078,0.1573,0.2492,0.0,0.0,0.0,0.0,0.0,0.0,0.0,0.0,0.0,0.0,0.0,0.0,0.0,0.0,0.0,0.0,0.0,0.0,0.0,0.0,0.0,0.0,1.1987,1.1653,1.2196,1.2365,1.1611,1.1689,1.1275,0.9941,0.9876,0.9849,0.9768,0.9798,0.9839,0.988,0.9883,0.9836,0.9734,0.969,0.9595,0.9445,0.935,0.914,0.8994,0.8886,0.873,0.854,0.8014,0.7769,0.7741,0.7128,0.6909,0.6828,0.5877,0.5475,0.5279,0.3556,0.2891,0.2917,0.2881,0.2854,0.2759,0.2745,0.2617,0.2521,0.2873,0.2841,0.2795,0.3077,0.3178,0.3131,0.2982,0.3492,0.4009,0.3877,0.4245,0.466,0.4622,0.4602,0.4559,0.4423,0.4572,0.4663,0.4321,0.4039,0.3522,0.2394,0.2197,0.2121,0.1928,0.2064,0.0,0.1925,0.1895,0.1895,0.1895,0.1726,0.1583,0.159,0.1596,0.1596,0.1596,0.1599,0.1581,0.1582,0.1586,0.1594,0.16,0.1799,0.201,0.0,0.0,0.0,0.0,0.0,0.0,0.0,0.0,0.0,0.0,0.0,0.0,0.0,0.0,0.0,0.0,0.0,0.0,0.0,0.0,0.0,0.0,1.3269,1.4286,1.4833,1.4254,1.3585,1.3273,1.322,1.2891,1.2114,1.1302,1.0856,1.0785,1.0179,0.9795,0.9737,0.9734,0.9666,0.9517,0.9452,0.9347,0.9198,0.9045,0.8893,0.8747,0.8659,0.8537,0.8391,0.8361,0.8235,0.0,0.8029,0.7988,0.7939,0.7182,0.6802,0.0,0.0,0.0,0.0,0.0,0.3828,0.371,0.3602,0.3502,0.3433,0.3898,0.3935,0.3928,0.4385,0.4465,0.4404,0.4262,0.4543,0.4864,0.4725,0.4961,0.519,0.5126,0.4948,0.4782,0.4655,0.4624,0.4597,0.4508,0.4491,0.0,0.3318,0.3156,0.305,0.271,0.2954,0.3037,0.2732,0.2704,0.2704,0.2704,0.2397,0.2204,0.2191,0.2198,0.0,0.0,0.0,0.2209,0.2209,0.2188,0.0,0.0,0.0,0.284,0.3251,0.0,0.0,0.0,0.2994,0.2891,0.0,0.0,0.0,0.0,0.0,0.0,0.0,0.0,0.0,0.0,0.0,0.0,0.0,0.0,0.0,0.0,1.5506,1.6847,1.7408,1.5427,1.4024,1.455,1.4572,1.4589,1.4666,1.3364,1.2513,1.2401,1.0902,0.9954,0.9822,0.0,0.0,0.0,0.0,0.9052,0.8834,0.8737,0.8591,0.8459,0.8442,0.8367,0.8245,0.8245,0.817,0.7988,0.7988,0.7978,0.7965,0.7965,0.7874,0.7556,0.5302,0.439,0.438,0.4251,0.4122,0.3984,0.3792,0.0,0.0,0.476,0.5012,0.5178,0.6115,0.6347,0.6211,0.6003,0.5667,0.5388,0.5354,0.5104,0.486,0.4721,0.4677,0.4655,0.4518,0.4491,0.4491,0.4491,0.4491,0.4491,0.4491,0.4491,0.4267,0.3539,0.4042,0.4267,0.3597,0.3511,0.3511,0.3511,0.0,0.0,0.247,0.2447,0.2447,0.2447,0.2447,0.2472,0.2456,0.2523,0.2871,0.3536,0.3638,0.4073,0.4923,0.4941,0.5019,0.5076,0.362,0.3348,0.0,0.0,0.0,0.0,0.0,0.0,0.0,0.0,0.0,0.0,0.0,0.0,0.0,0.0,0.0,1.5035,1.5836,1.648,1.6827,1.6406,1.599,1.5778,1.5773,1.5273,1.4051,1.3654,1.3466,1.3423,1.2045,1.1173,1.1141,1.0055,0.0,0.9032,0.8994,0.8849,0.8574,0.8428,0.834,0.8361,0.0,0.0,0.8032,0.8032,0.8019,0.7988,0.7988,0.7921,0.7855,0.7855,0.777,0.7594,0.7095,0.6911,0.6896,0.6758,0.6575,0.6391,0.6237,0.5975,0.5738,0.5965,0.5829,0.567,0.5865,0.5911,0.0,0.56,0.5463,0.5341,0.5067,0.487,0.4728,0.4697,0.4624,0.4528,0.4498,0.4491,0.4491,0.4491,0.4491,0.4491,0.4491,0.4491,0.446,0.4294,0.4405,0.446,0.4294,0.4294,0.4294,0.4294,0.4153,0.4052,0.4051,0.4054,0.4054,0.4054,0.4054,0.407,0.4042,0.4581,0.4939,0.5074,0.5658,0.6041,0.6243,0.6403,0.6501,0.6491,0.5116,0.4566,0.0,0.0,0.0,0.0,0.0,0.0,0.0,0.0,0.0,0.0,0.0,1.374,0.0,0.0,1.5202,1.5738,1.6086,1.6373,1.6667,1.6707,1.6668,1.6631,1.6777,1.6581,1.5937,1.5272,1.4839,1.4721,1.325,1.2324,1.2073,1.1355,1.0574,0.967,0.9666,0.9231,0.8429,0.8357,0.8231,0.8153,0.8025,0.7948,0.7877,0.7877,0.7885,0.7821,0.7821,0.7777,0.7692,0.7539,0.7388,0.7356,0.7207,0.7241,0.7353,0.7204,0.7054,0.6888,0.6671,0.6447,0.6276,0.6119,0.5925,0.58,0.58,0.5698,0.5583,0.5436,0.5231,0.5023,0.4843,0.4691,0.4604,0.4604,0.4545,0.4491,0.4491,0.4759,0.5003,0.5003,0.5304,0.5555,0.5555,0.5555,0.5308,0.4598,0.4491,0.4491,0.4491,0.4491,0.4491,0.4491,0.4787,0.5003,0.5003,0.5332,0.5555,0.5555,0.5555,0.5555,0.5555,0.5873,0.6064,0.6064,0.6421,0.6588,0.6588,0.6694,0.6749,0.6721,0.6072,0.5848,0.0,0.0,0.0,0.0,0.0,0.0,0.0,0.0,1.3468,1.4538,1.4559,1.4617,1.5401,1.5312,1.541,1.6072,1.6186,1.6266,1.65,1.6533,1.6627,1.6918,1.7201,1.7508,1.7709,1.6828,1.6144,1.5935,1.444,1.3352,1.3,1.2718,1.1992,1.0802,1.0746,1.0049,0.8628,0.8628,0.8564,0.8382,0.8301,0.8363,0.8523,0.8442,0.8266,0.7922,0.766,0.7539,0.7489,0.7169,0.7038,0.6984,0.6729,0.6759,0.6913,0.6841,0.6722,0.6573,0.6313,0.619,0.6126,0.584,0.5739,0.5708,0.5681,0.5504,0.5337,0.5279,0.5092,0.4912,0.488,0.4889,0.4897,0.4897,0.4897,0.4897,0.4897,0.5332,0.5706,0.5706,0.6139,0.6533,0.6578,0.6548,0.6157,0.5058,0.4897,0.4897,0.4897,0.4897,0.4897,0.4897,0.5382,0.5706,0.5706,0.6258,0.6588,0.6588,0.6588,0.6588,0.6588,0.675,0.6804,0.6804,0.6966,0.702,0.702,0.702,0.702,0.702,0.702,0.7029,1.3753,1.3494,1.3984,1.5776,1.4837,1.4448,0.0,0.0,1.6802,1.8498,1.7994,1.7268,1.7372,1.6469,1.5718,1.5865,1.5879,1.5892,1.5878,1.5878,1.5891,1.5972,1.6466,1.682,1.6847,1.6729,1.6627,1.6594,1.5191,1.4339,1.4282,1.3105,1.2281,1.2013,1.2003,1.1306,0.9838,0.9834,0.9826,0.9752,0.9494,0.9971,1.1071,1.0836,1.0144,0.906,0.7908,0.7319,0.7136,0.6974,0.6871,0.6719,0.6463,0.6368,0.6399,0.6381,0.6364,0.6303,0.5959,0.5769,0.5657,0.5627,0.5556,0.5419,0.5247,0.515,0.5069,0.484,0.5217,0.5649,0.5452,0.5891,0.6372,0.6372,0.6372,0.6372,0.6372,0.6426,0.6475,0.6475,0.6344,0.6317,0.6553,0.6391,0.6269,0.6365,0.6372,0.6372,0.6372,0.6372,0.6372,0.6372,0.6426,0.6475,0.6475,0.6561,0.6588,0.6588,0.6588,0.6588,0.6588,0.7235,0.7584,0.7584,0.8209,0.8566,0.8566,0.8566,0.8566,0.8566,0.8566,0.786,1.4892,1.4732,1.5131,0.0,1.65,1.6648,1.8559,1.8412,1.8177,1.9249,1.9085,1.8726,1.8726,1.8311,1.794,0.0,1.794,1.794,1.794,1.7174,1.6604,1.6604,1.6203,1.6079,1.642,1.6607,1.664,1.6466,1.5896,1.5468,1.5254,1.4698,1.3938,1.2945,1.2892,1.2156,1.066,1.0655,1.0655,1.0655,1.0524,1.0649,1.108,1.0985,1.0543,0.977,0.9056,0.8611,0.8383,0.8237,0.805,0.7778,0.7587,0.7417,0.7197,0.6324,0.5993,0.5962,0.5752,0.5583,0.5477,0.5352,0.5223,0.5091,0.4995,0.5216,0.5497,0.5383,0.5782,0.6257,0.6168,0.6243,0.6356,0.6356,0.6236,0.6146,0.6146,0.6446,0.6725,0.6725,0.6972,0.7216,0.7335,0.7432,0.7444,0.7358,0.6923,0.6588,0.6588,0.6588,0.675,0.7182,0.7235,0.7423,0.783,0.7883,0.7883,0.7883,0.7883,0.7883,0.7883,0.8182,0.8348,0.8348,0.8646,0.8804,0.8804,0.8804,0.8804,0.8804,0.8804,0.848,1.5834,0.0,0.0,1.7414,1.7859,1.823,1.9279,1.923,1.9213,1.9981,1.9992,1.9836,1.9836,1.9649,1.9497,1.9497,1.9497,1.9497,1.9497,1.8409,1.768,1.7825,1.6644,1.6176,1.7079,1.6717,1.638,1.6166,1.6152,1.6052,1.5791,1.5752,1.5176,1.3969,1.3896,1.3107,1.1634,1.1634,1.1603,1.1495,1.1495,1.1529,1.1549,1.1068,1.0699,1.0372,0.9747,0.9296,0.8999,0.8972,0.8766,0.8424,0.828,0.8098,0.7765,0.6593,0.6195,0.618,0.6052,0.5946,0.5857,0.5699,0.5578,0.5506,0.546,0.5764,0.6103,0.6049,0.6389,0.6791,0.6791,0.6742,0.6661,0.6661,0.6531,0.6382,0.6382,0.6768,0.7104,0.7104,0.7607,0.804,0.8099,0.8252,0.8366,0.8332,0.7685,0.7158,0.7104,0.717,0.7396,0.7937,0.7996,0.8209,0.8752,0.8804,0.8804,0.8804,0.8982,0.9087,0.9087,0.9263,0.9361,0.9361,0.9361,0.9361,0.9361,0.9361,0.9361,0.9361,0.9361,0.9361,0.0,0.0,1.6935,1.9246,1.8798,1.8531,2.118,2.0829,2.0307,2.1572,2.1226,2.0647,2.0647,2.002,1.9497,1.9497,1.9497,1.9497,1.9497,1.9093,1.8897,1.9385,1.794,1.7614,0.0,1.7225,1.5804,1.5798,1.5798,1.5791,1.5784,1.5565,1.5404,1.5351,1.5078,1.4321,1.2967,1.2927,1.28,1.2557,1.2557,1.2911,1.3443,1.1781,1.0985,1.0911,0.9522,0.8657,0.8245,0.8515,0.8381,0.7981,0.7805,0.7722,0.7663,0.7222,0.7146,0.7233,0.7109,0.7061,0.7051,0.7041,0.7037,0.7022,0.6865,0.6852,0.6836,0.6631,0.6918,0.7277,0.7277,0.7561,0.7847,0.7847,0.7841,0.7834,0.7834,0.7858,0.7858,0.7858,0.8095,0.8364,0.8627,0.8475,0.8573,0.9326,0.8989,0.8564,0.8368,0.8579,0.8752,0.8752,0.8778,0.8778,0.8804,0.8804,0.8804,0.8804,0.9413,0.9762,0.9762,1.0389,1.0737,1.0737,1.0737,1.0737,1.0737,1.0737,1.0737,1.0737,1.0737,1.0737,1.7256,0.0,1.8492,1.9311,1.9345,1.9506,2.075,2.0899,2.0852,2.0985,2.0824,2.0533,2.0218,2.0413,2.062,2.062,2.1336,2.1908,2.1908,2.0924,2.0228,2.0413,1.9204,0.0,0.0,0.0,0.0,1.7023,1.6596,1.6088,1.5578,1.5264,1.493,1.4543,1.4436,1.3976,1.316,1.3112,1.3067,1.3013,1.2815,1.2726,1.2694,1.173,1.1287,1.1226,1.038,0.9817,0.946,0.955,0.9408,0.9114,0.9059,0.8884,0.868,0.8528,0.8413,0.818,0.7371,0.7057,0.6962,0.6962,0.6867,0.6766,0.6719,0.705,0.7388,0.7143,0.754,0.7967,0.7757,0.7654,0.7645,0.7645,0.7468,0.7306,0.7306,0.762,0.7903,0.7903,0.8259,0.8585,0.8683,0.8773,0.8985,0.944,0.9359,0.9322,0.9576,0.9673,0.9818,1.0092,1.0141,1.0141,1.0141,1.0141,1.0141,1.0141,1.0338,1.0466,1.0466,1.0686,1.0788,1.0788,1.0788,1.0788,1.0788,1.0788,1.0788,1.0788,1.0788,1.0788,1.8581,1.9318,1.9885,2.0172,2.0194,2.0229,2.0509,2.0552,2.0459,2.0204,2.0145,2.0019,1.9736,2.041,2.0937,2.0752,2.1678,2.2467,2.2676,2.1703,2.1155,2.1637,2.05,0.0,0.0,0.0,0.0,1.8326,1.7387,1.6677,1.6427,1.5641,1.4969,1.4469,1.424,1.3782,1.3046,1.2939,1.2886,1.2879,1.2472,1.2171,1.1971,1.1383,1.1062,1.0896,1.0454,1.008,0.9784,0.992,0.9793,0.9526,0.9526,0.9384,0.9204,0.9098,0.8871,0.8561,0.793,0.765,0.7572,0.7572,0.7498,0.7353,0.7269,0.7562,0.7925,0.7822,0.8068,0.8361,0.8338,0.8134,0.7932,0.7932,0.7751,0.7599,0.7599,0.7917,0.818,0.818,0.8614,0.8978,0.8978,0.9278,0.9511,0.9501,0.9666,0.9896,1.0163,1.0188,1.0344,1.0755,1.0788,1.0788,1.0788,1.0788,1.0788,1.0788,1.0897,1.0945,1.0945,1.1175,1.1307,1.1307,1.1463,1.1559,1.1559,1.1559,1.1559,1.1559,1.1559,1.1545,2.0279,2.0717,2.0954,2.1609,2.1166,2.0502,2.0558,1.9915,1.9324,1.9295,1.9295,1.9249,0.0,0.0,2.0515,1.9951,2.0732,2.1515,2.1894,2.1592,2.1746,0.0,0.0,0.0,0.0,0.0,0.0,1.9686,0.0,1.7523,1.8124,1.648,1.5435,1.5118,1.4537,1.3789,1.2793,1.2435,1.2245,1.2278,1.1678,1.1397,1.135,1.0845,1.0427,1.0053,0.9796,0.9507,0.9211,0.9519,0.9472,0.9191,0.9191,0.9191,0.9178,0.8891,0.8662,0.8511,0.8723,0.8791,0.8764,0.8784,0.8771,0.8763,0.8487,0.8425,0.8482,0.8681,0.855,0.8459,0.895,0.8889,0.8695,0.8695,0.8695,0.8695,0.8695,0.8716,0.8736,0.8736,0.9199,0.9578,0.9578,1.002,1.0196,0.9696,1.005,1.0346,1.026,1.0235,1.0392,1.0797,1.0839,1.0839,1.0839,1.0839,1.0839,1.0839,1.1072,1.1233,1.1233,1.1821,1.2174,1.2174,1.2607,1.2837,1.2837,1.2861,1.2861,1.2861,1.2885,1.2946,2.0865,2.0925,2.0842,2.0364,1.9805,1.9441,1.9833,1.9727,1.9404,1.9083,1.9008,1.8616,0.0,0.0,0.0,1.9673,2.1938,0.0,2.2889,2.2682,0.0,2.3052,0.0,2.265,2.3038,2.2346,0.0,0.0,1.9749,1.8201,1.7416,1.6766,1.5966,1.5059,1.4896,1.4134,1.2745,1.1998,1.1696,1.1794,1.1628,1.1305,1.0869,1.1068,1.0496,0.9446,0.9684,0.9447,0.8898,0.8998,0.8985,0.8891,0.8891,0.9197,0.9544,0.8789,0.9019,0.964,0.8955,0.8452,0.8165,0.841,0.8597,0.8721,0.8642,0.8891,0.919,0.9051,0.8959,0.8875,0.8819,0.8741,0.8695,0.8695,0.8695,0.8695,0.8695,0.9019,0.9299,0.9299,1.0011,1.061,1.061,1.1057,1.1367,1.1226,1.1319,1.1251,1.0773,1.0708,1.0888,1.1344,1.1391,1.1391,1.1391,1.1391,1.1391,1.1391,1.1455,1.1487,1.1487,1.1652,1.1751,1.1751,1.1858,1.1917,1.1917,1.2277,1.2443,1.2453,1.2805,1.2969,2.1602,2.1399,2.1088,2.0606,1.9796,1.9193,1.9508,1.925,1.8873,1.8596,1.8404,0.0,0.0,0.0,0.0,0.0,0.0,0.0,2.4096,2.3585,2.341,0.0,2.3262,0.0,2.2818,2.2272,2.1875,0.0,2.0,1.8797,1.8333,1.7199,1.622,1.5428,1.5095,1.4172,1.2584,1.1879,1.1581,1.1629,1.1629,1.1411,1.0977,1.1188,1.0798,0.9916,0.0,1.0038,0.9692,0.9692,0.9692,0.9692,0.9692,0.9801,0.9901,0.9378,0.9405,0.9645,0.9213,0.8693,0.8319,0.8732,0.8968,0.9036,0.8913,0.9084,0.9324,0.9283,0.9265,0.9305,0.9372,0.9399,0.9399,0.9399,0.9399,0.9399,0.9399,0.9637,0.9913,1.0118,1.08,1.1356,1.1356,1.1597,1.1792,1.1792,1.1792,1.1689,1.1337,1.1446,1.1737,1.2172,1.2223,1.2223,1.2223,1.2223,1.2223,1.2223,1.2058,1.1954,1.1954,1.1954,1.1954,1.1954,1.212,1.2223,1.2223,1.2489,1.2615,1.2615,1.2877,1.3014,2.2133,2.1694,2.1255,2.1179,2.0199,1.9253,1.9313,1.8714,1.8137,1.8205,0.0,1.7815,1.8188,0.0,2.1388,2.1031,0.0,2.4808,2.5312,2.4523,2.4181,2.4946,2.3789,2.2914,2.2914,2.2027,2.1263,2.074,1.9676,1.9229,1.964,1.7716,1.6383,1.5845,1.5042,1.3941,1.2464,1.1955,1.1739,1.1773,1.1773,1.1638,1.1371,1.1476,1.1248,1.0788,0.0,0.0,1.0788,1.0788,1.0763,1.0722,1.0722,1.0532,1.0234,1.009,0.9748,0.9353,0.9464,0.9238,0.8967,0.9318,0.9475,0.9453,0.9228,0.9202,0.9304,0.9537,0.9597,0.9716,1.0186,1.0303,1.0303,1.0303,1.0341,1.039,1.039,1.0448,1.0621,1.1038,1.1523,1.1884,1.1884,1.1938,1.1993,1.1993,1.1993,1.1993,1.1993,1.217,1.246,1.281,1.2834,1.2834,1.2834,1.2834,1.2834,1.2834,1.2507,1.2313,1.2313,1.2313,1.2313,1.2313,1.2665,1.2834,1.2834,1.2905,1.2936,1.2936,1.2997,1.3051,2.1232,2.0566,1.9999,1.9534,1.8909,1.8511,1.897,1.861,0.0,0.0,0.0,1.8579,1.8062,2.025,0.0,2.1845,0.0,0.0,0.0,0.0,2.6035,0.0,0.0,0.0,0.0,0.0,0.0,0.0,0.0,1.8966,1.8374,1.7953,1.7033,1.5542,1.4041,1.3108,1.2808,1.2075,1.1864,1.2202,1.2202,1.2043,1.1738,1.2333,1.1963,1.0838,1.1391,0.0,1.0788,1.0788,1.059,1.0303,1.0303,1.0398,1.0421,0.9598,0.9852,1.0488,0.9747,0.9736,0.9918,0.9355,0.9308,0.9485,0.9434,0.9738,1.0096,1.0137,1.0157,1.0186,1.0283,1.0303,1.0303,1.0303,1.0592,1.0886,1.0886,1.1226,1.1553,1.1645,1.2048,1.2383,1.2383,1.2703,1.296,1.296,1.296,1.296,1.296,1.2346,1.1931,1.2002,1.2002,1.2002,1.2002,1.2002,1.2002,1.2002,1.1942,1.1897,1.1897,1.1897,1.1897,1.1897,1.1968,1.2002,1.2002,1.2392,1.2587,1.2606,1.2986,1.3164,2.0465,1.9823,1.9309,1.9058,1.8807,1.8607,1.8581,0.0,0.0,0.0,0.0,1.8634,1.8854,0.0,0.0,0.0,0.0,0.0,0.0,0.0,0.0,0.0,0.0,0.0,0.0,0.0,0.0,0.0,0.0,1.8818,1.7762,1.7031,1.6074,1.4757,1.3746,1.3221,1.3221,1.2622,1.2422,1.2613,1.2613,1.2535,1.2369,1.2749,1.2544,1.1916,1.2221,0.0,1.1891,1.1891,1.164,1.1232,1.1232,1.1045,1.0692,1.0213,1.027,1.0517,1.0067,1.0079,1.0234,0.9837,0.9813,0.9922,0.9922,1.0098,1.0303,1.0303,1.0303,1.0303,1.0303,1.0486,1.0668,1.0668,1.1057,1.1412,1.1412,1.1811,1.2156,1.2156,1.2544,1.2873,1.2873,1.306,1.3198,1.3198,1.3198,1.3198,1.3198,1.282,1.2526,1.2526,1.2526,1.2526,1.2526,1.2526,1.2526,1.2526,1.2526,1.2526,1.2526,1.2526,1.2526,1.2526,1.2526,1.2526,1.2526,1.2738,1.2873,1.289,1.3344,1.3564,1.9849,1.9309,1.897,1.8857,1.8832,1.8682,1.8154,1.8028,0.0,0.0,1.8204,1.853,1.961,0.0,0.0,0.0,0.0,0.0,0.0,0.0,0.0,0.0,0.0,0.0,0.0,0.0,0.0,0.0,0.0,0.0,1.7037,1.5822,1.4826,1.3997,1.3594,1.3369,1.3369,1.3071,1.2905,1.2905,1.2905,1.2905,1.2905,1.2905,1.2905,1.2905,1.2905,0.0,0.0,1.2744,1.2432,1.1921,1.1921,1.1443,1.0771,1.0771,1.0646,1.0418,1.0233,1.027,1.0403,1.0199,1.0232,1.0322,1.0428,1.0448,1.0467,1.0582,1.0621,1.0621,1.0621,1.0897,1.1156,1.1142,1.1461,1.1815,1.1905,1.2319,1.265,1.265,1.2943,1.3198,1.3198,1.3198,1.3232,1.3323,1.334,1.3374,1.3476,1.3493,1.3493,1.3493,1.3306,1.3198,1.3198,1.3198,1.3198,1.3198,1.3301,1.334,1.334,1.3425,1.3493,1.3493,1.3493,1.3493,1.3493,1.3493,1.3493,1.348,1.3868,1.4019,1.9497,1.9045,1.8882,1.8405,1.8279,1.8141,1.7612,0.0,0.0,1.8103,1.8204,1.853,1.961,1.9924,0.0,0.0,0.0,0.0,0.0,0.0,0.0,0.0,0.0,0.0,0.0,0.0,0.0,0.0,0.0,0.0,1.5625,1.4901,1.4216,1.3564,1.3154,1.2964,1.2964,1.2925,1.2905,1.2905,1.2905,1.2905,1.2905,1.2905,1.2905,1.2905,1.2905,0.0,0.0,1.2262,1.1775,1.1025,1.1025,1.0752,1.0361,1.0361,1.0593,1.0805,0.9954,1.0175,1.0708,0.9917,0.9947,1.037,1.0821,1.0943,1.1038,1.1534,1.1664,1.1664,1.1664,1.17,1.1716,1.1646,1.1677,1.1828,1.2251,1.2763,1.3146,1.3146,1.3163,1.3198,1.3198,1.3198,1.334,1.3769,1.3835,1.3983,1.4326,1.4374,1.4374,1.4374,1.3682,1.3198,1.3198,1.3198,1.3198,1.3198,1.3598,1.3835,1.3835,1.4181,1.4374,1.4374,1.4374,1.4374,1.4374,1.4374,1.4374,1.4374,1.4422,1.4438,1.895,1.8806,1.8874,1.9121,1.8932,1.8619,1.8417,0.0,1.7561,1.8091,1.8204,1.853,1.961,2.0087,2.0641,0.0,0.0,0.0,0.0,0.0,0.0,0.0,0.0,0.0,0.0,0.0,0.0,0.0,0.0,0.0,1.541,1.5096,1.4715,1.423,1.4073,1.3978,1.3978,1.3978,1.3978,1.3978,1.3978,1.3978,1.3967,1.3644,1.3494,1.3473,1.312,0.0,0.0,1.2666,1.232,1.1801,1.1801,1.1565,1.1199,1.1199,1.1319,1.1384,1.0645,1.0614,1.0797,1.0113,1.002,1.0197,1.0405,1.0457,1.0508,1.0714,1.1004,1.1262,1.1262,1.1502,1.1732,1.1664,1.1637,1.1852,1.2607,1.2932,1.3256,1.3854,1.3983,1.3983,1.3983,1.3983,1.4052,1.423,1.4262,1.4326,1.4485,1.4501,1.4501,1.4501,1.4181,1.3983,1.3983,1.3983,1.3983,1.3983,1.4165,1.4262,1.4262,1.4406,1.4501,1.4501,1.4501,1.4501,1.4501,1.4501,1.4501,1.4517,1.4752,1.486,1.8414,1.8724,1.9224,1.9654,1.9494,1.9196,0.0,0.0,1.7739,1.8129,1.8342,1.8731,1.9635,2.0137,2.049,0.0,0.0,2.2962,0.0,0.0,0.0,0.0,0.0,0.0,0.0,0.0,0.0,0.0,0.0,0.0,0.0,1.5649,1.5348,1.4709,1.4698,1.4698,1.4698,1.4698,1.4698,1.4698,1.453,1.4462,1.444,1.3883,1.3638,1.3616,0.0,0.0,0.0,1.2833,1.2596,1.2198,1.2034,1.1886,1.1759,1.142,1.1588,1.1861,1.0838,1.0759,1.098,1.0169,0.9954,1.0034,1.0034,1.0174,1.0337,1.0507,1.0824,1.11,1.11,1.1339,1.1545,1.1488,1.1558,1.1806,1.2465,1.2737,1.3122,1.4037,1.4194,1.4278,1.4474,1.4501,1.4549,1.4658,1.4674,1.4737,1.486,1.4876,1.4922,1.5015,1.4938,1.4783,1.4517,1.4501,1.4501,1.4501,1.4611,1.4674,1.4674,1.4814,1.4876,1.4876,1.4876,1.4876,1.4876,1.4876,1.4876,1.4891,1.518,1.5359,1.7933,1.8878,2.0084,1.971,1.9697,1.966,0.0,0.0,1.8191,1.8204,1.8619,1.9158,1.971,1.9811,1.9999,2.0591,2.1169,0.0,0.0,0.0,0.0,0.0,0.0,0.0,0.0,0.0,0.0,0.0,0.0,0.0,0.0,1.6479,1.5932,1.4744,1.4698,1.4698,1.4698,1.4698,1.4698,1.4698,1.4161,1.3915,1.3893,1.3275,1.3001,0.0,0.0,0.0,0.0,1.2405,1.2184,1.1759,1.1155,1.1284,1.1651,1.0521,1.1126,1.2212,1.0208,1.0421,1.1353,0.9889,0.9632,0.9905,0.9905,1.0308,1.0899,1.1439,1.1588,1.1588,1.1588,1.1393,1.1202,1.1189,1.1468,1.1692,1.1718,1.2129,1.2703,1.3376,1.3499,1.3721,1.4389,1.4501,1.4643,1.5028,1.5089,1.5255,1.5741,1.5784,1.5912,1.6246,1.5983,1.5433,1.4564,1.4501,1.4501,1.4501,1.486,1.5089,1.5089,1.5551,1.5784,1.5784,1.5784,1.5784,1.5784,1.5784,1.5784,1.5784,1.5784,1.5969,1.8695,1.9018,1.9371,2.0158,1.9519,1.8857,1.9422,0.0,1.7852,1.8606,1.8882,1.9284,2.0251,2.0702,2.1016,2.1232,2.2008,0.0,0.0,0.0,0.0,0.0,0.0,0.0,0.0,0.0,0.0,0.0,0.0,0.0,0.0,1.65,1.6315,1.5942,1.5932,1.5932,1.5932,1.5932,1.5932,1.592,1.5387,1.5132,1.5096,1.4167,0.0,0.0,0.0,0.0,0.0,1.2944,1.266,1.2198,1.2012,1.183,1.1612,1.1257,1.1448,1.1729,1.0687,1.0607,1.0856,1.0011,0.997,1.0248,1.0248,1.0223,1.0332,1.1098,1.1491,1.1682,1.1682,1.1616,1.1452,1.1084,1.1089,1.132,1.1973,1.2238,1.263,1.3528,1.4076,1.4454,1.4673,1.5082,1.5433,1.5566,1.5768,1.5967,1.6122,1.6326,1.6514,1.6633,1.6541,1.627,1.5766,1.5521,1.5492,1.5709,1.5853,1.5909,1.5909,1.6285,1.6382,1.6151,1.6369,1.6474,1.6474,1.6474,1.6474,1.6474,1.6474,1.6541,0.0,1.8781,1.9427,2.0116,1.9543,0.0,0.0,0.0,1.8191,1.8857,1.9158,1.9597,2.0528,2.0968,2.1242,2.1455,2.2234,0.0,0.0,0.0,0.0,0.0,0.0,0.0,0.0,0.0,0.0,0.0,0.0,0.0,0.0,1.6701,1.6795,1.6795,1.6616,1.65,1.65,1.65,1.6387,1.6195,1.5643,1.5299,1.506,1.4167,0.0,0.0,0.0,0.0,0.0,1.2973,1.2701,1.235,1.1924,1.1688,1.1553,1.1125,1.1298,1.1642,1.0864,1.0791,1.0989,1.0443,1.0422,1.0581,1.0581,1.0434,1.0402,1.0923,1.1247,1.14,1.14,1.1474,1.1463,1.112,1.1152,1.1405,1.1989,1.2112,1.2361,1.3249,1.3762,1.4251,1.4879,1.533,1.575,1.6119,1.634,1.6488,1.6488,1.6672,1.6853,1.6993,1.6879,1.6763,1.6683,1.6367,1.6274,1.6474,1.6488,1.6488,1.6488,1.6686,1.6699,1.6488,1.6686,1.6802,1.6802,1.6802,1.6802,1.6802,1.6802,1.6866,0.0,1.8447,0.0,0.0,0.0,0.0,0.0,0.0,0.0,1.9158,1.9559,2.01,2.0704,2.0805,2.0981,2.1496,2.2065,0.0,0.0,0.0,0.0,0.0,0.0,0.0,0.0,0.0,0.0,0.0,0.0,0.0,0.0,1.7097,1.7374,1.7374,1.6879,1.6582,1.6502,1.6502,1.6212,1.563,1.5137,1.4613,1.4114,1.3541,0.0,0.0,0.0,0.0,0.0,1.2632,1.238,1.2254,1.1181,1.108,1.1425,1.0349,1.0791,1.1781,1.0792,1.0969,1.1566,1.1076,1.0932,1.0932,1.0956,1.0944,1.0932,1.0932,1.0944,1.0956,1.0956,1.115,1.1363,1.1363,1.1612,1.1854,1.1854,1.1854,1.2035,1.2663,1.2829,1.3372,1.4984,1.5298,1.5665,1.6655,1.6815,1.6841,1.6841,1.6853,1.696,1.7242,1.7035,1.6973,1.7242,1.6986,1.6815,1.6828,1.6841,1.6841,1.6841,1.6853,1.6853,1.6841,1.6853,1.6866,1.6866,1.6866,1.6866,1.6866,1.6866,1.7043,1.9356,0.0,1.9986,2.0362,1.982,0.0,0.0,0.0,0.0,0.0,0.0,2.1255,2.182,2.192,2.197,2.2096,2.3084,0.0,0.0,0.0,0.0,0.0,0.0,0.0,0.0,0.0,0.0,0.0,0.0,0.0,0.0,1.7847,1.7907,1.7907,1.7787,1.733,1.6506,1.6493,1.6021,1.5092,1.4861,1.4693,1.4554,1.4303,0.0,0.0,0.0,0.0,1.3373,1.274,1.2232,1.183,1.1576,1.1306,1.1022,1.0751,1.0868,1.1121,1.0859,1.0921,1.1102,1.1183,1.1207,1.1253,1.1516,1.14,1.1207,1.1207,1.1389,1.1582,1.1582,1.179,1.1992,1.1992,1.2205,1.2416,1.2416,1.2416,1.2463,1.2611,1.3057,1.3725,1.4674,1.5277,1.5876,1.6677,1.7014,1.7187,1.7187,1.7408,1.7383,1.6885,1.7289,1.7366,1.6885,1.6816,1.6917,1.7175,1.7187,1.7187,1.7187,1.7432,1.7444,1.7187,1.7432,1.7566,1.7566,1.7566,1.7566,1.7566,1.7566,1.7612,2.0376,2.0974,2.1377,2.1719,2.1355,2.1039,0.0,0.0,0.0,0.0,0.0,0.0,2.2209,2.2847,0.0,0.0,2.4591,0.0,0.0,0.0,0.0,0.0,0.0,0.0,0.0,0.0,0.0,0.0,0.0,0.0,0.0,1.8341,1.8477,1.8477,1.8477,1.7932,1.6804,1.679,1.6209,1.5079,1.5012,1.4856,1.4604,1.4527,1.4501,0.0,0.0,0.0,1.3431,1.2512,1.1951,1.169,1.1428,1.1162,1.0897,1.0897,1.0991,1.1083,1.1083,1.1187,1.1336,1.1479,1.1523,1.1579,1.1886,1.1865,1.1699,1.1557,1.1659,1.1837,1.194,1.2086,1.222,1.2362,1.2494,1.2601,1.2601,1.2601,1.2601,1.2601,1.2895,1.3518,1.4724,1.4951,1.5374,1.6567,1.663,1.6525,1.6525,1.6683,1.6815,1.6884,1.6829,1.6839,1.7006,1.6631,1.6713,1.7476,1.7526,1.7526,1.7526,1.7704,1.7704,1.7537,1.7704,1.78,1.78,1.78,1.78,1.78,1.7927,1.7982,2.1074,2.2518,2.3534,2.3195,2.317,2.3208,0.0,0.0,0.0,0.0,0.0,0.0,0.0,0.0,0.0,0.0,0.0,0.0,0.0,0.0,0.0,0.0,0.0,0.0,0.0,0.0,0.0,0.0,0.0,0.0,0.0,1.8779,1.9024,1.9024,1.8919,1.8335,1.72,1.713,1.6448,1.5177,1.5227,1.5031,1.4596,1.4674,1.4634,0.0,0.0,0.0,1.3303,1.2178,1.172,1.1664,1.121,1.1038,1.1038,1.1038,1.121,1.1442,1.1487,1.1673,1.1918,1.1918,1.1918,1.1961,1.219,1.2261,1.221,1.1992,1.1918,1.1971,1.22,1.2291,1.2382,1.2601,1.2687,1.2715,1.2715,1.2715,1.2715,1.2715,1.2715,1.3238,1.4827,1.4569,1.4698,1.6295,1.6024,1.5654,1.5654,1.5673,1.5969,1.6705,1.6119,1.6062,1.6968,1.636,1.6415,1.7497,1.7667,1.7797,1.7916,1.7916,1.7916,1.7916,1.7916,1.7916,1.7916,1.7916,1.7916,1.7927,1.8156,1.8259,2.2965,2.4711,2.5498,2.3572,2.3471,2.374,0.0,0.0,0.0,0.0,0.0,0.0,0.0,0.0,0.0,0.0,0.0,0.0,0.0,0.0,0.0,0.0,0.0,0.0,0.0,0.0,0.0,0.0,0.0,0.0,0.0,1.953,1.9584,1.9584,1.9031,1.8369,1.7617,1.7267,1.6267,1.4623,1.4971,1.5083,1.5028,1.5418,1.5299,0.0,0.0,1.3439,1.2848,1.2095,1.1774,1.1785,1.1693,1.1659,1.1659,1.1659,1.1833,1.2082,1.232,1.2429,1.2485,1.2485,1.2485,1.2485,1.2524,1.2543,1.2533,1.2494,1.2485,1.2494,1.2533,1.2712,1.2887,1.2924,1.3104,1.3278,1.3278,1.3278,1.3278,1.3278,1.3278,1.3563,1.4439,1.4516,1.4737,1.5629,1.5828,1.5855,1.5855,1.5992,1.5914,1.5383,1.5782,1.5913,1.5406,1.585,1.6229,1.6439,1.7071,1.7775,1.8462,1.8479,1.8479,1.8479,1.8479,1.8479,1.8479,1.8479,1.8479,1.8479,1.8518,1.8537,2.1878,2.4059,2.5749,2.472,2.5347,2.6151,0.0,0.0,0.0,0.0,0.0,0.0,0.0,0.0,0.0,0.0,0.0,0.0,0.0,0.0,0.0,0.0,0.0,0.0,0.0,0.0,0.0,0.0,0.0,0.0,0.0,0.0,2.0019,2.0019,1.9578,1.9028,1.8346,1.7777,1.6713,1.5195,1.5389,1.5477,1.5477,1.5712,1.5425,1.4766,0.0,1.3552,1.2779,1.239,1.2159,1.2024,1.2174,1.2235,1.2235,1.2235,1.2306,1.2426,1.2562,1.2601,1.2601,1.2601,1.2601,1.263,1.2769,1.2815,1.2843,1.298,1.2818,1.263,1.2778,1.2906,1.304,1.3182,1.3311,1.3396,1.3396,1.3396,1.3396,1.3396,1.3396,1.3625,1.4368,1.4229,1.4272,1.506,1.4968,1.483,1.483,1.491,1.5018,1.5188,1.5066,1.5064,1.5349,1.5225,1.5614,1.6782,1.7197,1.7763,1.8577,1.8595,1.8595,1.8595,1.8595,1.8595,1.8595,1.8595,1.8595,1.8595,1.8752,1.8816,2.1034,2.3248,2.5435,2.5561,0.0,0.0,0.0,0.0,0.0,0.0,0.0,0.0,0.0,0.0,0.0,0.0,0.0,0.0,0.0,0.0,0.0,0.0,0.0,0.0,0.0,0.0,0.0,0.0,0.0,0.0,0.0,0.0,2.0371,2.0199,1.9846,1.9345,1.8655,1.7926,1.7062,1.6039,1.6039,1.6039,1.6039,1.5858,1.5403,1.4747,1.4266,1.3559,1.2741,1.2647,1.2475,1.2312,1.2524,1.2601,1.261,1.2668,1.2687,1.2696,1.2778,1.2781,1.2781,1.2781,1.2781,1.2834,1.3024,1.3094,1.3138,1.3346,1.3104,1.2818,1.3033,1.3094,1.3147,1.3354,1.3396,1.3413,1.3438,1.3454,1.3462,1.3519,1.3528,1.3691,1.4255,1.3985,1.3887,1.4489,1.4239,1.3969,1.3969,1.4011,1.4331,1.511,1.4509,1.4499,1.56,1.4994,1.5414,1.7441,1.7744,1.8119,1.8735,1.8753,1.8753,1.8753,1.8753,1.8753,1.8753,1.8807,1.8834,1.8842,1.9091,1.9188,2.239,2.3854,2.4996,2.5473,0.0,0.0,0.0,0.0,0.0,0.0,0.0,0.0,0.0,0.0,0.0,0.0,0.0,0.0,0.0,0.0,0.0,0.0,0.0,0.0,0.0,0.0,0.0,0.0,0.0,0.0,0.0,0.0,0.0,1.9939,1.9313,1.8609,1.7896,1.7221,1.6824,1.6725,1.6725,1.6725,1.6709,1.6015,1.5332,1.4667,1.394,1.325,1.2607,1.2598,1.2591,1.2572,1.2591,1.2601,1.263,1.2887,1.2961,1.3013,1.3269,1.3346,1.3346,1.3346,1.3346,1.3354,1.3363,1.3371,1.3371,1.3388,1.3371,1.3354,1.3363,1.3371,1.3371,1.3396,1.3396,1.3429,1.3564,1.3586,1.3648,1.3834,1.3863,1.3881,1.3934,1.3913,1.3902,1.3955,1.4098,1.4175,1.4175,1.435,1.4483,1.4568,1.4501,1.4782,1.5619,1.5631,1.6297,1.7943,1.8756,1.9196,1.9251,1.9251,1.9251,1.9251,1.9251,1.9251,1.9251,1.9449,1.9534,1.9534,1.9682,1.9737,2.144,2.3497,2.5272,2.5146,0.0,0.0,0.0,0.0,0.0,0.0,0.0,0.0,0.0,0.0,0.0,0.0,0.0,0.0,0.0,0.0,0.0,0.0,0.0,0.0,0.0,0.0,0.0,0.0,0.0,0.0,0.0,0.0,0.0,2.0297,1.9819,1.9227,1.8485,1.7785,1.742,1.742,1.7005,1.6566,1.6106,1.5822,1.5073,1.402,1.39,1.3367,1.263,1.2962,1.3006,1.2878,1.3033,1.3104,1.3113,1.3208,1.326,1.3252,1.3363,1.3396,1.3396,1.3396,1.3396,1.3421,1.3493,1.3516,1.354,1.3673,1.3711,1.368,1.3565,1.3516,1.3565,1.368,1.3711,1.3726,1.3783,1.3798,1.3802,1.3892,1.3906,1.3906,1.3906,1.441,1.4654,1.415,1.4686,1.494,1.4441,1.4453,1.4493,1.4493,1.4493,1.4622,1.494,1.5869,1.6766,1.7479,1.8186,1.8775,1.9279,1.9409,1.9492,1.9492,1.9572,1.9606,1.9606,1.9688,1.9719,1.9738,1.978,1.979,2.1434,2.3343,2.5149,0.0,0.0,0.0,0.0,0.0,0.0,0.0,0.0,0.0,0.0,0.0,0.0,0.0,0.0,0.0,0.0,0.0,0.0,0.0,0.0,0.0,0.0,0.0,0.0,0.0,0.0,0.0,0.0,0.0,0.0,0.0,1.9891,1.9287,1.8555,1.8053,1.78,1.7789,1.7106,1.6503,1.6015,1.5775,1.5027,1.3883,1.3827,1.3449,1.2889,1.3252,1.3294,1.3138,1.3329,1.3396,1.3396,1.3396,1.3438,1.3453,1.3453,1.3502,1.3559,1.3559,1.3559,1.3565,1.3663,1.3684,1.3714,1.3853,1.3906,1.3874,1.382,1.3736,1.3721,1.3878,1.3906,1.392,1.3983,1.3997,1.4011,1.4089,1.4282,1.4396,1.4132,1.4864,1.5241,1.4478,1.4946,1.5181,1.4622,1.4605,1.4632,1.4632,1.4632,1.4725,1.4984,1.601,1.6916,1.7573,1.7994,1.8596,1.9425,1.9597,1.9656,1.9656,1.9756,1.979,1.979,1.9841,1.9863,1.9863,1.9931,1.9965,2.2765,2.3521,2.4506,0.0,0.0,0.0,0.0,0.0,0.0,0.0,0.0,0.0,0.0,0.0,0.0,0.0,0.0,0.0,0.0,0.0,0.0,0.0,0.0,0.0,0.0,0.0,0.0,0.0,0.0,0.0,0.0,0.0,0.0,0.0,1.9299,1.8538,1.78,1.78,1.78,1.7783,1.7061,1.6699,1.6665,1.5927,1.5189,1.4453,1.3726,1.3396,1.3396,1.3396,1.3396,1.3396,1.3396,1.3396,1.3396,1.3396,1.3494,1.3592,1.3592,1.3729,1.3906,1.3906,1.3906,1.3906,1.3906,1.3906,1.3888,1.3913,1.3913,1.3955,1.4149,1.4069,1.3913,1.3913,1.3913,1.3962,1.4162,1.4195,1.4264,1.4464,1.5141,1.5441,1.464,1.516,1.5477,1.4798,1.4707,1.4707,1.4707,1.4813,1.4904,1.4904,1.4904,1.5235,1.6036,1.6111,1.6803,1.8399,1.8512,1.89,1.9752,1.979,1.9796,1.9796,1.9796,1.9796,1.9815,1.9943,1.9993,2.0012,2.0205,2.0308,2.2404,2.354,0.0,0.0,0.0,0.0,0.0,0.0,0.0,0.0,0.0,0.0,0.0,0.0,0.0,0.0,0.0,0.0,0.0,0.0,0.0,0.0,0.0,0.0,0.0,0.0,0.0,0.0,0.0,0.0,0.0,0.0,0.0,0.0,1.9391,1.8642,1.8089,1.8072,1.8072,1.8072,1.7478,1.6749,1.591,1.5155,1.4428,1.3709,1.3489,1.3396,1.3405,1.3501,1.354,1.3556,1.3703,1.3756,1.3756,1.3756,1.3776,1.3802,1.3802,1.3856,1.3906,1.3906,1.3906,1.3934,1.4058,1.4116,1.4143,1.4282,1.4314,1.4344,1.4393,1.4368,1.4314,1.4314,1.4314,1.4344,1.4393,1.4405,1.4435,1.4482,1.4695,1.4809,1.468,1.5316,1.5614,1.4945,1.5316,1.5485,1.4907,1.4882,1.4904,1.4904,1.4904,1.5229,1.6031,1.6626,1.7444,1.8645,1.9244,1.963,1.9796,1.9896,1.9948,1.9948,2.0074,2.0153,2.0153,2.0188,2.0205,2.0205,2.0277,2.0308,2.3404,0.0,0.0,0.0,0.0,0.0,0.0,0.0,0.0,0.0,0.0,0.0,0.0,0.0,0.0,0.0,0.0,0.0,0.0,0.0,0.0,0.0,0.0,0.0,0.0,0.0,0.0,0.0,0.0,0.0,0.0,0.0,0.0,0.0,1.9427,1.8654,1.8361,1.8361,1.8193,1.7869,1.7258,1.6405,1.5356,1.4908,1.4297,1.3589,1.3589,1.3589,1.3597,1.3686,1.3714,1.3721,1.3846,1.3906,1.3906,1.3906,1.3955,1.4017,1.4017,1.4065,1.4143,1.4143,1.4143,1.4162,1.4282,1.4314,1.4332,1.4464,1.4493,1.4493,1.4493,1.4493,1.4493,1.4493,1.4493,1.4493,1.4493,1.4493,1.4511,1.4578,1.4842,1.4997,1.4812,1.5458,1.5737,1.5045,1.5342,1.5506,1.5061,1.4976,1.4968,1.5008,1.532,1.5727,1.623,1.7003,1.7876,1.8811,1.9324,1.972,1.9982,2.0079,2.012,2.012,2.0237,2.0308,2.0308,2.0308,2.0308,2.0308,2.0635,2.0769,2.5046,0.0,0.0,0.0,0.0,0.0,0.0,0.0,0.0,0.0,0.0,0.0,0.0,0.0,0.0,0.0,0.0,0.0,0.0,0.0,0.0,0.0,0.0,0.0,0.0,0.0,0.0,0.0,0.0,0.0,0.0,0.0,0.0,2.093,1.941,1.8604,1.865,1.865,1.8269,0.0,1.6735,1.5944,1.5175,1.497,1.4521,1.3906,1.3906,1.3906,1.3906,1.3927,1.3934,1.3934,1.3948,1.3955,1.3955,1.3955,1.4065,1.4238,1.4238,1.4356,1.4493,1.4493,1.4493,1.4493,1.4493,1.4493,1.4493,1.4493,1.4493,1.4493,1.4511,1.4516,1.4516,1.4528,1.4511,1.4493,1.4493,1.4505,1.458,1.4775,1.5354,1.5633,1.5121,1.5569,1.5775,1.5121,1.5025,1.5052,1.5183,1.5092,1.5056,1.5183,1.5984,1.6526,1.6603,1.7353,1.818,1.9069,1.9126,1.9469,2.0269,2.0308,2.0308,2.0308,2.0308,2.0308,2.0308,2.0308,2.0308,2.0327,2.1135,2.1504,0.0,2.4859,0.0,0.0,0.0,0.0,0.0,0.0,0.0,0.0,0.0,0.0,0.0,0.0,0.0,0.0,0.0,0.0,0.0,0.0,0.0,0.0,0.0,0.0,0.0,0.0,0.0,0.0,0.0,0.0,0.0,0.0,0.0,2.1203,1.9498,1.8706,1.8914,1.8914,1.8824,0.0,1.7364,1.6663,1.6438,1.4867,1.404,1.3906,1.3906,1.3906,1.392,1.4065,1.4143,1.4149,1.4307,1.4375,1.4375,1.4375,1.4393,1.4441,1.4441,1.4464,1.4493,1.4493,1.4493,1.4493,1.4493,1.4493,1.4493,1.4493,1.4493,1.4522,1.463,1.4661,1.4687,1.478,1.4645,1.4493,1.4493,1.4576,1.4857,1.5519,1.5366,1.5296,1.5893,1.5586,1.5216,1.5175,1.5168,1.5174,1.5209,1.5177,1.5174,1.5209,1.5984,1.6756,1.7391,1.8222,1.9084,1.9965,2.0023,2.01,2.0288,2.0308,2.0308,2.0308,2.0308,2.0308,2.0308,2.0308,2.0308,2.0327,2.1135,2.1504,0.0,0.0,0.0,0.0,0.0,0.0,0.0,0.0,0.0,0.0,0.0,0.0,0.0,0.0,0.0,0.0,0.0,0.0,0.0,0.0,0.0,0.0,0.0,0.0,0.0,0.0,0.0,0.0,0.0,0.0,0.0,2.1943,2.1223,2.1534,1.9848,1.9007,1.9142,1.9142,1.8952,1.857,1.7837,1.708,1.6285,1.4833,1.4182,1.4182,1.4182,1.4182,1.4195,1.4295,1.4332,1.4356,1.4458,1.4493,1.4493,1.4493,1.4493,1.4493,1.4493,1.4493,1.4493,1.4493,1.4545,1.4605,1.4605,1.4635,1.4682,1.4682,1.4682,1.4702,1.4776,1.4794,1.4809,1.4886,1.4785,1.4682,1.4682,1.5056,1.5508,1.5998,1.5807,1.5745,1.6303,1.567,1.5127,1.5186,1.5192,1.5192,1.5192,1.5192,1.5365,1.5772,1.6561,1.7411,1.8261,1.9123,1.9812,2.0269,2.0308,2.0308,2.0308,2.0308,2.0308,2.0308,2.0308,2.0308,2.0308,2.0308,2.05,2.0885,2.1735,2.235,0.0,0.0,0.0,0.0,0.0,0.0,0.0,0.0,0.0,0.0,0.0,0.0,0.0,0.0,0.0,0.0,0.0,0.0,0.0,0.0,0.0,0.0,0.0,0.0,0.0,0.0,0.0,0.0,0.0,0.0,2.3575,2.22,2.1462,2.1616,2.0102,1.9312,1.935,1.9312,1.8967,1.8298,1.8034,1.7124,1.568,1.486,1.4493,1.4493,1.4493,1.4493,1.4493,1.4493,1.4493,1.4493,1.4493,1.4493,1.4493,1.4493,1.4493,1.4493,1.4493,1.4511,1.4533,1.4533,1.4619,1.4737,1.4737,1.4809,1.4904,1.4904,1.4904,1.4908,1.4907,1.4915,1.4957,1.5129,1.5176,1.5163,1.5125,1.577,1.6387,1.6505,1.6533,1.6494,1.6321,1.5811,1.5365,1.5212,1.5327,1.5423,1.5423,1.5558,1.5907,1.6638,1.7449,1.8222,1.8934,1.9792,2.0308,2.0308,2.0308,2.0308,2.0308,2.0308,2.0308,2.0308,2.0308,2.0296,2.0296,2.0315,2.0746,2.156,2.2427,2.3299,0.0,0.0,0.0,0.0,0.0,0.0,0.0,0.0,0.0,0.0,0.0,0.0,0.0,0.0,0.0,0.0,0.0,0.0,0.0,0.0,0.0,0.0,0.0,0.0,0.0,0.0,0.0,0.0,0.0,0.0,2.3143,2.2236,2.1496,2.0953,1.9867,1.938,1.9555,1.9398,1.9242,1.9113,1.7722,1.6585,1.568,1.486,1.4493,1.4493,1.4493,1.4493,1.4493,1.4493,1.4493,1.4493,1.4493,1.4493,1.4493,1.4493,1.4493,1.4493,1.4493,1.4584,1.4677,1.4677,1.4766,1.4863,1.4863,1.4891,1.4904,1.4904,1.4904,1.4907,1.497,1.4992,1.5205,1.607,1.6298,1.6218,1.599,1.6713,1.7394,1.7426,1.7478,1.707,1.5615,1.5907,1.6061,1.5308,1.5849,1.633,1.633,1.693,1.7411,1.7526,1.8318,1.8876,1.8992,1.9792,2.0308,2.0308,2.0308,2.0308,2.0308,2.0308,2.0308,2.0308,2.0295,2.0292,2.0295,2.0359,2.0837,2.1699,2.2569,2.3444,0.0,0.0,0.0,0.0,0.0,0.0,0.0,0.0,0.0,0.0,0.0,0.0,0.0,0.0,0.0,0.0,0.0,0.0,0.0,0.0,0.0,0.0,0.0,0.0,0.0,0.0,0.0,0.0,0.0,2.4091,2.3857,2.2609,2.1826,2.1645,2.0304,1.9579,1.9608,1.9579,1.9343,1.8832,1.7677,1.6694,1.5905,1.509,1.463,1.4493,1.4493,1.4493,1.4493,1.4493,1.4545,1.4608,1.4608,1.4656,1.4717,1.4717,1.4717,1.4717,1.4717,1.4756,1.4809,1.4809,1.4871,1.4961,1.4961,1.5019,1.5078,1.5078,1.5078,1.507,1.5092,1.5469,1.5942,1.6381,1.7218,1.7874,1.7753,1.8075,1.8375,1.8386,1.8405,1.8045,1.6811,1.693,1.7045,1.6657,1.693,1.718,1.718,1.7487,1.7891,1.8376,1.8761,1.9203,1.97,2.0081,2.0308,2.0308,2.0308,2.0308,2.0308,2.0303,2.053,2.1023,2.0983,2.0981,2.1038,2.1554,2.227,2.3162,2.3549,2.4172,0.0,0.0,0.0,0.0,0.0,0.0,0.0,0.0,0.0,0.0,0.0,0.0,0.0,0.0,0.0,0.0,0.0,0.0,0.0,0.0,0.0,0.0,0.0,0.0,0.0,0.0,0.0,0.0,0.0,2.419,2.3945,2.2761,2.1962,2.1727,2.0468,1.9774,1.9707,1.9768,1.9364,1.8488,1.7672,1.6885,1.6069,1.5272,1.478,1.4605,1.4605,1.4605,1.4605,1.4605,1.4656,1.4756,1.4756,1.4809,1.4904,1.4904,1.4904,1.4904,1.4904,1.4902,1.4928,1.4928,1.4985,1.5046,1.5046,1.5127,1.525,1.5462,1.5538,1.5577,1.5769,1.6311,1.6849,1.708,1.8084,1.9069,1.9288,1.9158,1.8992,1.9,1.9007,1.8722,1.7853,1.7872,1.7965,1.7738,1.7891,1.8026,1.8026,1.8219,1.8603,1.9257,1.9334,1.9584,2.0231,2.0292,2.0307,2.0307,2.0529,2.0662,2.0662,2.088,2.1283,2.1931,2.2117,2.2143,2.1976,2.263,2.3417,2.4329,2.4329,2.4776,0.0,0.0,0.0,0.0,0.0,0.0,0.0,0.0,0.0,0.0,0.0,0.0,0.0,0.0,0.0,0.0,0.0,0.0,0.0,0.0,0.0,0.0,0.0,0.0,0.0,0.0,0.0,0.0,0.0,2.3878,2.2492,2.2336,2.1619,2.0164,1.9907,1.9858,1.9988,1.9863,1.9364,1.8488,1.7672,1.6885,1.6069,1.5272,1.4895,1.4882,1.4882,1.4882,1.4882,1.4882,1.4886,1.4895,1.4895,1.4895,1.4904,1.4904,1.4904,1.4904,1.4904,1.4937,1.4984,1.4984,1.5082,1.5186,1.5186,1.5189,1.5365,1.6195,1.6426,1.6603,1.7372,1.7603,1.785,1.8669,1.8946,1.9223,2.0058,1.9584,1.8992,1.8992,1.8992,1.8722,1.7853,1.8385,1.865,1.7815,1.8395,1.8934,1.8934,1.9658,2.0173,2.0231,2.0231,2.025,2.0308,2.0295,2.0304,2.0304,2.1136,2.1636,2.1636,2.2423,2.2874,2.2933,2.3744,2.3784,2.3026,2.3062,2.3535,2.4394,2.4394,2.4863,0.0,0.0,0.0,0.0,0.0,0.0,0.0,0.0,0.0,0.0,0.0,0.0,0.0,0.0,0.0,0.0,0.0,0.0,0.0,0.0,0.0,0.0,0.0,0.0,0.0,0.0,0.0,0.0,0.0,0.0,2.3303,2.2733,2.1978,2.0979,2.0426,2.0134,2.0197,2.0022,1.9554,1.8831,1.8533,1.7673,1.6342,1.6062,1.5623,1.5122,1.568,1.5533,1.4904,1.4904,1.4928,1.4954,1.4954,1.5011,1.508,1.508,1.508,1.508,1.508,1.5104,1.5133,1.5133,1.5152,1.5192,1.5192,1.5192,1.5269,1.5577,1.6061,1.6564,1.6853,1.7738,1.8757,1.9635,1.9827,1.9927,2.0231,2.0042,1.9831,1.9831,1.9831,1.9735,1.9427,1.9635,1.9731,1.9427,1.9638,1.9831,1.9831,2.0119,2.0308,2.0308,2.0306,2.0305,2.0305,2.0338,2.0359,2.0359,2.1202,2.1702,2.1702,2.2572,2.3327,2.3894,2.4202,2.4226,2.3948,2.4441,2.4898,2.5234,2.5234,2.5391,0.0,0.0,0.0,0.0,0.0,0.0,0.0,0.0,0.0,0.0,0.0,0.0,0.0,0.0,0.0,0.0,0.0,0.0,0.0,0.0,0.0,0.0,0.0,0.0,0.0,0.0,0.0,0.0,0.0,0.0,2.3941,2.308,2.2139,2.1135,2.0577,2.0308,2.0308,2.0165,1.9724,1.9007,1.8992,1.8261,1.691,1.691,1.658,1.6061,1.6369,1.5922,1.5011,1.5323,1.5285,1.5075,1.5075,1.5303,1.5635,1.5635,1.5811,1.6003,1.5731,1.5635,1.5635,1.5635,1.5442,1.525,1.5558,1.5635,1.5692,1.5965,1.6676,1.7411,1.7696,1.8603,1.9573,2.016,2.0299,2.031,2.0321,2.0324,2.0299,2.0299,2.0299,2.031,2.0321,2.0301,2.031,2.0324,2.0328,2.0328,2.0328,2.0328,2.0328,2.0328,2.0338,2.0446,2.0742,2.0836,2.0982,2.1296,2.2129,2.2606,2.2606,2.3482,2.425,2.4837,2.4843,2.4843,2.4837,2.5362,2.566,2.5703,2.5703,2.5703,0.0,0.0,0.0,0.0,0.0,0.0,0.0,0.0,0.0,0.0,0.0,0.0,0.0,0.0,0.0,0.0,0.0,0.0,0.0,0.0,0.0,0.0,0.0,0.0,0.0,0.0,0.0,0.0,0.0,2.4736,2.412,2.324,2.2023,2.0385,2.0308,2.0308,2.0308,2.0308,1.9885,1.9035,1.9046,1.8588,1.7738,1.7738,1.7718,1.7661,1.691,1.608,1.5346,1.6138,1.5984,1.5231,1.5231,1.5772,1.6545,1.6545,1.7026,1.7584,1.6776,1.6506,1.6506,1.6465,1.5888,1.5365,1.6234,1.6506,1.6679,1.7468,1.8337,1.9207,2.0088,2.0296,2.0304,2.0295,2.0294,2.0313,2.0398,2.0345,2.0316,2.0294,2.0294,2.0316,2.0381,2.0362,2.0358,2.0422,2.0469,2.0488,2.0488,2.0488,2.0488,2.0488,2.0488,2.0823,2.1666,2.1802,2.2209,2.305,2.3924,2.4394,2.4394,2.5234,2.5703,2.5703,2.5703,2.5703,2.5703,2.5703,2.5703,2.5703,2.5703,2.5703,2.0142,0.0,0.0,0.0,0.0,0.0,2.498,2.5646,0.0,0.0,0.0,0.0,0.0,0.0,0.0,0.0,0.0,0.0,0.0,0.0,0.0,0.0,0.0,0.0,0.0,0.0,0.0,0.0,2.5214,2.4889,2.4144,2.2682,2.1658,2.1173,2.0596,2.0308,2.0308,2.0308,2.0173,1.9942,1.9946,1.9488,1.8645,1.8645,1.8299,1.7718,1.8135,1.7808,1.6926,1.5965,1.5792,1.6138,1.6138,1.6638,1.7372,1.7372,1.7507,1.7584,1.6776,1.6506,1.6407,1.5753,1.5404,1.5365,1.6234,1.6506,1.6679,1.7468,1.8365,1.927,2.0155,2.0378,2.0364,2.0361,2.0366,2.037,2.0406,2.0427,2.0432,2.0374,2.0366,2.0372,2.0406,2.0906,2.1314,2.1348,2.188,2.2271,2.2271,2.2271,2.2271,2.2271,2.2318,2.2451,2.2686,2.2766,2.2889,2.3085,2.3925,2.4394,2.4394,2.5234,2.5703,2.5703,2.5703,2.5703,2.5703,2.5703,2.5703,2.5703,2.5703,2.5703,0.0,0.0,0.0,0.0,0.0,0.0,2.4047,2.4788,2.5441,0.0,0.0,0.0,0.0,0.0,0.0,0.0,0.0,0.0,0.0,0.0,0.0,0.0,0.0,0.0,0.0,0.0,0.0,2.5308,2.5308,2.4947,2.4149,2.3144,2.2254,2.1523,2.1038,2.0635,2.0308,2.0308,2.0308,2.0308,2.0308,2.0023,1.9546,1.9546,1.9277,1.8792,1.8946,1.8715,1.8145,1.6792,1.6542,1.7007,1.7007,1.7503,1.8234,1.8238,1.8469,1.8677,1.7834,1.7545,1.7456,1.6973,1.6582,1.6455,1.7357,1.7636,1.7713,1.8194,1.8957,1.9767,2.0266,2.0408,2.0414,2.0435,2.0438,2.0443,2.0478,2.0512,2.0516,2.0446,2.0438,2.0444,2.0478,2.1174,2.1756,2.1789,2.2495,2.3042,2.3042,2.3062,2.3081,2.3081,2.3094,2.3256,2.3608,2.3671,2.3848,2.416,2.4668,2.4941,2.4941,2.543,2.5703,2.5703,2.5703,2.5703,2.5703,2.5703,2.5703,2.5703,2.5703,2.5703,0.0,0.0,0.0,0.0,0.0,0.0,2.2586,2.3573,2.4511,0.0,0.0,0.0,0.0,0.0,0.0,0.0,0.0,0.0,0.0,0.0,0.0,0.0,0.0,0.0,0.0,2.5865,2.5308,2.5308,2.5308,2.4981,2.4259,2.4149,2.3394,2.1831,2.1696,2.1254,2.0442,2.0423,2.0385,2.0308,2.0308,2.0308,2.0308,2.0308,2.0308,2.025,1.9488,1.9146,1.9088,1.8315,1.793,1.7834,1.7834,1.8385,1.9131,1.9142,1.963,2.0173,1.9314,1.9016,1.9017,1.8974,1.8438,1.7972,1.8928,1.9192,1.9211,1.9314,1.9857,2.0418,2.0425,2.0425,2.0435,2.0507,2.0511,2.0537,2.0586,2.0684,2.0722,2.0672,2.057,2.0537,2.0586,2.1343,2.1983,2.2031,2.2812,2.3398,2.3398,2.3437,2.3477,2.3477,2.3418,2.3691,2.4473,2.4531,2.4863,2.5644,2.5703,2.5703,2.5703,2.5703,2.5703,2.5703,2.5703,2.5703,2.5703,2.5703,2.5703,2.5703,2.5703,2.5703,0.0,0.0,0.0,0.0,0.0,0.0,2.2471,2.3173,2.3898,0.0,0.0,0.0,0.0,0.0,0.0,0.0,0.0,0.0,0.0,0.0,0.0,0.0,0.0,0.0,0.0,2.6212,2.5308,2.5308,2.5308,2.5231,2.5077,2.4452,2.3937,2.3605,2.2913,2.212,2.1273,2.1273,2.0942,2.0308,2.0308,2.0308,2.0308,2.0308,2.0308,2.0288,2.0119,2.0042,2.0023,1.9869,1.9369,1.8742,1.875,1.9288,2.0058,2.0042,2.0148,2.0189,1.9363,1.9114,1.9046,1.8366,1.8022,1.8043,1.8939,1.9192,1.9354,2.0046,2.0364,2.0485,2.0541,2.0563,2.0564,2.0585,2.0585,2.0585,2.0605,2.1152,2.1641,2.1621,2.1054,2.0585,2.0605,2.1894,2.2929,2.2949,2.4238,2.5195,2.5195,2.5195,2.5215,2.5215,2.5195,2.5254,2.543,2.5449,2.5527,2.5684,2.5703,2.5703,2.5703,2.5703,2.5703,2.5703,2.5703,2.5703,2.5703,2.5703,2.5703,2.5703,2.5703,2.5703,0.0,0.0,0.0,1.9947,0.0,0.0,0.0,2.2203,2.2727,2.3537,0.0,0.0,0.0,0.0,0.0,0.0,0.0,0.0,0.0,0.0,0.0,0.0,0.0,0.0,0.0,2.6077,2.5308,2.5308,2.5308,2.5308,2.5308,2.4928,2.4509,2.411,2.3687,2.3028,2.2158,2.1716,2.1293,2.0885,2.0481,2.0308,2.0308,2.0308,2.0308,2.0308,2.0308,2.0308,2.0308,2.0308,2.0034,1.9651,1.9653,1.9915,2.0304,2.0304,2.032,2.0286,1.9881,1.9768,1.9737,1.9336,1.9206,1.9288,1.9766,1.9906,1.9985,2.0423,2.0542,2.0563,2.0586,2.0605,2.0605,2.0605,2.0937,2.125,2.125,2.1914,2.25,2.25,2.2148,2.1855,2.1894,2.2949,2.3809,2.3809,2.4883,2.5703,2.5703,2.5703,2.5703,2.5703,2.5703,2.5703,2.5703,2.5703,2.5703,2.5703,2.5703,2.5703,2.5703,2.5703,2.5703,2.5703,2.5703,2.5703,2.5703,2.5703,2.5703,2.5703,2.5703,2.5703,0.0,0.0,0.0,0.0,0.0,2.0433,0.0,0.0,0.0,2.2209,0.0,0.0,0.0,0.0,0.0,0.0,0.0,0.0,0.0,0.0,0.0,0.0,0.0,0.0,0.0,2.6058,2.5481,2.5308,2.5462,2.5481,2.5308,2.5308,2.5,2.4356,2.4336,2.3913,2.3067,2.2197,2.1677,2.1485,2.0673,2.0308,2.0308,2.0308,2.03,2.0296,2.0296,2.0312,2.0325,2.0307,2.0314,2.0324,2.0317,2.0318,2.0313,2.0313,2.0357,2.0423,2.0423,2.043,2.0443,2.0508,2.0515,2.0537,2.0585,2.0605,2.0605,2.0605,2.0605,2.0605,2.0605,2.0605,2.0644,2.0801,2.1387,2.1934,2.2109,2.2773,2.3359,2.3359,2.3496,2.3516,2.3223,2.3867,2.4394,2.4394,2.5137,2.5703,2.5703,2.5703,2.5703,2.5703,2.5703,2.5703,2.5703,2.5703,2.5703,2.5703,2.5703,2.5703,2.5703,2.5703,2.5703,2.5703,2.5703,2.5703,2.5703,2.5703,2.5703,2.5703,2.5703,2.5703,0.0,0.0,0.0,0.0,2.0,0.0,0.0,0.0,2.1718,2.2209,0.0,0.0,0.0,0.0,0.0,0.0,0.0,0.0,0.0,0.0,0.0,0.0,0.0,0.0,0.0,0.0,2.6135,2.5365,2.6019,2.6115,2.5346,2.5308,2.5269,2.5173,2.5154,2.4774,2.3956,2.3086,2.2254,2.1485,2.0673,2.0308,2.0308,2.0308,2.0299,2.0292,2.0307,2.0328,2.0385,2.0324,2.0341,2.0374,2.0327,2.0344,2.04,2.04,2.0432,2.0483,2.0483,2.0537,2.0585,2.0585,2.0586,2.0586,2.0605,2.0605,2.0605,2.0605,2.0605,2.0605,2.0605,2.0605,2.0781,2.1562,2.1836,2.2109,2.2812,2.3633,2.4258,2.4258,2.4883,2.4922,2.3379,2.3828,2.4394,2.4394,2.5137,2.5703,2.5703,2.5703,2.5703,2.5703,2.5703,2.5703,2.5703,2.5703,2.5703,2.5703,2.5703,2.5703,2.5703,2.5703,2.5703,2.5703,2.5703,2.5703,2.5703,2.5703,2.5703,2.5703,2.5703,2.5703,0.0,0.0,0.0,0.0,0.0,0.0,2.0829,0.0,2.1446,0.0,0.0,0.0,0.0,0.0,0.0,0.0,2.5244,0.0,0.0,0.0,0.0,0.0,0.0,0.0,0.0,0.0,0.0,0.0,2.6143,2.6268,2.5351,2.5308,2.5308,2.5308,2.5308,2.5135,2.4793,2.3971,2.3124,2.2235,2.1408,2.0743,2.0295,2.0295,2.0323,2.0352,2.036,2.0362,2.0406,2.0363,2.0406,2.0467,2.0429,2.0434,2.0468,2.0468,2.0508,2.0563,2.0563,2.0585,2.0605,2.0605,2.0605,2.0605,2.0605,2.0605,2.0605,2.0605,2.0605,2.0723,2.1211,2.1348,2.1562,2.2402,2.2988,2.3437,2.3789,2.4531,2.5156,2.5156,2.5449,2.5469,2.4727,2.4902,2.5156,2.5156,2.5469,2.5703,2.5703,2.5703,2.5703,2.5703,2.5703,2.5703,2.5703,2.5703,2.5703,2.5703,2.5703,2.5703,2.5703,2.5703,2.5937,2.6445,2.6445,2.6699,2.7207,2.6699,2.6445,2.6445,2.5937,2.5703,1.9517,0.0,0.0,0.0,0.0,0.0,0.0,0.0,0.0,0.0,0.0,0.0,0.0,0.0,0.0,0.0,0.0,0.0,0.0,0.0,0.0,0.0,0.0,0.0,0.0,0.0,0.0,2.5741,2.6524,2.654,2.5351,2.5308,2.5308,2.5308,2.5308,2.5308,2.5308,2.4522,2.3679,2.2797,2.1949,2.1107,2.0291,2.0311,2.0359,2.0429,2.0416,2.0425,2.0446,2.0434,2.0472,2.0537,2.0537,2.0537,2.0537,2.0537,2.0563,2.0605,2.0605,2.0605,2.0605,2.0605,2.0605,2.0605,2.0605,2.0762,2.0918,2.0664,2.0762,2.1094,2.1738,2.1894,2.2168,2.3203,2.3945,2.4473,2.4707,2.5254,2.5703,2.5703,2.5703,2.5703,2.5703,2.5703,2.5703,2.5703,2.5703,2.5703,2.5703,2.5703,2.5703,2.5703,2.5703,2.5703,2.5703,2.5703,2.5703,2.5703,2.5703,2.5703,2.5703,2.5937,2.6348,2.6992,2.7226,2.7676,2.8301,2.7656,2.7363,2.7324,2.6211,2.5703,0.0,0.0,0.0,1.9872,0.0,0.0,0.0,0.0,2.1118,0.0,0.0,0.0,0.0,0.0,0.0,0.0,0.0,0.0,0.0,0.0,0.0,0.0,0.0,0.0,0.0,0.0,0.0,2.6688,2.7424,2.7189,2.539,2.5308,2.5308,2.5308,2.5308,2.5308,2.5308,2.4563,2.374,2.2797,2.2042,2.1199,2.0294,2.0361,2.0434,2.0485,2.043,2.0476,2.0586,2.0516,2.0539,2.0605,2.0605,2.0605,2.0605,2.0605,2.0605,2.0605,2.0605,2.0605,2.0605,2.0605,2.0605,2.0605,2.0605,2.1191,2.168,2.084,2.1211,2.1855,2.1894,2.1894,2.2324,2.3965,2.4375,2.4629,2.5488,2.5684,2.5703,2.5703,2.5703,2.5703,2.5703,2.5703,2.5703,2.5703,2.5703,2.5703,2.5703,2.5703,2.5703,2.5703,2.5703,2.5703,2.5703,2.5703,2.5703,2.5703,2.5703,2.5703,2.5703,2.6504,2.6973,2.6992,2.7832,2.8262,2.8301,2.8262,2.8262,2.8223,2.6504,2.5703,0.0,0.0,2.0643,2.0423,0.0,0.0,0.0,0.0,0.0,0.0,0.0,0.0,0.0,0.0,0.0,0.0,0.0,0.0,0.0,0.0,0.0,0.0,0.0,0.0,0.0,0.0,0.0,2.6758,2.7002,2.6692,2.5493,2.5395,2.5387,2.5431,2.5391,2.5387,2.5431,2.5171,2.4633,2.3797,2.3534,2.2978,2.2137,2.1582,2.1368,2.1384,2.0794,2.0563,2.0605,2.0585,2.0585,2.0605,2.0605,2.0605,2.0605,2.0605,2.0605,2.0605,2.0605,2.0605,2.0703,2.1269,2.1465,2.1562,2.209,2.2461,2.2637,2.2383,2.25,2.2832,2.3398,2.3555,2.3848,2.498,2.5254,2.5332,2.5644,2.5703,2.5703,2.5703,2.5703,2.5703,2.5703,2.5703,2.5703,2.5703,2.5703,2.5703,2.5703,2.5703,2.5703,2.5703,2.5703,2.5703,2.5703,2.5703,2.5703,2.5703,2.5703,2.5703,2.5703,2.6543,2.6992,2.6992,2.8418,2.916,2.916,2.8574,2.8594,2.9121,2.7363,2.6875,2.1755,2.1217,0.0,2.0408,2.0131,0.0,2.0054,0.0,0.0,0.0,0.0,0.0,0.0,0.0,0.0,0.0,0.0,0.0,0.0,2.6709,0.0,0.0,0.0,0.0,0.0,0.0,2.8314,2.6812,2.7073,2.6766,0.0,0.0,2.5462,2.551,2.5468,2.5465,2.5491,2.5511,2.5126,2.4293,2.4328,2.3898,2.3089,2.2528,2.2302,2.2324,2.1777,2.1504,2.1484,2.1504,2.1523,2.1523,2.1523,2.1348,2.1055,2.1055,2.123,2.1484,2.1484,2.1484,2.1582,2.2168,2.2344,2.2422,2.2949,2.332,2.3516,2.3242,2.3359,2.3691,2.4258,2.4394,2.4629,2.5488,2.5703,2.5703,2.5703,2.5703,2.5703,2.5703,2.5703,2.5703,2.5703,2.5703,2.5703,2.5703,2.5703,2.5703,2.5703,2.5703,2.5703,2.5703,2.5703,2.5703,2.5703,2.5703,2.582,2.6133,2.6152,2.6152,2.6152,2.6992,2.7324,2.7012,2.8711,2.9609,2.9609,2.9043,2.9043,2.957,2.8125,2.7754]}]]